[[{"header":{"parameterUnit":"m.s-1","parameterCategory":1,"la1":30.6,"la2":29.2853,"lo1":-89.7004,"lo2":-87.6739,"dy":0.0162,"dx":0.0183,"nx":112,"ny":82,"refTime":"2023-08-22T12:00:00:Z","depth":0,"parameterNumber":2,"parameterNumberName":"U-component_of_WINDS"},"data":[0.0,0.0,0.0,0.0,0.0,0.0,0.0,0.0,0.0,0.0,0.0,0.0,0.0,0.0,0.0,0.0,0.0,0.0,0.0,0.0,0.0,0.0,0.0,0.0,0.0,0.0,0.0,0.0,0.0,0.0,0.0,0.0,0.0,0.0,0.0,0.0,0.0,0.0,0.0,0.0,0.0,0.0,0.0,0.0,0.0,0.0,0.0,0.0,0.0,0.0,0.0,0.0,0.0,0.0,0.0,0.0,0.0,0.0,0.0,0.0,0.0,0.0,0.0,0.0,0.0,0.0,0.0,0.0,0.0,0.0,0.0,0.0,0.0,0.0,0.0,0.0,0.0,0.0,0.0,0.0,0.0,0.0,0.0,0.0,0.0,0.0,0.0,0.0,0.0,0.0,1.6384,1.6384,1.6384,1.6384,1.6384,1.6384,1.6384,1.6384,0.0,0.0,0.0,0.0,0.0,0.0,0.0,0.0,0.0,0.0,0.0,0.0,0.0,0.0,0.0,0.0,0.0,0.0,0.0,0.0,0.0,0.0,0.0,0.0,0.0,0.0,0.0,0.0,0.0,0.0,0.0,0.0,0.0,0.0,0.0,0.0,0.0,0.0,0.0,0.0,0.0,0.0,0.0,0.0,0.0,0.0,0.0,0.0,0.0,0.0,0.0,0.0,0.0,0.0,0.0,0.0,0.0,0.0,0.0,0.0,0.0,0.0,0.0,0.0,0.0,0.0,0.0,0.0,0.0,0.0,0.0,0.0,0.0,0.0,0.0,0.0,0.0,0.0,0.0,0.0,0.0,0.0,0.0,0.0,0.0,0.0,0.0,0.0,0.0,0.0,0.0,0.0,0.0,0.0,0.0,0.0,0.0,0.0,0.0,0.0,0.0,0.0,0.0,0.0,1.6384,1.6384,1.6384,1.6384,1.6384,1.6384,1.6384,1.6384,0.0,0.0,0.0,0.0,0.0,0.0,0.0,0.0,0.0,0.0,0.0,0.0,0.0,0.0,0.0,0.0,0.0,0.0,0.0,0.0,0.0,0.0,0.0,0.0,0.0,0.0,0.0,0.0,0.0,0.0,0.0,0.0,0.0,0.0,0.0,0.0,0.0,0.0,0.0,0.0,0.0,0.0,0.0,0.0,0.0,0.0,0.0,0.0,0.0,0.0,0.0,0.0,0.0,0.0,0.0,0.0,0.0,0.0,0.0,0.0,0.0,0.0,0.0,0.0,0.0,0.0,0.0,0.0,0.0,0.0,0.0,0.0,0.0,0.0,0.0,0.0,0.0,0.0,0.0,0.0,0.0,0.0,0.0,0.0,0.0,0.0,0.0,0.0,0.0,0.0,0.0,0.0,0.0,0.0,0.0,0.0,0.0,0.0,0.0,0.0,0.0,0.0,0.0,1.6488,1.6384,1.6384,1.6384,1.6384,1.6384,1.6384,1.6534,1.6797,1.6842,0.0,0.0,0.0,0.0,0.0,0.0,0.0,0.0,0.0,0.0,0.0,0.0,0.0,0.0,0.0,0.0,0.0,0.0,0.0,0.0,0.0,0.0,0.0,0.0,0.0,0.0,0.0,0.0,0.0,0.0,0.0,0.0,0.0,0.0,0.0,0.0,0.0,0.0,0.0,0.0,0.0,0.0,0.0,0.0,0.0,0.0,0.0,0.0,0.0,0.0,0.0,0.0,0.0,0.0,0.0,0.0,0.0,0.0,0.0,0.0,0.0,0.0,0.0,0.0,0.0,0.0,0.0,0.0,0.0,0.0,0.0,0.0,0.0,0.0,0.0,0.0,0.0,0.0,0.0,0.0,0.0,0.0,0.0,0.0,0.0,0.0,0.0,0.0,0.0,0.0,0.0,0.0,0.0,0.0,0.0,0.0,0.0,0.0,0.0,0.0,0.0,0.0,1.6545,1.6384,1.6384,1.6384,1.6384,1.6384,1.6384,1.6637,1.7213,1.7368,0.0,0.0,0.0,0.0,0.0,0.0,0.0,0.0,0.0,0.0,0.0,0.0,0.0,0.0,0.0,0.0,0.0,0.0,0.0,0.0,0.0,0.0,0.0,0.0,0.0,0.0,0.0,0.0,0.0,0.0,0.0,0.0,0.0,0.0,0.0,0.0,0.0,0.0,0.0,0.0,0.0,0.0,0.0,0.0,0.0,0.0,0.0,0.0,0.0,0.0,0.0,0.0,0.0,0.0,0.0,0.0,0.0,0.0,0.0,0.0,0.0,0.0,0.0,0.0,0.0,0.0,0.0,0.0,0.0,0.0,0.0,0.0,0.0,0.0,0.0,0.0,0.0,0.0,0.0,0.0,0.0,0.0,0.0,0.0,0.0,0.0,0.0,0.0,0.0,0.0,0.0,0.0,0.0,0.0,0.0,0.0,0.0,0.0,0.0,0.0,0.0,0.0,1.6545,1.6384,1.6384,1.6384,1.6384,1.6384,1.6384,1.6694,1.7324,1.7918,0.0,0.0,0.0,0.0,0.0,0.0,0.0,0.0,0.0,0.0,0.0,0.0,0.0,0.0,0.0,0.0,0.0,0.0,0.0,0.0,0.0,0.0,0.0,0.0,0.0,0.0,0.0,0.0,0.0,0.0,0.0,0.0,0.0,0.0,0.0,0.0,0.0,0.0,0.0,0.0,0.0,0.0,0.0,0.0,0.0,0.0,0.0,0.0,0.0,0.0,0.0,0.0,0.0,0.0,0.0,0.0,0.0,0.0,0.0,0.0,0.0,0.0,0.0,0.0,0.0,0.0,0.0,0.0,0.0,0.0,0.0,0.0,0.0,0.0,0.0,0.0,0.0,0.0,0.0,0.0,0.0,0.0,0.0,0.0,0.0,0.0,0.0,0.0,0.0,0.0,0.0,0.0,0.0,0.0,0.0,0.0,0.0,0.0,0.0,0.0,0.0,0.0,1.6874,1.6384,1.6384,1.6384,1.6534,1.6899,1.6888,1.7379,1.8471,0.0,0.0,0.0,0.0,0.0,0.0,0.0,0.0,0.0,0.0,0.0,0.0,0.0,0.0,0.0,0.0,0.0,0.0,0.0,0.0,0.0,0.0,0.0,0.0,0.0,0.0,0.0,0.0,0.0,0.0,0.0,0.0,0.0,0.0,0.0,0.0,0.0,0.0,0.0,0.0,0.0,0.0,0.0,0.0,0.0,0.0,0.0,0.0,0.0,0.0,0.0,0.0,0.0,0.0,0.0,0.0,0.0,0.0,0.0,0.0,0.0,0.0,0.0,0.0,0.0,0.0,0.0,0.0,0.0,0.0,0.0,0.0,0.0,0.0,0.0,0.0,0.0,0.0,0.0,0.0,0.0,0.0,0.0,0.0,0.0,0.0,0.0,0.0,0.0,0.0,0.0,0.0,0.0,0.0,0.0,0.0,0.0,0.0,0.0,0.0,0.0,0.0,1.7854,1.7032,1.6488,1.6637,1.6637,1.6909,1.7424,1.7479,1.7972,1.9121,0.0,0.0,0.0,0.0,0.0,0.0,0.0,0.0,0.0,0.0,0.0,0.0,0.0,0.0,0.0,0.0,0.0,0.0,0.0,0.0,0.0,0.0,0.0,0.0,0.0,0.0,0.0,0.0,0.0,0.0,0.0,0.0,0.0,0.0,0.0,0.0,0.0,0.0,0.0,0.0,0.0,0.0,0.0,0.0,0.0,0.0,0.0,0.0,0.0,0.0,0.0,0.0,0.0,0.0,0.0,0.0,0.0,0.0,0.0,0.0,0.0,0.0,0.0,0.0,0.0,0.0,0.0,0.0,0.0,0.0,0.0,0.0,0.0,0.0,0.0,0.0,0.0,0.0,0.0,0.0,0.0,0.0,0.0,0.0,0.0,0.0,0.0,0.0,0.0,0.0,0.0,0.0,0.0,0.0,0.0,0.0,0.0,0.0,0.0,0.0,0.0,0.0,1.7897,1.7032,1.6637,1.7157,1.7202,1.7479,1.8038,1.8093,1.8417,0.0,0.0,0.0,0.0,0.0,0.0,0.0,0.0,0.0,0.0,0.0,0.0,0.0,0.0,0.0,0.0,0.0,0.0,0.0,0.0,0.0,0.0,0.0,0.0,0.0,0.0,0.0,0.0,0.0,0.0,0.0,0.0,0.0,0.0,0.0,0.0,0.0,0.0,0.0,0.0,0.0,0.0,0.0,0.0,0.0,0.0,0.0,0.0,0.0,0.0,0.0,0.0,0.0,0.0,0.0,0.0,0.0,0.0,0.0,0.0,0.0,0.0,0.0,0.0,0.0,0.0,0.0,0.0,0.0,0.0,0.0,0.0,0.0,0.0,0.0,0.0,0.0,0.0,0.0,0.0,0.0,0.0,0.0,0.0,0.0,0.0,0.0,0.0,0.0,0.0,0.0,0.0,0.0,0.0,0.0,0.0,0.0,0.0,0.0,0.0,0.0,0.0,0.0,1.8655,1.8061,1.7611,1.7545,1.771,1.8093,1.8655,1.8709,1.9028,1.972,0.0,0.0,0.0,0.0,0.0,0.0,0.0,0.0,0.0,0.0,0.0,0.0,0.0,0.0,0.0,0.0,0.0,0.0,0.0,0.0,0.0,0.0,0.0,0.0,0.0,0.0,0.0,0.0,0.0,0.0,0.0,0.0,0.0,0.0,0.0,0.0,0.0,0.0,0.0,0.0,0.0,0.0,0.0,0.0,0.0,0.0,0.0,0.0,0.0,0.0,0.0,0.0,0.0,0.0,0.0,0.0,0.0,0.0,0.0,0.0,0.0,0.0,0.0,0.0,0.0,0.0,0.0,0.0,0.0,0.0,0.0,0.0,0.0,0.0,0.0,0.0,0.0,0.0,0.0,0.0,0.0,0.0,0.0,0.0,0.0,0.0,0.0,0.0,0.0,0.0,0.0,0.0,0.0,0.0,0.0,0.0,0.0,0.0,0.0,0.0,0.0,0.0,1.9226,1.8685,1.8309,1.8363,1.8513,1.8845,1.946,1.9408,1.9565,1.999,0.0,0.0,0.0,0.0,0.0,0.0,0.0,0.0,0.0,0.0,0.0,0.0,0.0,0.0,0.0,0.0,0.0,0.0,0.0,0.0,0.0,0.0,0.0,0.0,0.0,0.0,0.0,0.0,0.0,0.0,0.0,0.0,0.0,0.0,0.0,0.0,0.0,0.0,0.0,0.0,0.0,0.0,0.0,0.0,0.0,0.0,0.0,0.0,0.0,0.0,0.0,0.0,0.0,0.0,0.0,0.0,0.0,0.0,0.0,0.0,0.0,0.0,0.0,0.0,0.0,0.0,0.0,0.0,0.0,0.0,0.0,0.0,0.0,0.0,0.0,0.0,0.0,0.0,0.0,0.0,0.0,0.0,0.0,0.0,0.0,0.0,0.0,0.0,0.0,0.0,0.0,0.0,0.0,0.0,0.0,0.0,0.0,0.0,0.0,0.0,0.0,0.0,1.9619,1.9044,1.8845,1.9371,1.9475,1.9695,2.0182,2.008,1.999,1.999,0.0,0.0,0.0,0.0,0.0,0.0,0.0,0.0,0.0,0.0,0.0,0.0,0.0,0.0,0.0,0.0,0.0,0.0,0.0,0.0,0.0,0.0,0.0,0.0,0.0,0.0,0.0,0.0,0.0,0.0,0.0,0.0,0.0,0.0,0.0,0.0,0.0,0.0,0.0,0.0,0.0,0.0,0.0,0.0,0.0,0.0,0.0,0.0,0.0,0.0,0.0,0.0,0.0,0.0,0.0,0.0,0.0,0.0,0.0,0.0,1.6663,1.6137,0.0,0.0,0.0,0.0,0.0,0.0,0.0,0.0,0.0,0.0,0.0,0.0,0.0,0.0,0.0,0.0,0.0,0.0,0.0,0.0,0.0,0.0,0.0,0.0,0.0,0.0,0.0,0.0,0.0,0.0,0.0,0.0,0.0,0.0,0.0,0.0,0.0,0.0,0.0,0.0,1.994,1.985,1.9811,1.9695,1.9901,2.0067,2.0182,2.0182,2.0131,1.999,2.0131,0.0,0.0,0.0,0.0,0.0,0.0,0.0,0.0,0.0,0.0,0.0,0.0,0.0,0.0,0.0,0.0,0.0,0.0,0.0,0.0,0.0,0.0,0.0,0.0,0.0,0.0,0.0,0.0,0.0,0.0,0.0,0.0,0.0,0.0,0.0,0.0,0.0,0.0,0.0,0.0,0.0,0.0,0.0,0.0,0.0,0.0,0.0,0.0,0.0,0.0,0.0,0.0,0.0,0.0,0.0,0.0,0.0,0.0,0.0,1.7926,1.7275,0.0,0.0,0.0,0.0,0.0,0.0,0.0,0.0,0.0,0.0,0.0,0.0,0.0,0.0,0.0,0.0,0.0,0.0,0.0,0.0,0.0,0.0,0.0,0.0,0.0,0.0,0.0,0.0,0.0,0.0,0.0,0.0,0.0,0.0,0.0,0.0,0.0,0.0,0.0,0.0,2.0372,2.0385,2.0334,2.0182,2.0246,2.0347,2.0347,2.0233,2.0233,2.0258,2.0296,0.0,0.0,0.0,0.0,0.0,0.0,0.0,0.0,0.0,0.0,0.0,0.0,0.0,0.0,0.0,0.0,0.0,0.0,0.0,0.0,0.0,0.0,0.0,0.0,0.0,0.0,0.0,0.0,0.0,0.0,0.0,0.0,0.0,0.0,0.0,0.0,0.0,0.0,0.0,0.0,0.0,0.0,0.0,0.0,0.0,0.0,0.0,0.0,0.0,0.0,0.0,0.0,0.0,1.8969,1.8975,1.8967,1.9071,1.9063,1.899,1.9118,1.8423,1.7239,1.7699,0.0,0.0,0.0,0.0,0.0,0.0,0.0,0.0,0.0,0.0,0.0,0.0,0.0,0.0,0.0,0.0,0.0,0.0,0.0,0.0,0.0,0.0,1.899,2.0374,2.0699,2.0699,2.0699,0.0,0.0,0.0,0.0,0.0,0.0,0.0,0.0,0.0,0.0,0.0,2.0662,2.0662,2.0612,2.0461,2.0461,2.0461,2.0461,2.0296,2.0233,2.041,2.041,2.0461,0.0,0.0,0.0,0.0,0.0,0.0,0.0,0.0,0.0,0.0,0.0,0.0,0.0,0.0,0.0,0.0,0.0,0.0,0.0,0.0,0.0,0.0,0.0,0.0,0.0,0.0,0.0,0.0,0.0,0.0,0.0,0.0,1.7115,1.7127,0.0,0.0,0.0,0.0,0.0,0.0,0.0,0.0,0.0,0.0,0.0,0.0,0.0,1.8637,1.8662,1.8773,1.8753,1.8647,1.9231,1.9512,1.9538,2.0143,2.0427,2.0427,2.0476,0.0,1.8344,1.7888,0.0,0.0,0.0,0.0,0.0,0.0,0.0,0.0,0.0,0.0,0.0,0.0,0.0,0.0,0.0,0.0,0.0,0.0,0.0,0.0,0.0,0.0,1.9097,2.0388,2.0699,2.0699,2.0699,2.0699,2.0749,2.0699,2.0699,2.0699,0.0,0.0,0.0,0.0,0.0,0.0,2.0562,2.0511,2.0461,2.0233,2.0233,2.0233,2.0233,2.0233,2.0182,2.0093,2.0195,2.0233,2.0233,2.0398,0.0,0.0,0.0,0.0,0.0,0.0,0.0,0.0,0.0,0.0,0.0,0.0,0.0,0.0,0.0,0.0,0.0,0.0,0.0,0.0,0.0,0.0,0.0,0.0,0.0,0.0,0.0,0.0,0.0,1.7409,1.786,1.7238,1.7401,1.7394,0.0,0.0,0.0,0.0,0.0,0.0,0.0,0.0,0.0,1.8319,1.8955,1.9253,1.9279,1.9963,2.0289,2.0239,2.0848,2.1185,2.116,2.1511,2.1668,2.1668,2.1642,2.129,2.0602,1.9287,1.857,1.8157,0.0,0.0,0.0,0.0,1.7868,1.7868,1.7926,1.797,1.797,1.7894,0.0,0.0,0.0,0.0,0.0,0.0,0.0,1.7409,1.8349,1.8926,1.9473,2.0453,2.0699,2.0699,2.0699,2.0699,2.0699,2.0699,2.0699,2.0804,2.108,2.0922,0.0,0.0,0.0,2.1043,2.094,2.1172,2.1194,2.1074,2.1021,2.1021,2.1021,2.0754,2.0576,2.0628,2.0374,2.0233,2.0347,2.0461,2.0562,0.0,0.0,0.0,0.0,0.0,0.0,0.0,0.0,0.0,0.0,0.0,0.0,0.0,0.0,0.0,0.0,0.0,0.0,0.0,0.0,0.0,0.0,0.0,0.0,0.0,0.0,0.0,0.0,1.8355,1.8827,1.7668,1.8004,1.8048,0.0,0.0,0.0,0.0,0.0,0.0,1.7926,1.8675,1.905,1.9085,1.9723,2.0184,2.0328,2.1251,2.1734,2.1734,2.2219,2.2374,2.24,2.2387,2.2428,2.2415,2.2387,2.2387,2.2256,2.0705,1.9762,1.9278,1.9089,1.9025,1.9025,1.9085,1.9085,1.9085,1.924,1.93,1.9274,1.9071,1.8882,1.8745,1.8827,0.0,0.0,0.0,0.0,1.8444,1.9149,1.9649,2.0213,2.0963,2.1144,2.1144,2.1144,2.1144,2.1053,2.0764,2.0699,2.0882,2.1407,2.1159,0.0,2.159,2.1628,2.1535,2.1416,2.1681,2.1827,2.1648,2.1648,2.1648,2.1648,2.1281,2.112,2.1215,2.0679,2.0463,2.0579,2.0552,2.0562,2.0662,0.0,0.0,0.0,0.0,0.0,0.0,0.0,0.0,0.0,0.0,0.0,0.0,0.0,0.0,0.0,0.0,0.0,0.0,0.0,0.0,0.0,0.0,0.0,0.0,0.0,0.0,0.0,0.0,0.0,1.9197,1.9255,0.0,0.0,0.0,0.0,1.8649,1.876,1.8727,1.8562,1.9292,1.996,2.0408,2.1068,2.1681,2.223,2.2322,2.2348,2.2376,2.2402,2.2415,2.2415,2.24,2.2387,2.2415,2.2415,2.2387,2.2348,2.1563,2.1212,2.1082,2.045,2.0181,2.0244,2.037,2.037,2.0421,2.057,2.062,2.0479,1.9807,1.9132,1.8703,1.9269,1.9423,0.0,0.0,2.0129,2.0334,2.0992,2.1212,2.1394,2.2124,2.2296,2.2323,2.2323,2.2323,2.2009,2.0908,2.0699,2.0882,2.1407,0.0,2.1616,2.2027,2.2252,2.2185,2.172,2.1788,2.1801,2.1536,2.1493,2.1493,2.1493,2.1468,2.1443,2.1511,2.1116,2.0866,2.0866,2.0656,2.0511,2.0511,2.0662,0.0,0.0,0.0,0.0,0.0,0.0,0.0,0.0,0.0,0.0,0.0,0.0,0.0,0.0,0.0,0.0,0.0,0.0,0.0,0.0,0.0,0.0,0.0,0.0,0.0,0.0,0.0,0.0,1.9964,2.0014,0.0,1.8968,1.8552,1.8395,1.8647,1.9439,1.9853,1.9853,2.0886,2.1538,2.1707,2.1969,2.2178,2.2415,2.274,2.2923,2.2923,2.3302,2.3485,2.3485,2.3498,2.3498,2.3485,2.3485,2.3498,2.3498,2.3206,2.2685,2.2007,2.1745,2.1654,2.1641,2.1707,2.172,2.1733,2.176,2.1799,2.1773,2.1485,2.1225,2.0978,2.0733,2.0681,2.0591,2.0373,2.0579,2.1017,2.1264,2.1654,2.2046,2.2322,2.2428,2.2415,2.2387,2.2374,2.2297,2.1878,2.1799,2.193,2.2505,2.2296,2.2202,2.2622,2.2769,2.2644,2.2236,2.2623,2.2794,2.2548,2.2548,2.2548,2.2548,2.2221,2.202,2.202,2.1562,2.1314,2.1411,2.1051,2.0914,2.1017,2.0794,2.0699,0.0,0.0,0.0,0.0,0.0,0.0,0.0,0.0,0.0,0.0,0.0,0.0,0.0,0.0,0.0,0.0,0.0,0.0,0.0,0.0,0.0,0.0,0.0,0.0,0.0,2.0511,2.0955,2.0429,2.0509,2.0511,2.0188,1.9614,1.9512,2.0118,2.0755,2.1147,2.1134,2.1956,2.2507,2.2635,2.2675,2.2766,2.2949,2.3341,2.3524,2.3524,2.3929,2.4112,2.4112,2.4112,2.4112,2.4112,2.4112,2.4112,2.4112,2.4112,2.3668,2.2988,2.2988,2.2975,2.2949,2.2949,2.2962,2.2975,2.2962,2.2818,2.2648,2.2675,2.2557,2.2361,2.2018,2.1953,2.1861,2.1639,2.1912,2.2252,2.2252,2.2607,2.2949,2.2949,2.2949,2.2962,2.2975,2.2975,2.2949,2.2949,2.269,2.2598,2.3119,2.2854,2.2747,2.3147,2.3167,2.3052,2.2761,2.309,2.333,2.3138,2.3078,2.3078,2.3078,2.2799,2.2585,2.2585,2.2071,2.1826,2.1926,2.1559,2.1427,2.148,2.1134,2.0895,2.0699,0.0,0.0,0.0,0.0,0.0,0.0,0.0,0.0,0.0,0.0,0.0,0.0,0.0,0.0,0.0,0.0,0.0,0.0,0.0,0.0,0.0,0.0,0.0,1.9984,2.1424,2.2012,2.0756,2.0934,2.1373,2.1799,2.1073,2.1299,2.3065,2.2751,2.2413,2.2441,2.2454,2.2675,2.3223,2.325,2.3524,2.4112,2.4112,2.4112,2.4112,2.4112,2.4112,2.4112,2.4112,2.4112,2.4112,2.4112,2.4112,2.4112,2.4112,2.4112,2.4112,2.4112,2.4112,2.4112,2.4112,2.4112,2.4112,2.4112,2.3733,2.325,2.325,2.2897,2.2557,2.308,2.325,2.3367,2.3955,2.4112,2.4112,2.4112,2.4112,2.4112,2.4112,2.4112,2.4112,2.4112,2.4112,2.4112,2.4112,2.3197,2.2596,2.3145,2.3137,2.316,2.3551,2.3628,0.0,2.3125,2.3271,2.333,2.3138,2.3078,2.3078,2.3138,2.3078,2.3078,2.3078,2.2636,2.2334,2.2334,2.2076,2.1924,2.1911,2.164,2.1237,2.0725,0.0,0.0,0.0,0.0,0.0,0.0,0.0,0.0,0.0,0.0,0.0,0.0,0.0,0.0,0.0,0.0,0.0,0.0,0.0,0.0,0.0,2.0857,2.1703,2.1689,2.2138,2.2554,2.2869,2.304,2.3041,2.2784,2.2977,2.2961,2.2631,2.3218,2.3472,2.2975,2.3393,2.3707,2.3864,2.3877,2.3942,2.4112,2.4112,2.4112,2.4112,2.4112,2.4112,2.4112,2.4112,2.4112,2.4112,2.4112,2.4112,2.4112,2.4112,2.4112,2.4112,2.4112,2.4112,2.4112,2.4112,2.4112,2.4112,2.4112,2.4008,2.3877,2.3877,2.3772,2.3681,2.3825,2.3877,2.3903,2.4073,2.4112,2.4112,2.4112,2.4112,2.4112,2.4112,2.4112,2.4112,2.4112,2.4112,2.4112,2.4112,2.3851,2.3623,2.3677,2.3761,2.3742,2.3497,2.3641,2.3641,2.3138,2.3271,2.3403,2.333,2.3198,2.3138,2.333,2.3198,2.3078,2.3078,2.2927,2.2852,2.2852,2.2661,2.2459,2.2252,2.1746,2.1433,0.0,0.0,0.0,0.0,0.0,0.0,0.0,0.0,0.0,0.0,0.0,0.0,0.0,0.0,0.0,0.0,0.0,0.0,0.0,0.0,0.0,0.0,2.1708,2.2904,2.3273,2.3302,2.3555,2.4214,2.4316,2.4307,2.4283,2.4376,2.4371,2.4228,2.4368,2.4296,2.3973,2.4032,2.4112,2.4112,2.4112,2.4112,2.4112,2.4112,2.4112,2.4112,2.4112,2.4112,2.4112,2.4112,2.4112,2.4112,2.4067,2.4008,2.4008,2.3936,2.3878,2.3878,0.0,0.0,0.0,0.0,2.4112,2.4112,2.439,2.4505,2.4505,2.4708,2.4821,2.4821,2.4765,2.4536,2.4376,2.439,2.4229,2.4008,2.4112,2.4112,2.4112,2.4112,2.4112,2.4112,2.4112,2.4112,2.4112,2.4112,2.4112,0.0,2.3819,2.3819,2.376,2.3463,2.3522,2.345,2.3138,2.3198,2.3271,2.3271,2.3198,2.3138,2.3271,2.3138,0.0,0.0,0.0,2.3138,2.3318,2.3191,0.0,0.0,0.0,2.2113,2.189,2.1302,0.0,0.0,2.0817,2.0699,0.0,0.0,0.0,0.0,0.0,0.0,0.0,0.0,0.0,0.0,0.0,0.0,0.0,0.0,0.0,0.0,2.2467,2.3778,2.4701,2.4806,2.483,2.4975,2.5048,2.5296,2.5836,2.5506,2.5683,2.652,2.5646,2.5061,2.5005,2.4505,0.0,0.0,0.0,2.4171,2.4112,2.4112,2.4112,2.4112,2.4054,2.4093,2.4145,2.408,2.4093,2.4145,2.3916,2.3891,2.3832,2.3688,2.3569,2.3569,2.376,2.3949,2.4054,2.4054,2.4112,2.4171,2.4734,0.0,0.0,2.5467,2.5632,2.5577,2.5467,2.5021,2.4637,2.4664,2.4287,2.3949,2.4067,2.4112,2.4112,2.4112,2.4112,2.4112,2.4112,2.4112,2.4112,2.4112,2.4112,2.3995,2.3688,2.3628,2.3569,2.3403,2.321,2.3138,2.3078,2.3078,2.3138,2.3138,2.3138,0.0,2.3138,2.3138,2.3078,2.3078,2.3078,2.3258,2.3569,2.3569,2.3502,2.3271,2.325,2.2988,2.2505,2.1904,2.1603,2.159,2.1,2.0699,0.0,0.0,0.0,0.0,0.0,0.0,0.0,0.0,0.0,0.0,0.0,0.0,0.0,0.0,0.0,2.1799,2.3275,2.4806,2.6048,2.6132,2.5884,2.5423,2.5903,2.6088,2.572,2.6518,2.6784,2.6054,2.5797,2.5481,2.5005,2.4892,2.462,2.4112,2.4563,2.462,2.4112,2.4112,2.4112,2.4112,2.4008,0.0,2.4551,2.3966,2.3932,2.4343,2.388,2.3628,2.3628,2.3628,2.3509,2.3463,2.3569,2.376,2.3949,2.3949,2.4008,2.4112,2.4229,2.4287,2.4287,2.439,2.4447,2.439,2.4274,2.4157,0.0,2.3865,2.3865,2.3891,2.3949,2.4008,2.4112,2.4112,2.4112,2.4112,2.4112,2.4112,2.4112,2.4112,2.4112,2.4067,2.3891,2.3832,2.37,2.321,2.3271,2.3271,2.3138,2.3078,2.3138,2.333,2.321,2.3138,2.333,2.3198,2.3078,2.3078,2.3078,2.3198,2.3463,2.3509,2.3636,2.3781,2.3415,2.3158,2.3054,2.2479,2.2258,2.2232,2.1184,2.0699,0.0,0.0,0.0,0.0,0.0,0.0,0.0,0.0,0.0,0.0,0.0,2.0323,2.0323,0.0,2.2834,2.3157,2.4565,2.5839,2.6497,2.6788,2.6796,2.6477,2.6731,2.6747,2.6428,2.6997,2.7152,2.6563,2.6283,2.6014,2.5756,2.5203,2.4765,2.4563,2.4505,2.4651,2.5047,2.4708,2.4793,2.5296,2.4888,2.4813,2.5009,2.4589,2.4615,2.4809,2.4466,2.4289,2.4264,2.3936,2.3761,2.3674,2.3432,2.345,2.3641,2.3832,2.3891,2.3936,2.439,2.4492,2.4478,2.4808,2.4921,2.4921,2.4708,2.4421,2.4144,2.4015,2.3806,2.3713,2.3832,2.3949,2.4008,2.4054,2.4112,2.4112,2.4112,2.4112,2.4112,2.4112,2.4112,2.4067,2.3891,2.3891,2.376,2.333,2.333,2.333,2.3138,2.3078,2.3138,2.3271,2.3138,2.3138,2.3271,2.3138,2.3078,2.3078,2.3078,2.3198,2.3403,2.3509,2.3688,2.3891,2.3767,2.3668,2.3668,2.308,2.2792,2.2766,2.193,2.1538,0.0,0.0,0.0,0.0,0.0,0.0,0.0,2.0122,2.0393,2.1133,2.1785,2.2222,2.2222,2.3318,2.4277,2.441,2.5619,2.6583,2.6718,2.706,2.7299,2.7299,2.7233,2.7181,2.7181,2.7181,2.7181,2.7181,2.6736,2.6457,2.6457,2.5563,2.5021,2.5104,2.4727,2.5065,2.6062,2.5535,2.5633,2.6425,2.5709,2.5422,2.5397,2.5294,2.5231,2.532,2.5103,2.4936,2.4911,2.4406,2.4155,2.4117,2.364,2.3525,2.3707,2.379,2.37,2.3688,2.4492,2.465,2.4567,2.5175,2.5342,2.5342,2.5063,2.4681,2.4234,2.4118,2.3734,2.3463,2.37,2.3832,2.3949,2.4067,2.4054,2.4112,2.4112,2.4112,2.4112,2.4112,2.4112,2.4054,2.3949,2.3949,2.3832,2.3522,2.3463,2.339,2.3198,2.3198,2.3198,2.3138,2.3138,2.3138,2.3078,2.3078,2.3138,2.3138,2.3138,2.3258,2.3463,2.3569,2.376,2.3891,2.4008,2.4112,2.4112,2.3629,2.3393,2.338,2.2949,2.2622,1.88,1.9007,1.9772,1.9769,2.0388,2.0944,0.0,2.1323,2.1715,2.1916,2.2293,2.2591,2.2698,2.3383,2.4127,2.4742,2.5639,2.6465,2.7041,2.71,2.7055,2.7055,2.7144,2.713,2.7055,2.713,2.7181,2.7181,2.6669,2.6336,2.6336,2.6176,2.5906,2.5356,2.6357,2.675,2.6351,2.6209,2.6188,2.6316,2.5484,2.5318,2.5841,2.5163,2.5136,2.5539,2.5021,2.482,2.482,2.4757,2.4732,2.472,2.4657,2.4632,2.4582,2.3771,2.3522,2.3628,2.3747,2.3734,2.3734,2.3852,2.3852,2.3852,2.3675,2.3569,2.3509,2.3318,2.3318,2.3403,2.3463,2.3713,2.3891,2.3891,2.4008,2.4112,2.4112,2.4112,2.4112,2.4112,2.4112,2.4112,2.4054,2.4054,2.3936,2.3628,2.3569,2.3569,2.3569,2.3556,2.3509,2.3403,2.3403,2.3271,2.3138,2.3078,2.3198,2.3343,2.3403,2.345,2.3569,2.376,2.3891,2.3891,2.4008,2.4112,2.4112,2.4047,2.4021,2.4021,2.3955,2.3367,2.0698,2.0423,2.0396,2.1021,2.1727,2.2193,2.2193,2.2643,2.3194,2.3771,2.4309,2.4699,2.478,2.537,2.5898,2.6161,2.6541,2.6872,2.7137,2.7093,2.7003,2.7003,2.6989,2.6937,2.6899,2.6937,2.6989,2.6989,2.6817,2.6712,2.6712,2.6351,2.6292,2.651,2.6596,2.7073,2.805,2.7635,2.7742,2.8346,2.7597,2.7285,2.7367,2.6687,2.6263,2.6088,2.5875,2.5774,2.5749,2.5555,2.535,2.5247,2.5062,2.5,2.495,2.4482,2.4305,2.4367,2.4589,2.4602,2.4429,2.4651,2.4651,2.4476,2.4035,2.3885,2.3748,2.3226,2.3138,2.3318,2.378,2.3806,2.3819,2.4332,2.4287,2.4112,2.4112,2.4112,2.4112,2.4112,2.4112,2.4112,2.4112,2.4112,2.4054,2.3936,2.3819,2.376,2.3628,2.3628,2.3569,2.3509,2.3509,2.3509,2.3378,2.3378,2.345,2.3509,2.3509,2.3509,2.3628,2.376,2.3891,2.3891,2.4008,2.4112,2.4112,2.4112,2.4112,2.4112,2.4112,2.3851,2.1276,2.1168,2.1155,2.2178,2.3009,2.3608,2.3608,2.4057,2.4688,2.5316,2.5933,2.6388,2.6438,2.677,2.7078,2.7078,2.7078,2.7078,2.7078,2.6989,2.6951,2.6951,2.6846,2.6779,2.6779,2.6779,2.6779,2.6779,2.6899,2.6951,2.6951,2.6539,2.6651,2.7365,2.7004,2.7609,2.9303,2.8816,2.8988,2.9747,2.9044,2.8648,2.8492,2.7802,2.7229,2.6782,2.6589,2.6533,2.6496,2.616,2.5984,2.5866,2.5595,2.5509,2.5521,2.5521,2.5266,2.5,2.5294,2.5358,2.5421,2.566,2.5772,2.5694,2.5166,2.4987,2.4809,2.4047,2.388,2.3961,2.439,2.4292,2.4131,2.4593,2.4505,2.4287,2.4112,2.4112,2.4112,2.4112,2.4112,2.4112,2.4112,2.4112,2.4112,2.4112,2.4008,2.3878,2.376,2.3688,2.3688,2.3688,2.3628,2.3628,2.3628,2.3628,2.3628,2.37,2.3688,2.3688,2.3747,2.3891,2.3949,2.3949,2.4067,2.4112,2.4112,2.4112,2.4112,2.4112,2.4112,2.4112,1.9318,2.05,2.1712,2.2744,2.4048,2.5143,2.5143,2.5531,2.6,2.6129,2.6506,2.6803,2.6974,2.6884,2.6832,2.6832,2.6832,2.6832,2.6832,2.6779,2.6779,2.6779,2.6779,2.6779,2.6779,2.6779,2.6779,2.6779,2.6779,2.6779,2.6779,2.6779,2.707,2.7654,2.8262,2.89,2.9566,2.9543,2.9594,2.9623,2.8889,2.8492,2.8492,2.7802,2.7484,2.7417,2.6782,2.6533,2.6533,2.6508,2.6508,2.6496,2.6607,2.6663,2.6663,2.6663,2.6044,2.5294,2.518,2.5597,2.6254,2.6254,2.6607,2.7015,2.7001,2.6895,2.668,2.5982,2.5819,2.5683,2.51,2.5063,2.5063,2.4624,2.465,2.4677,2.4229,2.4112,2.4112,2.4112,2.4112,2.4112,2.4112,2.4112,2.4112,2.4112,2.4112,2.4112,2.4112,2.3949,2.3891,2.3891,2.37,2.3628,2.3628,2.3628,2.3688,2.3891,2.3891,2.3949,2.4054,2.4112,2.4112,2.4112,2.4112,2.4112,2.4112,2.4112,2.4112,2.4112,2.4112,2.4112,2.0891,2.1773,2.2651,2.4415,2.5221,2.5573,2.5573,2.6083,2.6549,2.6615,2.622,2.5891,2.5905,2.5905,2.5854,2.5854,2.6385,2.6779,2.6779,2.6779,2.6779,2.6779,2.6779,2.6779,2.6779,2.6779,2.6779,2.6779,2.6779,2.6779,2.6779,2.6779,2.7273,2.8332,2.8565,2.9189,3.0248,3.0271,3.0251,3.0251,2.9993,2.967,2.9219,2.8967,2.8648,2.8117,2.7484,2.7417,2.7802,2.7604,2.7604,2.7868,2.826,2.8325,2.8247,2.8247,2.8184,2.7958,2.7285,2.7464,2.8083,2.8236,2.8346,2.8312,2.7925,2.7679,2.7448,2.6832,2.6321,2.5966,2.616,2.5702,2.5287,2.5618,2.5258,2.4778,2.4734,2.439,2.4112,2.4112,2.4112,2.4112,2.4112,2.4447,2.4677,2.4677,2.4332,2.4112,2.4112,2.4067,2.4008,2.4008,2.3995,2.3936,2.3936,2.3936,2.3936,2.4008,2.4008,2.4067,2.4112,2.4112,2.4112,2.4112,2.4112,2.4112,2.4112,2.4112,2.4112,2.4112,2.4112,2.4112,2.2186,2.3275,2.4235,2.5939,2.6374,2.6402,2.6402,2.6615,2.6779,2.6779,2.5899,2.5077,2.5077,2.484,2.4633,2.4633,2.5292,2.5949,2.6283,2.6312,2.6399,2.6765,2.6779,2.6779,2.6779,2.6779,2.6779,2.6779,2.6779,2.6779,2.6779,2.6997,2.7607,2.8652,2.8898,2.9523,3.0568,3.0568,3.0568,3.0568,3.0568,3.0387,2.9931,2.9685,2.9359,2.8826,2.8182,2.8117,2.8492,2.8312,2.8376,2.8634,2.9107,2.9219,2.9079,2.9079,2.9456,2.969,2.8762,2.8953,2.958,2.9718,2.978,2.9756,2.9405,2.9171,2.8937,2.8257,2.7579,2.7031,2.7157,2.6536,2.592,2.6297,2.5865,2.5384,2.5314,2.4991,2.4664,2.4447,2.439,2.4332,2.4112,2.462,2.5061,2.5272,2.4935,2.4549,2.4171,2.4112,2.4112,2.4112,2.4112,2.4112,2.4112,2.4112,2.4112,2.4112,2.4112,2.4112,2.4112,2.4112,2.4112,2.4112,2.4112,2.4112,2.4112,2.4112,2.4112,2.4112,2.4112,2.4112,2.3096,2.4821,2.6397,2.7273,2.7507,2.7515,2.7515,2.7122,2.6721,2.6692,2.543,2.4375,2.4347,2.368,2.3152,2.3152,2.3717,2.4481,2.532,2.5435,2.5796,2.6707,2.6779,2.6779,2.6779,2.6779,2.6779,2.6779,2.6779,2.6779,2.6779,2.7389,2.8028,2.8652,2.9305,2.9929,3.0568,3.0568,3.0568,3.0568,3.0568,3.0568,3.0568,2.9931,2.9623,2.9623,2.8889,2.8556,2.862,2.8776,2.8853,2.8917,2.9296,2.9421,2.9421,2.9421,2.9917,3.0464,2.967,2.9917,3.0524,3.0524,3.0896,3.1278,3.1278,3.1249,3.0955,3.0206,2.9488,2.8829,2.813,2.7501,2.698,2.663,2.651,2.6404,2.596,2.5837,2.5632,2.516,2.5061,2.4892,2.4345,2.4664,2.5216,2.5728,2.5837,2.5412,2.4332,2.4171,2.4171,2.4171,2.4171,2.4171,2.4171,2.4112,2.4112,2.4112,2.4112,2.4112,2.4112,2.4112,2.4171,2.4171,2.4171,2.4171,2.4171,2.4171,2.4171,2.4171,2.4171,2.4171,2.4941,2.6214,2.7319,2.8419,2.8084,2.7515,2.7515,2.6754,2.5857,2.5214,2.3877,2.2677,2.2011,2.2226,2.2546,2.2546,2.4126,2.5438,2.5662,2.611,2.6538,2.6765,2.6779,2.6779,2.6779,2.6779,2.6779,2.6779,2.6779,2.6779,2.6779,2.7389,2.8028,2.8652,2.9305,2.9929,3.0568,3.0568,3.0568,3.0568,3.0568,3.0568,3.0568,3.0447,3.0326,3.0312,2.9608,2.9608,3.0054,2.9685,2.9808,3.0312,3.0673,3.0792,3.0792,3.0911,3.1043,3.1219,3.1043,3.1102,3.1219,3.1219,3.1351,3.1467,3.1467,3.1351,3.1204,3.1026,3.0393,2.9672,2.8969,2.8321,2.7786,2.7299,2.6841,2.651,2.6457,2.6122,2.5742,2.5632,2.5577,2.5687,2.5974,2.5797,2.5797,2.6404,2.6068,2.5687,2.5412,2.5356,2.5203,2.4835,2.4778,2.4778,2.4778,2.4332,2.4287,2.4721,2.4332,2.4112,2.4112,2.4505,2.4778,2.4778,2.5147,2.5356,2.5356,2.4991,2.4991,2.5356,2.4935,2.4778,2.6229,2.7564,2.8661,2.9284,2.8826,2.799,2.7106,2.6217,2.5179,2.3798,2.2301,2.1119,2.0564,2.0889,2.1276,2.1276,2.3135,2.474,2.5192,2.5784,2.6341,2.675,2.6779,2.6779,2.6779,2.6779,2.6779,2.6779,2.6779,2.6779,2.6779,2.765,2.8303,2.8666,2.9566,3.0219,3.0568,3.0568,3.0568,3.0568,3.0568,3.0568,3.0568,3.0568,3.0568,3.0568,3.019,3.0312,3.0702,3.0447,3.0628,3.1058,3.1292,3.1409,3.1409,3.1467,3.1482,3.1482,3.1482,3.1482,3.1482,3.1482,3.1482,3.1482,3.1482,3.1467,3.1409,3.1351,3.0745,3.0095,2.974,2.8956,2.8225,2.7973,2.7425,2.6982,2.71,2.6826,2.6496,2.6229,2.596,2.6014,2.6616,2.6404,2.639,2.6982,2.6826,2.6602,2.6602,2.6108,2.5687,2.537,2.537,2.537,2.537,2.5048,2.4991,2.5314,2.5034,2.4878,2.4878,2.5147,2.537,2.537,2.5632,2.5783,2.5783,2.5481,2.5536,2.5783,2.5481,2.537,2.7088,2.8647,2.9814,2.9858,2.9406,2.8448,2.6549,2.5529,2.4449,2.2352,2.0778,1.9729,1.956,1.9658,1.9828,1.994,2.1681,2.3384,2.4418,2.5085,2.5819,2.6707,2.6779,2.6779,2.6779,2.6779,2.6779,2.6779,2.6852,2.691,2.691,2.8028,2.8753,2.8927,3.0001,3.0568,3.0568,3.0642,3.0642,3.0642,3.0642,3.0642,3.0642,3.0628,3.0568,3.0568,3.0568,3.0702,3.0821,3.1014,3.1132,3.1278,3.1409,3.1467,3.1482,3.1482,3.1482,3.1482,3.1482,3.1482,3.1482,3.1482,3.1482,3.1482,3.1482,3.1482,3.1467,3.1351,3.0934,3.0416,3.0327,2.9535,2.8696,2.8584,2.8143,2.773,2.764,2.7625,2.7458,2.693,2.639,2.6229,2.6721,2.6721,2.6878,2.7524,2.7524,2.7524,2.7575,2.6707,2.6,2.596,2.5906,2.5906,2.5906,2.5837,2.5837,2.5906,2.5837,2.5783,2.5783,2.5892,2.5906,2.5906,2.6,2.6054,2.6054,2.596,2.5946,2.6054,2.596,2.5906,2.7655,2.8701,2.938,2.977,2.9022,2.7805,2.6441,2.4822,2.3024,2.092,1.9749,1.8933,1.8193,1.8671,1.9362,2.006,2.1589,2.3173,2.4529,2.5336,2.5988,2.6707,2.6779,2.6779,2.6779,2.6779,2.6779,2.6779,2.7273,2.7563,2.7563,2.8274,2.916,3.0219,3.0451,3.0568,3.0568,3.0702,3.0762,3.0762,3.0762,3.0762,3.0762,3.0642,3.0568,3.0568,3.0568,3.0702,3.0821,3.0821,3.1058,3.1278,3.1351,3.1409,3.1482,3.1482,3.1482,3.1482,3.1482,3.1482,3.1482,3.1482,3.1482,3.1482,3.1482,3.1482,3.1482,3.1467,3.1392,3.1168,3.06,3.0287,2.9854,2.8846,2.8502,2.8263,2.7694,2.7625,2.7575,2.7458,2.7357,2.7306,2.7408,2.7049,2.6878,2.7524,2.7203,2.7049,2.7524,2.7408,2.7086,2.6616,2.6563,2.6563,2.6563,2.6068,2.6014,2.651,2.6068,2.5783,2.5783,2.6283,2.6563,2.6563,2.7034,2.7306,2.7306,2.6774,2.6826,2.7306,2.6774,2.6563,2.8264,2.912,2.948,2.9345,2.886,2.7747,2.5215,2.3945,2.2494,1.9698,1.8838,1.8371,1.7719,1.8357,1.9141,1.9572,2.1278,2.2861,2.3667,2.4916,2.5908,2.6228,2.6576,2.6779,2.6779,2.6779,2.6779,2.6779,2.7374,2.7668,2.7668,2.8652,2.961,3.0539,3.0702,3.0702,3.0702,3.0895,3.0955,3.0955,3.0955,3.0955,3.0955,3.0895,3.0895,3.0895,3.0895,3.094,3.1058,3.1058,3.1176,3.1409,3.1409,3.1409,3.1482,3.1482,3.1482,3.1482,3.1482,3.1482,3.1482,3.1482,3.1482,3.1482,3.1482,3.1482,3.1482,3.1482,3.1482,3.1465,3.112,3.0776,3.0357,2.9729,2.9086,2.8412,2.7724,2.7625,2.7625,2.7625,2.7625,2.7625,2.7625,2.7357,2.7255,2.7575,2.7357,2.7255,2.756,2.7625,2.7509,2.7203,2.7152,2.7152,2.7152,2.6916,2.6864,2.7152,2.693,2.6759,2.6759,2.7034,2.7152,2.7152,2.7458,2.7625,2.7625,2.7306,2.7306,2.7575,2.7306,2.7152,2.8207,2.8917,2.9173,2.8692,2.845,2.7435,2.4091,2.3172,2.2161,1.9024,1.8333,1.8214,1.7787,1.8358,1.8976,1.9196,2.0755,2.2143,2.2785,2.4293,2.5473,2.5749,2.6373,2.6779,2.6779,2.6779,2.6779,2.6779,2.7505,2.7998,2.8074,2.9203,3.006,3.0628,3.0762,3.0821,3.0895,3.1073,3.1132,3.1132,3.1132,3.1132,3.1132,3.1132,3.1087,3.1087,3.1087,3.119,3.1278,3.1278,3.1409,3.1482,3.1482,3.1482,3.1482,3.1482,3.1482,3.1482,3.1482,3.1482,3.1482,3.1482,3.1482,3.1482,3.1482,3.1482,3.1482,3.1482,3.1482,3.1482,3.1482,3.1135,3.0687,3.0537,2.9639,2.8622,2.7934,2.7784,2.779,2.7655,2.7625,2.7625,2.7625,2.7625,2.7625,2.7625,2.7625,2.7625,2.7625,2.7625,2.7625,2.7625,2.7625,2.7625,2.7625,2.7625,2.7625,2.7625,2.7625,2.7625,2.7625,2.7675,2.7675,2.7675,2.7675,2.7675,2.7675,2.7675,2.7675,2.7625,2.7625,2.7625,2.6585,2.7119,2.7291,2.7695,2.7332,2.6262,2.3833,2.2825,2.1736,1.9319,1.8817,1.8755,1.8461,1.8478,1.8782,1.9546,1.9721,2.057,2.2834,2.3572,2.439,2.5647,2.6373,2.6779,2.6779,2.6779,2.6779,2.6779,2.7911,2.884,2.9421,3.0103,3.0569,3.0762,3.0762,3.0895,3.1087,3.1234,3.1292,3.1292,3.1292,3.1292,3.1292,3.1132,3.1087,3.1087,3.1087,3.119,3.1278,3.1278,3.1409,3.1482,3.1482,3.1482,3.1482,3.1482,3.1482,3.1482,3.1482,3.1482,3.1482,3.1482,3.1482,3.1482,3.1482,3.1482,3.1482,3.1482,3.1482,3.1482,3.1482,3.1422,3.1285,3.0657,2.9983,2.931,2.8652,2.8502,2.8323,2.7694,2.7625,2.7625,2.7625,2.7625,2.7625,2.7625,2.7625,2.7625,2.7625,2.7625,2.7625,2.7625,2.7625,2.7625,2.7625,2.7625,2.7625,2.7625,2.7725,2.779,2.779,2.7905,2.7955,2.7955,2.7955,2.7955,2.7955,2.7955,2.7905,2.779,2.779,2.774,2.6876,2.7384,2.7345,2.7163,2.6477,2.5365,2.3441,2.2409,2.1341,1.962,1.9244,1.9184,1.8898,1.8707,1.874,1.9291,1.9588,2.016,2.1388,2.2759,2.3921,2.4736,2.5775,2.655,2.6803,2.6779,2.6939,2.7316,2.8173,2.8956,2.9595,3.0234,3.0642,3.0821,3.0895,3.1073,3.1234,3.1351,3.1409,3.1409,3.1409,3.1409,3.1409,3.1366,3.1366,3.1366,3.1366,3.1351,3.1409,3.1409,3.1467,3.1482,3.1482,3.1482,3.1482,3.1482,3.1482,3.1482,3.1482,3.1482,3.1482,3.1482,3.1482,3.1482,3.1482,3.1482,3.1482,3.1482,3.1482,3.1482,3.1482,3.1482,3.1302,3.0672,3.0313,3.0008,2.9417,2.9019,2.8658,2.849,2.8127,2.784,2.784,2.784,2.784,2.784,2.784,2.784,2.784,2.784,2.784,2.784,2.779,2.7675,2.7625,2.774,2.779,2.774,2.784,2.7905,2.7905,2.7955,2.802,2.802,2.802,2.802,2.802,2.802,2.7955,2.7905,2.7905,2.7905,2.6269,2.6888,2.6976,2.649,2.5696,2.4639,2.3133,2.2128,2.1173,1.9918,1.9711,1.9639,1.9347,1.9109,1.9058,1.9317,1.9578,1.9943,2.0542,2.1958,2.3256,2.397,2.5003,2.5973,2.6608,2.6857,2.729,2.7881,2.8498,2.9226,3.0125,3.0598,3.0837,3.0821,3.1014,3.119,3.1278,3.1409,3.1482,3.1482,3.1482,3.1482,3.1482,3.1482,3.1482,3.1482,3.1482,3.1482,3.1482,3.1482,3.1482,3.1482,3.1482,3.1482,3.1482,3.1482,3.1482,3.1482,3.1482,3.1482,3.1482,3.1482,3.1482,3.1482,3.1482,3.1482,3.1482,3.1482,3.1482,3.1482,3.1482,3.1482,3.1347,3.0926,3.0863,3.0754,3.0202,2.9758,2.9357,2.9082,2.8627,2.8247,2.805,2.802,2.802,2.802,2.802,2.802,2.802,2.802,2.802,2.802,2.7955,2.789,2.774,2.7905,2.7955,2.7855,2.8005,2.8054,2.8054,2.8103,2.8118,2.8118,2.8118,2.8118,2.8118,2.8118,2.8103,2.8054,2.8054,2.8054,2.4079,2.497,2.5632,2.5632,2.497,2.4063,2.3022,2.22,2.1299,2.0308,2.0185,2.0185,1.9859,1.9788,1.9788,1.9788,1.9581,1.9745,2.0744,2.1246,2.2051,2.3546,2.4179,2.5012,2.6209,2.7041,2.7748,2.8435,2.8997,2.9935,3.138,3.1458,3.1293,3.0807,3.1014,3.119,3.1278,3.1409,3.1482,3.1482,3.1482,3.1482,3.1482,3.1482,3.1482,3.1482,3.1482,3.1482,3.1482,3.1482,3.1482,3.1482,3.1482,3.1482,3.1482,3.1482,3.1482,3.1482,3.1482,3.1482,3.1482,3.1482,3.1482,3.1482,3.1482,3.1482,3.1482,3.1482,3.1482,3.1482,3.1482,3.1482,3.1482,3.1467,3.1655,3.1588,3.0951,3.091,3.0585,2.9264,2.9006,2.8794,2.8126,2.802,2.802,2.802,2.802,2.802,2.802,2.802,2.802,2.802,2.8103,2.8137,2.802,2.802,2.802,2.802,2.8137,2.8186,2.8186,2.8348,2.8411,2.8411,2.8411,2.8411,2.8411,2.8411,2.8348,2.8186,2.8186,2.8152,2.3079,2.3522,2.3734,2.3734,2.3115,2.2366,2.2039,2.1319,2.062,2.03,2.027,2.027,2.015,1.9945,1.9874,2.01,1.9889,2.0029,2.1111,2.1877,2.3002,2.4752,2.6305,2.744,2.7887,2.8165,2.8381,2.8611,2.9157,2.9704,3.0188,3.0654,3.1325,3.225,3.2351,3.2461,3.261,3.2272,3.2135,3.212,3.1697,3.1697,3.2135,3.2135,3.2135,3.2135,3.2135,3.1981,3.1727,3.1727,3.1727,3.1727,3.1727,3.1868,3.2079,3.164,3.1739,3.2079,3.164,3.1482,3.1539,3.167,3.1727,3.1727,3.1826,3.1697,3.1482,3.1482,3.1482,3.1482,3.1482,3.1482,3.1539,3.167,3.1727,3.1781,3.1764,3.1409,3.1021,3.0685,2.9873,2.92,2.897,2.8572,2.825,2.825,2.825,2.825,2.825,2.825,2.825,2.825,2.8299,2.825,2.802,2.8168,2.825,2.8137,2.825,2.8348,2.8348,2.8396,2.8411,2.8411,2.8411,2.8411,2.8411,2.8411,2.8396,2.8348,2.8348,2.8544,2.2173,2.2643,2.2905,2.2972,2.2307,2.1663,2.1698,2.1027,2.0373,2.0373,2.0373,2.0373,2.0373,2.0204,2.012,2.0323,2.0204,2.0384,2.1361,2.2075,2.3217,2.5199,2.7196,2.8388,2.8419,2.8762,2.895,2.895,2.95,2.9958,3.0322,3.0688,3.1549,3.2832,3.2408,3.2327,3.2699,3.2413,3.2446,3.2695,3.2312,3.2312,3.2695,3.2695,3.2695,3.2695,3.2749,3.2602,0.0,3.2437,3.2453,3.2398,3.2437,3.2641,3.2788,3.2407,3.2516,3.2788,3.2407,3.2296,3.2312,3.2437,3.2492,3.2492,3.2602,3.2176,3.1712,3.1712,3.1712,3.1712,3.1712,3.1712,3.1712,3.1841,3.1883,3.1996,3.2135,3.191,3.1597,3.1428,3.072,2.9997,2.9504,2.9058,2.8704,2.8442,2.8411,2.8411,2.8411,2.8411,2.8411,2.8411,2.8411,2.8348,2.8168,2.8299,2.8348,2.8299,2.8348,2.8411,2.8411,2.8411,2.8411,2.8411,2.8411,2.8411,2.8411,2.8658,2.8781,2.8796,2.9058,2.9396,0.0,2.211,2.2778,2.2897,2.2248,2.1638,2.1774,2.1133,0.0,2.0494,2.0494,2.0494,2.0494,2.0494,2.0494,2.0494,2.0494,2.0811,2.1686,2.2109,2.3108,2.5281,2.7198,2.8299,2.8196,2.8978,2.9496,2.9496,2.9941,3.057,3.1391,3.144,3.1764,3.2514,3.139,3.1168,3.1958,3.2041,3.2424,3.3092,3.304,3.304,3.3092,3.3092,3.3092,3.3144,3.3296,3.3312,3.3171,3.3463,3.3531,3.3443,3.3598,3.3633,3.3633,3.3582,3.3633,3.3633,3.3582,3.3582,3.3582,3.3582,3.3633,3.3633,3.3633,3.2949,3.2094,3.2038,3.2094,3.2094,3.2038,3.2038,3.2038,3.2038,3.215,3.2247,3.2247,3.2398,3.2307,3.1727,3.1573,3.1139,2.9852,2.9604,2.9342,2.8662,2.857,2.8506,2.846,2.8444,2.8444,2.8396,2.8444,2.8444,2.8411,2.8411,2.8411,2.8411,2.8411,2.8411,2.8411,2.8411,2.8411,2.8411,2.8411,2.8427,2.8473,2.9119,2.9443,2.9504,3.0135,3.0458,2.0715,0.0,2.1064,2.1114,2.0955,2.0795,0.0,2.067,2.0494,2.0494,2.0494,2.0494,2.0494,2.0494,2.0494,2.0494,2.0494,2.1017,2.2556,2.4933,2.6792,2.7602,2.8985,2.9868,2.9894,3.0084,3.0241,3.0241,3.0342,3.0509,3.0733,3.0749,3.0815,3.1023,3.075,3.1209,3.2485,3.2126,3.2015,3.2176,3.1718,3.1768,3.2192,3.2192,3.2208,3.2305,3.3,3.3079,3.2846,3.346,3.3735,3.3684,3.3735,3.3953,3.4169,3.3751,3.3853,3.4169,3.3735,3.3582,3.3633,3.3735,3.3802,3.3919,3.3919,3.3614,3.3145,3.2749,3.2895,3.3145,3.2749,3.2586,3.2641,3.2749,3.2788,3.2841,3.2949,3.3303,3.3566,3.3406,3.2992,3.2528,3.2207,3.1742,3.1149,3.0427,3.0021,2.9564,2.9029,2.8967,2.8779,2.8444,2.87,2.8779,2.8444,2.8411,2.8411,2.8411,2.8411,2.8411,2.8411,2.8411,2.8411,2.8411,2.8411,2.8658,2.9181,2.9335,2.9673,3.0197,3.0351,3.0689,2.0628,2.0561,2.0527,2.0577,2.061,2.061,2.0628,0.0,2.0628,2.0628,0.0,2.0628,2.0628,2.0628,2.0628,2.0628,2.0996,2.1877,2.349,2.5513,2.715,2.8151,2.9173,2.998,3.0435,3.0526,3.0526,3.0526,3.0526,3.0526,3.0526,3.0568,3.0609,3.0609,3.0651,3.1183,3.2199,3.1933,3.1945,3.2256,3.1962,3.1962,3.2272,3.2335,3.2364,3.2455,3.2958,3.306,3.2875,3.3409,3.3801,3.405,3.4098,3.4454,3.4927,3.4609,3.4704,3.4927,3.4609,3.4512,3.4544,3.4592,3.4657,3.4721,3.4721,3.4609,3.435,3.3563,3.3563,3.3716,3.3407,3.3355,3.3355,3.3459,3.3459,3.3459,3.3563,3.3818,3.3986,3.3986,3.3728,3.3356,3.308,3.2707,3.2252,3.1567,3.0965,3.0473,3.0116,2.9778,2.9451,2.9212,2.9406,2.9451,2.9196,2.915,2.8951,2.8444,2.8411,2.8411,2.8411,2.8411,2.8411,2.8411,2.8704,2.9058,2.9412,3.0027,3.0505,3.0874,3.1182,3.1505,2.0827,2.084,2.0821,2.0742,2.0726,2.0711,2.0794,0.0,0.0,0.0,0.0,0.0,2.0794,2.0827,2.0827,2.0827,2.1743,2.2989,2.4522,2.5447,2.6564,2.8155,2.8911,2.965,3.0418,3.0526,3.0526,3.0526,3.0526,3.051,3.051,3.0651,3.0733,3.0733,3.0831,3.1091,3.1497,3.1497,3.1812,3.2453,3.2453,3.2453,3.2453,3.2513,3.2573,3.2634,3.2916,3.2992,3.2923,3.3271,3.3719,3.4172,3.4276,3.4776,3.5453,3.5453,3.552,3.5622,3.5622,3.5622,3.5622,3.5622,3.5622,3.5622,3.5622,3.5622,3.5424,3.4529,3.4284,3.4235,3.4185,3.4136,3.4185,3.4169,3.4169,3.4169,3.4169,3.4268,3.4333,3.4333,3.4333,3.4121,3.3581,3.3466,3.3268,3.2702,3.1954,3.1445,3.1331,3.0744,3.0274,3.0133,3.0159,3.0175,3.0117,3.0117,2.9701,2.8748,2.8653,2.8653,2.8653,2.8653,2.8621,2.8525,2.919,2.9543,2.9566,3.0797,3.1428,3.1551,3.2136,3.2398,2.0925,2.1617,2.2118,2.1036,2.0794,2.0794,2.0794,2.0794,0.0,0.0,0.0,2.0794,2.0794,2.0844,2.0861,2.0861,2.2377,2.4097,2.5628,2.7143,2.8362,2.9247,2.9897,3.0352,3.0468,3.0526,3.0526,3.0526,3.0609,3.0651,3.0651,3.079,3.0871,3.0871,3.0871,3.0922,3.0998,3.0998,3.1048,3.1165,3.1165,3.1165,3.1165,3.1206,3.1247,3.1321,3.1967,3.2319,3.2452,3.3136,3.3474,3.3533,3.3575,3.4015,3.4675,3.4675,3.5064,3.5622,3.5622,3.5622,3.5622,3.5622,3.5622,3.5622,3.5622,3.5622,3.5577,3.5532,3.5424,3.527,3.4927,3.4833,3.4864,3.4988,3.5035,3.5035,3.5035,3.5374,3.5677,3.5677,3.5677,3.5644,3.5586,3.5552,3.5314,3.4584,3.4028,3.3238,3.1942,3.1675,3.1233,3.0182,3.0444,3.0526,3.0117,3.0117,3.0048,2.9832,2.9832,2.9832,2.9832,2.9832,2.9613,2.9104,2.9722,3.0143,3.0274,3.1012,3.1674,3.2244,3.2336,3.2398,2.1006,2.1472,2.2,2.1954,2.2374,2.2826,2.2886,2.2917,2.2756,0.0,2.2079,2.1856,2.1231,2.1536,2.2151,2.3013,2.3522,2.4477,2.6482,2.6961,2.7711,2.933,2.9772,3.0177,3.0658,3.0692,3.0692,3.0692,3.0773,3.0831,3.0831,3.0895,3.0935,3.0935,3.1032,3.1072,3.1072,3.1072,3.0992,3.0912,3.0912,3.0912,3.0912,3.0952,3.0975,3.1032,3.1466,3.1641,3.1715,3.207,3.2442,3.2797,3.2797,3.3296,3.405,3.4542,3.4942,3.5273,3.5664,3.58,3.58,3.58,3.58,3.58,3.58,3.58,3.5844,3.5888,3.58,3.5667,3.556,3.5543,3.5543,3.5633,3.5616,3.5616,3.5616,3.5827,3.6019,3.6019,3.6019,3.6019,3.6019,3.6019,3.5916,3.5617,3.4721,3.3794,3.3196,3.2338,3.1613,3.1061,3.1201,3.124,3.1027,3.1027,3.0771,3.0117,3.0117,3.0117,3.0117,3.0117,2.9946,2.9701,3.0335,3.0906,3.1357,3.2042,3.2743,3.3495,3.3251,3.3161,2.1278,2.1609,2.2159,2.2929,2.3485,2.4024,2.4579,2.4528,2.4218,2.365,2.3524,2.3126,2.2068,2.2353,2.3323,2.498,2.4713,2.5112,2.7453,2.7145,2.7404,2.9376,2.9553,2.9742,3.0319,3.0352,3.0419,3.0587,3.0644,3.0727,3.0895,3.0975,3.1072,3.1072,3.1151,3.119,3.119,3.119,3.1112,3.0952,3.0952,3.0952,3.0952,3.1015,3.1055,3.1095,3.1173,3.123,3.1269,3.1269,3.1608,3.21,3.21,3.2615,3.3461,3.4294,3.4609,3.4677,3.5258,3.5566,3.5762,3.5762,3.5882,3.6019,3.6019,3.6019,3.6019,3.6019,3.5993,3.5905,3.6019,3.6036,3.6062,3.6062,3.6062,3.6062,3.6062,3.6062,3.6062,3.6062,3.6062,3.6062,3.6062,3.6062,3.6054,3.5985,3.4954,3.4117,3.3852,3.2783,3.199,3.1817,3.18,3.18,3.18,3.18,3.1411,3.0551,3.051,3.051,3.051,3.051,3.0427,3.0285,3.0952,3.1506,3.1941,3.2779,3.3515,3.412,3.3972,3.3919,2.1811,2.2659,2.3667,2.3794,2.2903,2.2471,2.4298,2.396,2.3553,2.4413,2.4579,2.4298,2.335,2.3066,2.3558,2.5365,2.5698,2.6546,2.8836,2.9109,2.9257,2.9787,2.9772,2.9443,2.8841,2.8774,2.9042,2.9711,2.9895,3.0275,3.0942,3.1112,3.119,3.119,3.119,3.119,3.119,3.119,3.119,3.119,3.119,3.119,3.119,3.119,3.1213,3.1295,3.1295,3.1351,3.1479,3.1479,3.1513,3.1564,3.1564,3.2008,3.2741,3.3516,3.3789,3.3806,3.3857,3.4353,3.4951,3.4951,3.5429,3.6019,3.6019,3.6019,3.6019,3.6165,3.6182,3.6182,3.6182,3.6182,3.6208,3.6259,3.6301,3.6301,3.6301,3.6301,3.6301,3.6301,3.6301,3.6301,3.6301,3.6301,3.6059,3.537,3.518,3.4594,3.3179,3.2886,3.2559,3.1869,3.18,3.18,3.18,3.18,3.1763,3.1671,3.1671,3.1671,3.1671,3.1671,3.1393,3.0858,3.1573,3.1682,3.1176,3.255,3.3237,3.3303,3.4006,3.4333,2.2124,2.3014,2.3936,2.3999,2.3728,0.0,0.0,2.6012,2.5862,2.6224,2.6277,2.5915,2.4798,2.4873,2.5362,2.6085,2.7108,2.8299,2.9677,2.9837,3.0192,3.1306,3.094,3.0662,3.087,3.0887,3.1008,3.1284,3.0941,3.0956,3.1528,3.1373,3.1393,3.1677,3.1896,3.2021,3.2021,3.2021,3.2021,3.1986,3.1466,3.119,3.119,3.1252,3.1274,3.1295,3.1406,3.1462,3.1517,3.1517,3.1517,3.1517,3.1538,3.173,3.2072,3.2887,3.3279,3.3464,3.393,3.4372,3.471,3.471,3.4901,3.5213,3.574,3.5896,3.5983,3.6528,3.6708,3.6609,3.636,3.6377,3.652,3.6544,3.665,3.6731,3.6731,3.6731,3.6731,3.6731,3.6731,3.6731,3.6731,3.6731,3.6469,3.5702,3.5178,3.4498,3.3434,3.2823,3.244,3.2144,3.2126,3.2126,3.2126,3.2126,3.2126,3.2126,3.1929,3.18,3.18,3.18,3.1709,3.147,3.1739,3.1981,3.2205,3.2763,3.3271,3.3744,3.3816,3.3845,2.2537,2.3137,2.3866,2.4222,0.0,0.0,2.6982,2.7115,2.7024,2.7652,2.7495,2.7058,2.6419,2.6462,2.67,2.702,2.8255,2.9449,3.0261,3.0551,3.1009,3.1974,3.154,3.1313,3.1661,3.1679,3.1784,3.198,3.1538,3.1507,3.2074,3.1823,3.1837,3.2144,3.2417,3.2533,3.2533,3.2533,3.2533,3.2533,3.1932,3.16,3.162,3.164,3.1714,3.175,3.1821,3.1894,3.1949,3.193,3.1894,3.193,3.1967,3.2003,3.2037,3.2703,3.3002,3.3178,3.3705,3.4164,3.4465,3.4465,3.4624,3.4924,3.5472,3.5631,3.5736,3.6321,3.6463,3.6388,3.6064,3.6387,3.6806,3.6806,3.6908,3.6987,3.6987,3.6987,3.6987,3.6987,3.6777,3.6619,3.6619,3.6408,3.5987,3.5214,3.4653,3.4038,3.3213,3.2617,3.2283,3.2283,3.2283,3.2283,3.2283,3.2283,3.2283,3.2283,3.2091,3.1929,3.191,3.1929,3.1929,3.191,3.1929,3.2208,3.2711,3.2971,3.337,3.3925,3.3882,3.3848,2.307,2.3168,2.3555,2.4538,2.4805,2.5311,2.7255,2.6783,2.6476,2.8409,2.8058,2.7592,2.818,2.7601,2.7298,2.8172,2.899,2.9773,3.0618,3.1379,3.1775,3.1444,3.1412,3.1111,3.0396,3.0325,3.0645,3.1359,3.1412,3.1717,3.2482,3.25,3.25,3.2517,3.2565,3.2613,3.2613,3.2613,3.2613,3.2613,3.255,3.2517,3.2484,3.2484,3.2568,3.2702,3.2702,3.2781,3.2903,3.2827,3.2795,3.2795,3.2872,3.284,3.2827,3.2947,3.2947,3.2916,3.2978,3.353,3.4181,3.4181,3.4702,3.5298,3.5298,3.5298,3.5298,3.5316,3.5316,3.5316,3.5316,3.6149,3.6992,3.7009,3.6992,3.6992,3.6992,3.6992,3.6992,3.6992,3.6338,3.5811,3.5811,3.5124,3.4353,3.3634,3.3529,3.3231,3.2423,3.2318,3.2318,3.2318,3.2318,3.2318,3.2318,3.2318,3.2318,3.2318,3.2318,3.2249,3.2108,3.2232,3.2232,3.2108,3.2232,3.2283,3.2283,3.309,3.3476,3.3493,3.4247,3.4598,2.3289,2.4307,2.5252,2.4964,2.5864,2.6991,2.7555,2.7415,2.7515,2.8755,2.8773,2.8453,2.7989,2.8118,2.8246,2.7976,2.9089,3.0301,3.1224,3.151,3.2007,3.304,3.262,3.2374,3.2748,3.2766,3.2847,3.2998,3.2518,3.2469,3.2965,3.2759,3.2791,3.31,3.3411,3.3579,3.3579,3.3579,3.3579,3.3579,3.3552,3.3189,3.2484,3.2601,3.2684,3.2763,3.2827,3.2903,3.2978,3.2947,3.2947,3.2947,3.2978,3.2947,3.2947,3.3009,3.3087,3.3184,3.3196,3.3465,3.3789,3.3789,3.3935,3.4195,3.4721,3.4885,3.5012,3.5574,3.5737,3.5737,3.5737,3.5973,3.6204,3.607,3.6137,3.6237,3.6237,3.6237,3.6237,3.6237,3.5942,3.5663,3.5663,3.5466,3.5037,3.425,3.4124,3.3773,3.2826,3.2705,3.2705,3.2705,3.2705,3.2705,3.2705,3.2705,3.2705,3.2705,3.2705,3.2573,3.2249,3.2283,3.2283,3.2232,3.2283,3.2283,3.2283,3.2529,3.2652,3.2652,3.2862,3.2967,2.392,2.4874,2.5774,2.6027,2.6948,2.7886,2.8283,2.8334,2.846,2.9001,2.9134,2.8964,2.8401,2.8691,2.8879,2.8426,2.9439,3.0581,3.1463,3.185,3.249,3.3799,3.3497,3.3361,3.3831,3.3868,3.3868,3.3815,3.3401,3.3248,3.3486,3.333,3.3345,3.3625,3.3902,3.4049,3.4049,3.4049,3.4049,3.4049,3.4023,3.368,3.31,3.3196,3.3225,3.3284,3.3354,3.3364,3.3411,3.3421,3.3421,3.3411,3.3421,3.3421,3.3393,3.3449,3.3542,3.3616,3.3643,3.3743,3.3842,3.3842,3.3842,3.3934,3.4366,3.454,3.4632,3.5129,3.5285,3.5285,3.5285,3.5285,3.5367,3.5654,3.5817,3.5909,3.5909,3.5909,3.5909,3.5909,3.5532,3.524,3.524,3.5005,3.4643,3.4154,3.4093,3.3912,3.3322,3.3268,3.3268,3.3268,3.3268,3.3268,3.3268,3.3268,3.3268,3.3238,3.3208,3.3037,3.2669,3.2588,3.2488,3.242,3.2488,3.2521,3.2521,3.2521,3.2521,3.2521,3.2521,3.2521,2.4802,2.5135,2.5695,2.7463,2.7972,2.8315,2.9221,2.9328,2.9243,2.92,2.92,2.92,2.92,2.92,2.92,2.9218,2.9847,3.0582,3.1399,3.2212,3.3025,3.382,3.3968,3.4023,3.4023,3.4023,3.4023,3.3998,3.3998,3.3998,3.3998,3.3998,3.4023,3.4023,3.4074,3.4124,3.4124,3.4124,3.4124,3.4124,3.4074,3.4023,3.4023,3.3998,3.3998,3.4023,3.4099,3.4099,3.4049,3.4099,3.4099,3.4049,3.4099,3.4099,3.4049,3.4173,3.4173,3.4148,3.4197,3.4221,3.4221,3.4221,3.4221,3.4221,3.4221,3.4269,3.4316,3.4316,3.434,3.4386,3.4386,3.4386,3.4641,3.5549,3.578,3.578,3.578,3.578,3.578,3.578,3.5148,3.4655,3.4655,3.4071,3.3661,3.3661,3.3698,3.3753,3.3788,3.3807,3.3807,3.3807,3.3807,3.3807,3.3807,3.3807,3.378,3.3726,3.3698,3.3569,3.328,3.3055,3.2834,3.2639,3.282,3.2916,3.2916,3.2916,3.2916,3.2916,3.2916,3.2916,2.5171,2.6222,2.7368,2.7782,2.8569,2.9289,2.957,2.9608,2.9532,2.9326,2.928,2.928,2.928,2.924,2.9222,2.9326,2.9471,2.9839,3.068,3.1518,3.2317,3.3133,3.3759,3.4148,3.4148,3.4148,3.4148,3.4074,3.4074,3.4049,3.3998,3.4049,3.4099,3.4148,3.4221,3.4245,3.4245,3.4316,3.4269,3.4173,3.4269,3.4293,3.4221,3.4074,3.4049,3.4173,3.4221,3.4269,3.4316,3.4316,3.4316,3.4316,3.4316,3.4316,3.4316,3.434,3.434,3.434,3.434,3.434,3.434,3.434,3.434,3.434,3.434,3.4381,3.4363,3.4363,3.4386,3.4386,3.4386,3.4386,3.4456,3.4673,3.4723,3.4723,3.4723,3.4723,3.4723,3.4723,3.4469,3.4212,3.4212,3.4109,3.3998,3.3998,3.3998,3.3972,3.3815,3.3807,3.3807,3.3807,3.3807,3.3807,3.3807,3.3807,3.3788,3.378,3.378,3.3753,3.368,3.3339,3.3037,3.2852,3.2884,3.2916,3.2916,3.2916,3.2916,3.2916,3.2916,3.2916,2.5931,2.6823,2.7736,2.8671,2.9341,2.9801,2.9853,2.9834,2.9801,2.9662,2.9512,2.9433,2.9608,2.9532,2.9494,2.9644,2.9663,2.9945,3.0772,3.1261,3.1917,3.305,3.3574,3.3941,3.4255,3.4293,3.4269,3.4245,3.4245,3.4221,3.4197,3.4221,3.4269,3.4293,3.4316,3.434,3.434,3.4386,3.4363,3.4293,3.4381,3.4431,3.448,3.4274,3.4221,3.4293,3.434,3.4381,3.4386,3.4386,3.4386,3.4386,3.4386,3.4386,3.4386,3.4386,3.4386,3.4386,3.4386,3.4386,3.4386,3.4386,3.4386,3.4409,3.4473,3.4517,3.4539,3.4586,3.4609,3.4649,3.4649,3.4649,3.4649,3.4649,3.452,3.4386,3.4386,3.4386,3.4386,3.4386,3.4316,3.4245,3.4245,3.4245,3.4245,3.4293,3.4293,3.4269,3.4197,3.4173,3.4173,3.4173,3.4173,3.4173,3.4173,3.4173,3.4173,3.4148,3.4148,3.4074,3.3947,3.3743,3.3522,3.3339,3.3339,3.3339,3.3339,3.3298,3.328,3.328,3.3238,3.3256,2.6491,2.714,2.7786,2.9574,3.0028,3.0061,3.0047,3.0066,3.008,3.0095,2.9817,2.9662,2.9946,2.9864,2.9799,2.9977,2.9992,3.0221,3.089,3.1118,3.1642,3.2883,3.3147,3.3504,3.4205,3.4277,3.4352,3.4508,3.4526,3.4505,3.4505,3.4505,3.4505,3.4502,3.4502,3.4502,3.4502,3.4524,3.4524,3.4502,3.4502,3.4591,3.4774,3.4609,3.4524,3.4502,3.4502,3.4524,3.4524,3.4524,3.4524,3.4524,3.4526,3.4548,3.4548,3.4569,3.4569,3.4569,3.4569,3.4569,3.4569,3.4569,3.4569,3.4569,3.467,3.473,3.4791,3.4832,3.4889,3.4945,3.4945,3.4945,3.4926,3.4908,3.4691,3.4476,3.4473,3.4473,3.4473,3.445,3.4431,3.445,3.4473,3.445,3.445,3.4517,3.4517,3.4539,3.4583,3.4602,3.4602,3.4602,3.4602,3.4602,3.4602,3.4602,3.458,3.4517,3.4517,3.4427,3.4197,3.4197,3.4099,3.3947,3.386,3.3807,3.3807,3.3753,3.3726,3.3726,3.3643,3.3615,2.6158,2.7305,2.8673,2.9805,3.0163,3.0252,3.0267,3.0294,3.0375,3.049,3.0209,2.9946,2.9992,2.9977,2.9977,2.9992,2.9992,3.003,3.0145,3.0757,3.1274,3.1469,3.2115,3.2873,3.372,3.3785,3.4143,3.4939,3.4947,3.4916,3.4916,3.4916,3.4918,3.4923,3.4923,3.4923,3.4923,3.4977,3.4978,3.4925,3.4924,3.4958,3.5047,3.503,3.4977,3.4923,3.4923,3.494,3.5013,3.5013,3.5013,3.5011,3.5076,3.5089,3.5105,3.5166,3.5177,3.5177,3.5177,3.5177,3.5177,3.5177,3.5177,3.5166,3.5062,3.5047,3.5047,3.5064,3.5064,3.5064,3.5064,3.5064,3.503,3.4926,3.487,3.4831,3.4749,3.4747,3.4708,3.4602,3.4561,3.4623,3.4727,3.4645,3.458,3.4602,3.4602,3.4602,3.4602,3.4602,3.4602,3.4602,3.4602,3.4602,3.4602,3.4602,3.4602,3.4602,3.4602,3.4561,3.4539,3.4539,3.4517,3.4495,3.4049,3.3807,3.3807,3.3807,3.3807,3.3807,3.378,3.378,2.6816,2.8034,2.922,3.0192,3.0479,3.0524,3.0518,3.0557,3.0585,3.0629,3.052,3.0381,3.0352,3.0241,3.0196,3.0328,3.034,3.0352,3.0337,3.0645,3.1025,3.1431,3.1783,3.2313,3.3077,3.313,3.3508,3.4419,3.4462,3.4659,3.5139,3.5158,3.5177,3.5166,3.5166,3.5166,3.5166,3.52,3.52,3.517,3.5166,3.5225,3.5322,3.5322,3.523,3.5062,3.5062,3.5062,3.5095,3.5143,3.5174,3.5155,3.5225,3.5254,3.5254,3.5282,3.5295,3.5295,3.5295,3.5295,3.5295,3.5295,3.5295,3.5295,3.5268,3.5273,3.5287,3.5366,3.538,3.538,3.538,3.538,3.5366,3.5316,3.5283,3.5254,3.5159,3.498,3.4849,3.4791,3.4771,3.4791,3.4849,3.4811,3.4771,3.4771,3.4771,3.4771,3.4771,3.4771,3.4771,3.4771,3.4771,3.4771,3.4771,3.4771,3.4771,3.4771,3.4771,3.4771,3.4771,3.4771,3.4771,3.4771,3.4431,3.4245,3.4245,3.4221,3.4197,3.4197,3.4148,3.4148,2.7113,2.8076,2.8891,3.0082,3.0374,3.0432,3.0659,3.0737,3.0717,3.0711,3.0704,3.069,3.0629,3.0511,3.0452,3.0606,3.0634,3.0623,3.0637,3.0626,3.0823,3.138,3.1458,3.1739,3.2447,3.2521,3.2899,3.3774,3.3828,3.4118,3.4766,3.4786,3.4774,3.4781,3.4781,3.4878,3.509,3.5321,3.5418,3.5418,3.5418,3.5485,3.5572,3.5572,3.5473,3.5278,3.5278,3.5278,3.5278,3.5328,3.5341,3.5355,3.5418,3.5454,3.5454,3.5446,3.5446,3.5446,3.5446,3.5446,3.5458,3.5438,3.5438,3.5469,3.5491,3.5491,3.5521,3.5621,3.565,3.565,3.565,3.565,3.565,3.562,3.5609,3.5549,3.5442,3.5185,3.5015,3.5013,3.5015,3.5015,3.5013,3.5015,3.4997,3.4997,3.4981,3.4944,3.4944,3.4926,3.4908,3.4908,3.4908,3.4908,3.4908,3.4908,3.4908,3.4908,3.4908,3.4908,3.4908,3.4908,3.4908,3.4908,3.4751,3.4687,3.4645,3.4602,3.4561,3.4517,3.4473,3.4473,2.6381,2.6699,2.7189,2.9,2.9463,2.9702,3.0599,3.0799,3.0769,3.0703,3.0697,3.0697,3.0697,3.0685,3.0683,3.0683,3.069,3.069,3.069,3.069,3.071,3.0741,3.0741,3.1086,3.1949,3.2038,3.2414,3.3359,3.3369,3.3368,3.3407,3.3407,3.3366,3.3308,3.3308,3.3716,3.4531,3.5355,3.5763,3.5763,3.5763,3.5782,3.5791,3.5791,3.5782,3.5754,3.5754,3.5754,3.5754,3.5773,3.5782,3.5782,3.583,3.5864,3.5872,3.5866,3.5878,3.5878,3.5878,3.5878,3.5878,3.5869,3.5875,3.5869,3.5807,3.5774,3.5774,3.5794,3.5794,3.5794,3.5794,3.5794,3.5753,3.563,3.5602,3.5553,3.5423,3.5335,3.5295,3.5361,3.5322,3.5295,3.5361,3.5322,3.5282,3.5282,3.517,3.5098,3.5098,3.4981,3.4908,3.4908,3.4908,3.4908,3.4908,3.4908,3.4908,3.4908,3.4908,3.4908,3.4908,3.4908,3.4908,3.4908,3.4889,3.485,3.4788,3.4788,3.4727,3.4583,3.4583,3.4666,2.6462,2.6699,2.6966,2.8242,2.9026,2.9547,2.9878,3.0403,3.0786,3.0778,3.0754,3.0754,3.0754,3.072,3.0704,3.0704,3.0704,3.071,3.0753,3.0753,3.0759,3.076,3.0765,3.0882,3.1203,3.1232,3.1607,3.2502,3.2532,3.2776,3.3322,3.3356,3.3345,3.3334,3.3329,3.3478,3.379,3.4101,3.4263,3.4269,3.4834,3.5098,3.5104,3.5669,3.5922,3.5922,3.5922,3.5885,3.5799,3.585,3.5857,3.5864,3.5879,3.5891,3.5897,3.5903,3.5894,3.5904,3.5904,3.5929,3.5953,3.5958,3.5958,3.5958,3.5943,3.5919,3.5919,3.5919,3.5919,3.5919,3.5919,3.5919,3.5914,3.5872,3.5866,3.584,3.5801,3.563,3.551,3.5532,3.5521,3.551,3.5532,3.5521,3.548,3.548,3.5446,3.5411,3.5411,3.5374,3.5348,3.5348,3.5348,3.5355,3.5347,3.5355,3.5341,3.5359,3.5353,3.5347,3.5359,3.5359,3.5359,3.5359,3.5359,3.5197,3.485,3.485,3.4831,3.4791,3.4791,3.4811,2.6184,2.6308,2.649,2.7459,2.8176,2.8788,2.9394,2.9975,3.0473,3.0768,3.0827,3.0807,3.0807,3.0767,3.0721,3.0735,3.073,3.0755,3.0793,3.0793,3.0802,3.0798,3.0798,3.0798,3.0798,3.0798,3.1032,3.1617,3.1656,3.1929,3.2494,3.2526,3.2522,3.2522,3.281,3.2961,3.2961,3.3254,3.339,3.3418,3.3984,3.4261,3.4289,3.5162,3.5552,3.5576,3.5869,3.5958,3.5878,3.5924,3.5936,3.5936,3.5933,3.5924,3.5924,3.5924,3.5929,3.5934,3.5934,3.5958,3.6005,3.6009,3.6009,3.6009,3.5994,3.5994,3.5994,3.5994,3.5994,3.5994,3.5994,3.5994,3.5994,3.5994,3.5994,3.5994,3.5994,3.5858,3.5718,3.5718,3.5718,3.5718,3.5718,3.5718,3.5718,3.5718,3.5702,3.5676,3.5676,3.563,3.5611,3.5611,3.5611,3.5602,3.5601,3.5602,3.5592,3.56,3.5591,3.5591,3.56,3.56,3.56,3.56,3.56,3.5456,3.5143,3.503,3.4999,3.4963,3.4926,3.4908,0.0,0.0,0.0,2.6618,2.6888,2.7356,2.9129,2.953,2.9804,3.0684,3.0801,3.0762,3.0784,3.0804,3.0799,3.0804,3.0801,3.0798,3.0798,3.0798,3.0798,3.0798,3.0798,3.0801,3.0801,3.0801,3.0801,3.0801,3.0801,3.0801,3.0801,3.0801,3.0801,3.0801,3.162,3.2069,3.2069,3.2904,3.3314,3.3314,3.3356,3.3356,3.3395,3.4265,3.4679,3.4745,3.5588,3.5978,3.599,3.6005,3.6005,3.6005,3.6005,3.6005,3.6005,3.6005,3.6005,3.6005,3.6005,3.6005,3.6005,3.5994,3.5997,3.5997,3.601,3.5994,3.5994,3.5994,3.5994,3.5991,3.5991,3.5994,3.5994,3.5994,3.5994,3.5994,3.5991,3.6001,3.6005,3.6005,3.6005,3.6005,3.6005,3.6005,3.6005,3.6005,3.5889,3.5807,3.5807,3.5702,3.5621,3.5621,3.5621,3.5621,3.5621,3.5621,3.5621,3.5621,3.5621,3.5621,3.5621,3.5621,3.5621,3.5621,3.5621,3.5621,3.5621,3.5335,3.5189,3.5095,3.4981,3.4926,2.5566,0.0,0.0,0.0,0.0,0.0,2.7527,2.8162,2.8882,2.9726,2.9863,3.0037,3.0614,3.073,3.0732,3.0733,3.0779,3.0796,3.0796,3.0796,3.0796,3.0796,3.0796,3.0806,3.08,3.08,3.0781,3.0739,3.0739,3.0758,3.0799,3.08,3.0781,3.0723,3.0957,3.1093,3.1093,3.1328,3.1445,3.1444,3.2087,3.2398,3.2416,3.3298,3.4039,3.464,3.4877,3.5325,3.5852,3.5957,3.6001,3.5997,3.6001,3.6005,3.6005,3.5997,3.6001,3.6005,3.6005,3.5994,3.6004,3.6007,3.5996,3.6005,3.6007,3.6007,3.6007,3.6007,3.6001,3.5991,3.5991,3.6001,3.6007,3.6007,3.6007,3.6005,3.5994,3.5999,3.6001,3.6007,3.6004,3.6004,3.6004,3.6004,3.6004,3.6004,3.5978,3.5931,3.5931,3.5899,3.589,3.589,3.589,3.589,3.5899,3.5885,3.5885,3.5883,3.5894,3.5894,3.5883,3.5883,3.5883,3.5883,3.5883,3.5883,3.5883,3.5621,3.5488,3.5446,3.5423,3.5399,2.5632,2.5632,2.5639,2.5644,0.0,0.0,2.7276,2.7871,2.8576,2.9721,2.9962,3.0105,3.0576,3.0669,3.0669,3.0669,3.0689,3.0722,3.0742,3.0762,3.0762,3.0762,3.0762,3.076,3.0751,3.0769,3.0745,3.069,3.071,3.071,3.0752,3.0757,3.0743,3.0708,3.0708,3.0708,3.0708,3.0704,3.0699,3.0713,3.122,3.1468,3.1484,3.2354,3.3041,3.3551,3.4285,3.487,3.533,3.5741,3.5916,3.5916,3.5917,3.5917,3.5917,3.5916,3.5916,3.5917,3.5917,3.5918,3.5918,3.5918,3.5918,3.5917,3.5912,3.5911,3.5911,3.5927,3.5915,3.5918,3.5918,3.5918,3.5917,3.5912,3.5929,3.5929,3.5916,3.5917,3.5937,3.5986,3.5996,3.5994,3.6001,3.6001,3.5999,3.5994,3.5991,3.5991,3.5991,3.5991,3.5991,3.5991,3.5991,3.5991,3.6004,3.601,3.6007,3.5997,3.6001,3.6004,3.5997,3.5997,3.5997,3.5997,3.5997,3.5997,3.5997,3.5781,3.5648,3.5611,3.5611,3.5611,2.5714,2.5694,2.5697,2.5703,2.5698,0.0,2.7578,2.7915,2.8359,2.9888,3.0183,3.0219,3.0317,3.0312,3.0312,3.0312,3.0409,3.0511,3.0673,3.0696,3.0696,3.0696,3.0696,3.0696,3.0689,3.0689,3.0685,3.0681,3.0681,3.0685,3.0685,3.0685,3.0685,3.0685,3.0685,3.0685,3.0685,3.0685,3.0685,3.0685,3.0685,3.0685,3.072,3.149,3.1885,3.2069,3.3724,3.4469,3.4623,3.5437,3.5792,3.5802,3.5806,3.5802,3.5792,3.5802,3.5797,3.5807,3.5807,3.5807,3.5792,3.5795,3.5798,3.5791,3.5805,3.5794,3.5807,3.5807,3.5794,3.5792,3.5795,3.5798,3.581,3.5805,3.5795,3.5807,3.5807,3.5792,3.5832,3.5956,3.5973,3.5987,3.5973,3.5975,3.5993,3.5986,3.5999,3.5994,3.5994,3.5994,3.5994,3.5994,3.5994,3.5994,3.5994,3.5994,3.5994,3.5994,3.5994,3.5994,3.5994,3.5994,3.5994,3.5994,3.5994,3.5994,3.5994,3.588,3.5767,3.5648,3.5648,3.5648,2.5853,2.5693,2.5709,2.5693,2.5702,0.0,2.6108,2.6194,2.6463,2.742,2.7615,2.7829,2.8471,2.8582,2.8582,2.8582,2.9123,2.9804,3.0511,3.0618,3.0618,3.0618,3.0618,3.0619,3.0626,3.062,3.0598,3.0546,3.0535,3.0552,3.0552,3.0552,3.056,3.0614,3.0614,3.0622,3.0618,3.0622,3.0614,3.0614,3.0618,3.0629,3.0629,3.0793,3.1239,3.1909,3.2938,3.3761,3.4439,3.5291,3.5696,3.58,3.5797,3.5801,3.5805,3.5801,3.5791,3.5805,3.5805,3.5805,3.5805,3.5795,3.5795,3.5795,3.5796,3.5796,3.5805,3.5805,3.5796,3.5805,3.5795,3.5795,3.5795,3.5796,3.5805,3.5805,3.5805,3.5805,3.5805,3.584,3.5833,3.5845,3.5845,3.5879,3.591,3.5916,3.5976,3.6009,3.6009,3.6009,3.6009,3.6009,3.6009,3.6009,3.6009,3.6009,3.6009,3.6009,3.6009,3.6009,3.6009,3.6009,3.6009,3.6009,3.6009,3.6009,3.6009,3.5971,3.5955,3.5927,3.5927,3.5927,2.5882,2.5693,2.5693,2.5693,2.5698,0.0,0.0,2.6291,2.6527,2.7284,2.7445,2.7575,2.799,2.8055,2.8055,2.8094,2.876,2.9251,2.9292,3.0023,3.0545,3.0545,3.0545,3.0548,3.0548,3.0558,3.054,3.05,3.0491,3.0501,3.0501,3.0501,3.0511,3.0559,3.0559,3.054,3.0549,3.054,3.055,3.054,3.055,3.054,3.054,3.0559,3.0772,3.1196,3.2066,3.2905,3.3724,3.4581,3.5248,3.5708,3.5704,3.5708,3.5701,3.5689,3.5707,3.5697,3.5697,3.5697,3.5697,3.5697,3.5697,3.5697,3.5697,3.5697,3.5697,3.5697,3.5697,3.5697,3.5697,3.5697,3.5697,3.5697,3.5697,3.5697,3.5697,3.5697,3.5697,3.5697,3.5698,3.5713,3.5794,3.5826,3.5859,3.5841,3.5887,3.5906,3.5906,3.5906,3.5906,3.5906,3.5906,3.5912,3.5956,3.5956,3.5956,3.5995,3.5995,3.5995,3.5995,3.5995,3.5995,3.5995,3.5993,3.5991,3.5991,3.6005,3.6003,3.6003,3.6003,3.6003,2.5872,2.5671,2.5652,2.5664,2.5652,2.5829,0.0,0.0,0.0,2.7394,2.7523,2.7523,2.7523,2.7535,2.7554,2.7582,2.8236,2.8483,2.784,2.9043,3.0006,2.9997,3.0265,3.04,3.0257,3.0237,3.0295,3.0469,3.0334,3.0314,3.0469,3.0488,3.0479,3.0481,3.0635,3.0732,3.0732,3.0886,3.0972,3.0929,3.0951,3.094,3.0864,3.0918,3.0887,3.0902,3.1768,3.2519,3.3173,3.4058,3.4828,3.5463,3.5547,3.5591,3.5591,3.5591,3.5591,3.5591,3.5591,3.5591,3.5591,3.5591,3.5591,3.5591,3.5591,3.5591,3.5591,3.5591,3.5591,3.5591,3.5591,3.5591,3.5591,3.5591,3.5591,3.5591,3.5591,3.5591,3.5591,3.5591,3.5591,3.5635,3.5739,3.5751,3.5756,3.5767,3.5768,3.5781,3.5781,3.5781,3.5781,3.5781,3.5781,3.5805,3.586,3.5851,3.5873,3.5932,3.5932,3.5932,3.5932,3.5932,3.5954,3.5976,3.5976,3.5994,3.5994,3.5994,3.5994,3.5993,3.5993,3.5993,2.5867,2.5517,2.5525,2.5517,2.5517,2.555,2.5641,0.0,2.5679,2.577,0.0,2.5789,2.5789,0.0,0.0,2.5795,2.6454,2.695,2.6865,2.7634,2.821,2.8203,2.9456,3.0042,2.9333,2.9256,2.9583,3.0352,2.9751,2.9655,3.0383,3.041,3.0414,3.0409,3.116,3.1557,3.1549,3.232,3.2627,3.244,3.2627,3.2545,3.2178,3.2369,3.2335,3.2235,3.3039,3.3441,3.3593,3.4469,3.4906,3.5018,3.5435,3.5591,3.5591,3.5591,3.5591,3.5591,3.5591,3.5591,3.5591,3.5591,3.5591,3.5591,3.5591,3.5591,3.5591,3.5591,3.5591,3.5591,3.5591,3.5591,3.5591,3.5591,3.5591,3.5591,3.5591,3.5591,3.5591,3.5591,3.5591,3.5604,3.5623,3.5628,3.562,3.5615,3.5662,3.5709,3.5709,3.5709,3.5709,3.5709,3.5709,3.5701,3.5734,3.5718,3.5735,3.5735,3.5735,3.5735,3.5735,3.5735,3.5782,3.5914,3.5915,3.5934,3.5993,3.5993,3.5995,3.5996,3.5996,3.5996,2.5708,2.5699,2.5888,2.553,2.5691,2.5811,2.551,2.5446,2.5446,2.5441,0.0,0.0,0.0,0.0,0.0,0.0,2.6118,2.6474,2.6006,2.7046,2.7857,2.7892,2.8494,2.8972,2.9087,2.9098,2.939,3.0112,2.9857,2.995,3.0658,3.1137,3.1466,3.1665,3.2043,3.2248,3.2288,3.2634,3.2723,3.2466,3.2515,3.2447,3.2294,3.2327,3.2293,3.224,3.2581,3.3015,3.3507,3.3885,3.4338,3.4793,3.4997,3.5119,3.5187,3.5187,3.5187,3.5187,3.5187,3.5187,3.5187,3.5187,3.5187,3.5187,3.5187,3.5187,3.5223,3.5335,3.5364,3.5364,3.5364,3.5455,3.5515,3.5412,3.5455,3.5528,3.5528,3.5528,3.5528,3.5528,3.5515,3.5482,3.5482,3.5547,3.5596,3.5596,3.5623,3.5642,3.5642,3.5642,3.563,3.5586,3.563,3.563,3.5637,3.5635,3.5658,3.5695,3.5701,3.5678,3.5639,3.5639,3.5687,3.5782,3.5775,3.5805,3.5827,3.5825,3.5841,3.5831,3.5945,3.5995,2.5707,2.583,2.6044,2.5457,2.5618,2.5795,2.5416,2.5318,2.5329,2.5327,2.5316,0.0,0.0,0.0,2.5337,2.5313,0.0,2.6015,2.5388,2.632,2.7102,2.7189,2.74,2.786,2.8664,2.8552,2.8847,2.9908,2.9808,3.0117,3.1167,3.1789,3.2222,3.2469,3.2697,3.2847,3.288,3.3127,3.3102,3.2864,3.2883,3.2825,3.2687,3.2707,3.2668,3.2625,3.2625,3.2981,3.3564,3.3564,3.3939,3.4505,3.4505,3.4569,3.4672,3.4812,3.4851,3.4851,3.4851,3.4851,3.4851,3.4851,3.4851,3.4851,3.4851,3.4851,3.487,3.5018,3.5053,3.5053,3.5053,3.5174,3.5239,3.5107,3.5174,3.5289,3.5289,3.5289,3.5289,3.5289,3.5239,3.5223,3.5223,3.5374,3.5522,3.5522,3.5522,3.5554,3.5554,3.5566,3.5554,3.5476,3.5522,3.5541,3.5515,3.5515,3.554,3.5608,3.5609,3.558,3.5541,3.5526,3.5566,3.5643,3.5648,3.566,3.5698,3.5687,3.5676,3.5685,3.5873,3.5968,2.6087,2.58,2.571,2.5227,2.5115,2.5134,2.5107,2.5107,2.5107,2.5107,2.5107,2.5107,2.5107,2.5168,2.5198,2.5126,2.5187,0.0,0.0,2.5153,2.5258,2.5465,2.6169,2.6956,2.7753,2.7131,2.7596,2.9823,2.9284,2.9787,3.194,3.209,3.2109,3.2109,3.2939,3.3392,3.3373,3.4204,3.4496,3.424,3.4496,3.4367,3.3931,3.4144,3.412,3.3949,3.3949,3.3949,3.3986,3.3986,3.4005,3.4023,3.4023,3.4023,3.408,3.4548,3.4713,3.4713,3.4713,3.4713,3.4713,3.4713,3.4713,3.4713,3.4713,3.4713,3.4713,3.4714,3.4733,3.4733,3.4733,3.4714,3.4714,3.4714,3.4714,3.4733,3.4733,3.4733,3.4733,3.4733,3.4714,3.4714,3.4714,3.5051,3.5315,3.5315,3.5364,3.5412,3.5412,3.546,3.5474,3.5412,3.5412,3.5379,3.5315,3.5315,3.533,3.5412,3.535,3.535,3.5398,3.535,3.5364,3.5492,3.5519,3.5577,3.5697,3.5621,3.5592,3.5621,3.5807,3.5896,2.6297,2.6882,2.7251,2.5855,2.6176,2.6517,2.5367,2.5495,2.5742,2.5203,2.552,2.573,2.5196,2.5132,2.5132,2.5101,2.5125,2.5137,0.0,2.5106,2.5122,2.5192,2.5945,2.6565,2.6845,2.7471,2.8343,2.951,3.0208,3.111,3.231,3.2859,3.3258,3.3474,3.3795,3.3949,3.4011,3.4292,3.433,3.4087,3.4136,3.408,3.3947,3.3954,3.3928,3.3868,3.3868,3.3868,3.3868,3.3868,3.3868,3.3868,3.3868,3.3868,3.3895,3.4154,3.425,3.425,3.425,3.425,3.425,3.425,3.425,3.425,3.425,3.425,3.4255,3.4398,3.4423,3.4423,3.4423,3.4572,3.4653,3.4486,3.4572,3.4694,3.4694,3.4694,3.4694,3.4694,3.4674,3.4632,3.4632,3.4715,3.4813,3.4889,3.5034,3.5138,3.5138,3.527,3.535,3.5339,3.5335,3.5315,3.5289,3.53,3.53,3.5324,3.5324,3.5289,3.5273,3.5258,3.527,3.5374,3.536,3.5388,3.5443,3.5418,3.5386,3.5411,3.5551,3.5655,2.7507,2.8141,2.8504,2.7106,2.7417,2.764,2.6054,2.6125,2.6276,2.5542,2.5617,2.5687,2.5328,2.512,2.4972,2.4931,2.4953,2.4993,0.0,2.4993,2.4987,2.4994,2.5526,2.613,2.6669,2.7063,2.7881,2.9288,3.0246,3.1159,3.2093,3.314,3.3815,3.4018,3.4043,3.4093,3.4117,3.4093,3.4037,3.3921,3.3842,3.3842,3.3868,3.3815,3.3807,3.3807,3.3807,3.3807,3.3807,3.3807,3.3807,3.3807,3.3807,3.3807,3.378,3.3895,3.3921,3.3921,3.3921,3.3921,3.3921,3.3921,3.3921,3.3921,3.3921,3.3921,3.4028,3.442,3.434,3.4191,3.447,3.446,3.4348,3.4165,3.4237,3.433,3.433,3.4348,3.4307,3.4307,3.4284,3.4237,3.4237,3.4213,3.4284,3.4572,3.4774,3.487,3.487,3.4997,3.5069,3.5053,3.5051,3.5069,3.516,3.5157,3.519,3.5293,3.5277,3.5261,3.5245,3.5209,3.5359,3.5714,3.543,3.543,3.5733,3.5423,3.5254,3.5277,3.534,3.5412]},{"header":{"parameterUnit":"m.s-1","parameterCategory":1,"la1":30.6,"la2":29.2853,"lo1":-89.7004,"lo2":-87.6739,"dy":0.0162,"dx":0.0183,"nx":112,"ny":82,"refTime":"2023-08-22T12:00:00:Z","depth":0,"parameterNumber":3,"parameterNumberName":"V-component_of_WINDS"},"data":[0.0,0.0,0.0,0.0,0.0,0.0,0.0,0.0,0.0,0.0,0.0,0.0,0.0,0.0,0.0,0.0,0.0,0.0,0.0,0.0,0.0,0.0,0.0,0.0,0.0,0.0,0.0,0.0,0.0,0.0,0.0,0.0,0.0,0.0,0.0,0.0,0.0,0.0,0.0,0.0,0.0,0.0,0.0,0.0,0.0,0.0,0.0,0.0,0.0,0.0,0.0,0.0,0.0,0.0,0.0,0.0,0.0,0.0,0.0,0.0,0.0,0.0,0.0,0.0,0.0,0.0,0.0,0.0,0.0,0.0,0.0,0.0,0.0,0.0,0.0,0.0,0.0,0.0,0.0,0.0,0.0,0.0,0.0,0.0,0.0,0.0,0.0,0.0,0.0,0.0,-2.622,-2.622,-2.622,-2.622,-2.622,-2.622,-2.622,-2.622,0.0,0.0,0.0,0.0,0.0,0.0,0.0,0.0,0.0,0.0,0.0,0.0,0.0,0.0,0.0,0.0,0.0,0.0,0.0,0.0,0.0,0.0,0.0,0.0,0.0,0.0,0.0,0.0,0.0,0.0,0.0,0.0,0.0,0.0,0.0,0.0,0.0,0.0,0.0,0.0,0.0,0.0,0.0,0.0,0.0,0.0,0.0,0.0,0.0,0.0,0.0,0.0,0.0,0.0,0.0,0.0,0.0,0.0,0.0,0.0,0.0,0.0,0.0,0.0,0.0,0.0,0.0,0.0,0.0,0.0,0.0,0.0,0.0,0.0,0.0,0.0,0.0,0.0,0.0,0.0,0.0,0.0,0.0,0.0,0.0,0.0,0.0,0.0,0.0,0.0,0.0,0.0,0.0,0.0,0.0,0.0,0.0,0.0,0.0,0.0,0.0,0.0,0.0,0.0,-2.622,-2.622,-2.622,-2.622,-2.622,-2.622,-2.622,-2.622,0.0,0.0,0.0,0.0,0.0,0.0,0.0,0.0,0.0,0.0,0.0,0.0,0.0,0.0,0.0,0.0,0.0,0.0,0.0,0.0,0.0,0.0,0.0,0.0,0.0,0.0,0.0,0.0,0.0,0.0,0.0,0.0,0.0,0.0,0.0,0.0,0.0,0.0,0.0,0.0,0.0,0.0,0.0,0.0,0.0,0.0,0.0,0.0,0.0,0.0,0.0,0.0,0.0,0.0,0.0,0.0,0.0,0.0,0.0,0.0,0.0,0.0,0.0,0.0,0.0,0.0,0.0,0.0,0.0,0.0,0.0,0.0,0.0,0.0,0.0,0.0,0.0,0.0,0.0,0.0,0.0,0.0,0.0,0.0,0.0,0.0,0.0,0.0,0.0,0.0,0.0,0.0,0.0,0.0,0.0,0.0,0.0,0.0,0.0,0.0,0.0,0.0,0.0,-2.6132,-2.622,-2.622,-2.622,-2.622,-2.622,-2.622,-2.6079,-2.5864,-2.5811,0.0,0.0,0.0,0.0,0.0,0.0,0.0,0.0,0.0,0.0,0.0,0.0,0.0,0.0,0.0,0.0,0.0,0.0,0.0,0.0,0.0,0.0,0.0,0.0,0.0,0.0,0.0,0.0,0.0,0.0,0.0,0.0,0.0,0.0,0.0,0.0,0.0,0.0,0.0,0.0,0.0,0.0,0.0,0.0,0.0,0.0,0.0,0.0,0.0,0.0,0.0,0.0,0.0,0.0,0.0,0.0,0.0,0.0,0.0,0.0,0.0,0.0,0.0,0.0,0.0,0.0,0.0,0.0,0.0,0.0,0.0,0.0,0.0,0.0,0.0,0.0,0.0,0.0,0.0,0.0,0.0,0.0,0.0,0.0,0.0,0.0,0.0,0.0,0.0,0.0,0.0,0.0,0.0,0.0,0.0,0.0,0.0,0.0,0.0,0.0,0.0,0.0,-2.6096,-2.622,-2.622,-2.622,-2.622,-2.622,-2.622,-2.599,-2.5519,-2.5389,0.0,0.0,0.0,0.0,0.0,0.0,0.0,0.0,0.0,0.0,0.0,0.0,0.0,0.0,0.0,0.0,0.0,0.0,0.0,0.0,0.0,0.0,0.0,0.0,0.0,0.0,0.0,0.0,0.0,0.0,0.0,0.0,0.0,0.0,0.0,0.0,0.0,0.0,0.0,0.0,0.0,0.0,0.0,0.0,0.0,0.0,0.0,0.0,0.0,0.0,0.0,0.0,0.0,0.0,0.0,0.0,0.0,0.0,0.0,0.0,0.0,0.0,0.0,0.0,0.0,0.0,0.0,0.0,0.0,0.0,0.0,0.0,0.0,0.0,0.0,0.0,0.0,0.0,0.0,0.0,0.0,0.0,0.0,0.0,0.0,0.0,0.0,0.0,0.0,0.0,0.0,0.0,0.0,0.0,0.0,0.0,0.0,0.0,0.0,0.0,0.0,0.0,-2.6096,-2.622,-2.622,-2.622,-2.622,-2.622,-2.622,-2.5954,-2.5443,-2.5005,0.0,0.0,0.0,0.0,0.0,0.0,0.0,0.0,0.0,0.0,0.0,0.0,0.0,0.0,0.0,0.0,0.0,0.0,0.0,0.0,0.0,0.0,0.0,0.0,0.0,0.0,0.0,0.0,0.0,0.0,0.0,0.0,0.0,0.0,0.0,0.0,0.0,0.0,0.0,0.0,0.0,0.0,0.0,0.0,0.0,0.0,0.0,0.0,0.0,0.0,0.0,0.0,0.0,0.0,0.0,0.0,0.0,0.0,0.0,0.0,0.0,0.0,0.0,0.0,0.0,0.0,0.0,0.0,0.0,0.0,0.0,0.0,0.0,0.0,0.0,0.0,0.0,0.0,0.0,0.0,0.0,0.0,0.0,0.0,0.0,0.0,0.0,0.0,0.0,0.0,0.0,0.0,0.0,0.0,0.0,0.0,0.0,0.0,0.0,0.0,0.0,0.0,-2.586,-2.622,-2.622,-2.622,-2.6079,-2.5775,-2.5758,-2.5406,-2.4623,0.0,0.0,0.0,0.0,0.0,0.0,0.0,0.0,0.0,0.0,0.0,0.0,0.0,0.0,0.0,0.0,0.0,0.0,0.0,0.0,0.0,0.0,0.0,0.0,0.0,0.0,0.0,0.0,0.0,0.0,0.0,0.0,0.0,0.0,0.0,0.0,0.0,0.0,0.0,0.0,0.0,0.0,0.0,0.0,0.0,0.0,0.0,0.0,0.0,0.0,0.0,0.0,0.0,0.0,0.0,0.0,0.0,0.0,0.0,0.0,0.0,0.0,0.0,0.0,0.0,0.0,0.0,0.0,0.0,0.0,0.0,0.0,0.0,0.0,0.0,0.0,0.0,0.0,0.0,0.0,0.0,0.0,0.0,0.0,0.0,0.0,0.0,0.0,0.0,0.0,0.0,0.0,0.0,0.0,0.0,0.0,0.0,0.0,0.0,0.0,0.0,0.0,-2.5146,-2.5733,-2.6132,-2.599,-2.599,-2.5791,-2.5351,-2.5313,-2.4965,-2.4147,0.0,0.0,0.0,0.0,0.0,0.0,0.0,0.0,0.0,0.0,0.0,0.0,0.0,0.0,0.0,0.0,0.0,0.0,0.0,0.0,0.0,0.0,0.0,0.0,0.0,0.0,0.0,0.0,0.0,0.0,0.0,0.0,0.0,0.0,0.0,0.0,0.0,0.0,0.0,0.0,0.0,0.0,0.0,0.0,0.0,0.0,0.0,0.0,0.0,0.0,0.0,0.0,0.0,0.0,0.0,0.0,0.0,0.0,0.0,0.0,0.0,0.0,0.0,0.0,0.0,0.0,0.0,0.0,0.0,0.0,0.0,0.0,0.0,0.0,0.0,0.0,0.0,0.0,0.0,0.0,0.0,0.0,0.0,0.0,0.0,0.0,0.0,0.0,0.0,0.0,0.0,0.0,0.0,0.0,0.0,0.0,0.0,0.0,0.0,0.0,0.0,0.0,-2.5091,-2.5733,-2.599,-2.5556,-2.5503,-2.5313,-2.4942,-2.4902,-2.4664,0.0,0.0,0.0,0.0,0.0,0.0,0.0,0.0,0.0,0.0,0.0,0.0,0.0,0.0,0.0,0.0,0.0,0.0,0.0,0.0,0.0,0.0,0.0,0.0,0.0,0.0,0.0,0.0,0.0,0.0,0.0,0.0,0.0,0.0,0.0,0.0,0.0,0.0,0.0,0.0,0.0,0.0,0.0,0.0,0.0,0.0,0.0,0.0,0.0,0.0,0.0,0.0,0.0,0.0,0.0,0.0,0.0,0.0,0.0,0.0,0.0,0.0,0.0,0.0,0.0,0.0,0.0,0.0,0.0,0.0,0.0,0.0,0.0,0.0,0.0,0.0,0.0,0.0,0.0,0.0,0.0,0.0,0.0,0.0,0.0,0.0,0.0,0.0,0.0,0.0,0.0,0.0,0.0,0.0,0.0,0.0,0.0,0.0,0.0,0.0,0.0,0.0,0.0,-2.4533,-2.4974,-2.5269,-2.5291,-2.5176,-2.4902,-2.4533,-2.4492,-2.4245,-2.3711,0.0,0.0,0.0,0.0,0.0,0.0,0.0,0.0,0.0,0.0,0.0,0.0,0.0,0.0,0.0,0.0,0.0,0.0,0.0,0.0,0.0,0.0,0.0,0.0,0.0,0.0,0.0,0.0,0.0,0.0,0.0,0.0,0.0,0.0,0.0,0.0,0.0,0.0,0.0,0.0,0.0,0.0,0.0,0.0,0.0,0.0,0.0,0.0,0.0,0.0,0.0,0.0,0.0,0.0,0.0,0.0,0.0,0.0,0.0,0.0,0.0,0.0,0.0,0.0,0.0,0.0,0.0,0.0,0.0,0.0,0.0,0.0,0.0,0.0,0.0,0.0,0.0,0.0,0.0,0.0,0.0,0.0,0.0,0.0,0.0,0.0,0.0,0.0,0.0,0.0,0.0,0.0,0.0,0.0,0.0,0.0,0.0,0.0,0.0,0.0,0.0,0.0,-2.4063,-2.4461,-2.4744,-2.4704,-2.4567,-2.4338,-2.3925,-2.3967,-2.3839,-2.3509,0.0,0.0,0.0,0.0,0.0,0.0,0.0,0.0,0.0,0.0,0.0,0.0,0.0,0.0,0.0,0.0,0.0,0.0,0.0,0.0,0.0,0.0,0.0,0.0,0.0,0.0,0.0,0.0,0.0,0.0,0.0,0.0,0.0,0.0,0.0,0.0,0.0,0.0,0.0,0.0,0.0,0.0,0.0,0.0,0.0,0.0,0.0,0.0,0.0,0.0,0.0,0.0,0.0,0.0,0.0,0.0,0.0,0.0,0.0,0.0,0.0,0.0,0.0,0.0,0.0,0.0,0.0,0.0,0.0,0.0,0.0,0.0,0.0,0.0,0.0,0.0,0.0,0.0,0.0,0.0,0.0,0.0,0.0,0.0,0.0,0.0,0.0,0.0,0.0,0.0,0.0,0.0,0.0,0.0,0.0,0.0,0.0,0.0,0.0,0.0,0.0,0.0,-2.3694,-2.4158,-2.4338,-2.3921,-2.3837,-2.3681,-2.3319,-2.3407,-2.3509,-2.3509,0.0,0.0,0.0,0.0,0.0,0.0,0.0,0.0,0.0,0.0,0.0,0.0,0.0,0.0,0.0,0.0,0.0,0.0,0.0,0.0,0.0,0.0,0.0,0.0,0.0,0.0,0.0,0.0,0.0,0.0,0.0,0.0,0.0,0.0,0.0,0.0,0.0,0.0,0.0,0.0,0.0,0.0,0.0,0.0,0.0,0.0,0.0,0.0,0.0,0.0,0.0,0.0,0.0,0.0,0.0,0.0,0.0,0.0,0.0,0.0,-1.9596,-1.9146,0.0,0.0,0.0,0.0,0.0,0.0,0.0,0.0,0.0,0.0,0.0,0.0,0.0,0.0,0.0,0.0,0.0,0.0,0.0,0.0,0.0,0.0,0.0,0.0,0.0,0.0,0.0,0.0,0.0,0.0,0.0,0.0,0.0,0.0,0.0,0.0,0.0,0.0,0.0,0.0,-2.345,-2.3551,-2.361,-2.3681,-2.3508,-2.3392,-2.3319,-2.3319,-2.3363,-2.3509,-2.3363,0.0,0.0,0.0,0.0,0.0,0.0,0.0,0.0,0.0,0.0,0.0,0.0,0.0,0.0,0.0,0.0,0.0,0.0,0.0,0.0,0.0,0.0,0.0,0.0,0.0,0.0,0.0,0.0,0.0,0.0,0.0,0.0,0.0,0.0,0.0,0.0,0.0,0.0,0.0,0.0,0.0,0.0,0.0,0.0,0.0,0.0,0.0,0.0,0.0,0.0,0.0,0.0,0.0,0.0,0.0,0.0,0.0,0.0,0.0,-2.0622,-2.0049,0.0,0.0,0.0,0.0,0.0,0.0,0.0,0.0,0.0,0.0,0.0,0.0,0.0,0.0,0.0,0.0,0.0,0.0,0.0,0.0,0.0,0.0,0.0,0.0,0.0,0.0,0.0,0.0,0.0,0.0,0.0,0.0,0.0,0.0,0.0,0.0,0.0,0.0,0.0,0.0,-2.3127,-2.3142,-2.3187,-2.3319,-2.329,-2.3201,-2.3201,-2.3275,-2.3275,-2.3305,-2.3246,0.0,0.0,0.0,0.0,0.0,0.0,0.0,0.0,0.0,0.0,0.0,0.0,0.0,0.0,0.0,0.0,0.0,0.0,0.0,0.0,0.0,0.0,0.0,0.0,0.0,0.0,0.0,0.0,0.0,0.0,0.0,0.0,0.0,0.0,0.0,0.0,0.0,0.0,0.0,0.0,0.0,0.0,0.0,0.0,0.0,0.0,0.0,0.0,0.0,0.0,0.0,0.0,0.0,-2.116,-2.126,-2.1345,-2.1462,-2.1547,-2.1559,-2.142,-2.0732,-1.9744,-2.0094,0.0,0.0,0.0,0.0,0.0,0.0,0.0,0.0,0.0,0.0,0.0,0.0,0.0,0.0,0.0,0.0,0.0,0.0,0.0,0.0,0.0,0.0,-2.1559,-2.2628,-2.2888,-2.2888,-2.2888,0.0,0.0,0.0,0.0,0.0,0.0,0.0,0.0,0.0,0.0,0.0,-2.2947,-2.2947,-2.2992,-2.3127,-2.3127,-2.3127,-2.3127,-2.3246,-2.3275,-2.3171,-2.3171,-2.3127,0.0,0.0,0.0,0.0,0.0,0.0,0.0,0.0,0.0,0.0,0.0,0.0,0.0,0.0,0.0,0.0,0.0,0.0,0.0,0.0,0.0,0.0,0.0,0.0,0.0,0.0,0.0,0.0,0.0,0.0,0.0,0.0,-1.8596,-1.8691,0.0,0.0,0.0,0.0,0.0,0.0,0.0,0.0,0.0,0.0,0.0,0.0,0.0,-2.0881,-2.1094,-2.1126,-2.1196,-2.1263,-2.1737,-2.1958,-2.1987,-2.2469,-2.2686,-2.2686,-2.2642,0.0,-2.1009,-2.0578,0.0,0.0,0.0,0.0,0.0,0.0,0.0,0.0,0.0,0.0,0.0,0.0,0.0,0.0,0.0,0.0,0.0,0.0,0.0,0.0,0.0,0.0,-2.1491,-2.2643,-2.2888,-2.2888,-2.2888,-2.2888,-2.2843,-2.2888,-2.2888,-2.2888,0.0,0.0,0.0,0.0,0.0,0.0,-2.3037,-2.3082,-2.3127,-2.3275,-2.3275,-2.3275,-2.3275,-2.3275,-2.3319,-2.3422,-2.3334,-2.3275,-2.3275,-2.3157,0.0,0.0,0.0,0.0,0.0,0.0,0.0,0.0,0.0,0.0,0.0,0.0,0.0,0.0,0.0,0.0,0.0,0.0,0.0,0.0,0.0,0.0,0.0,0.0,0.0,0.0,0.0,0.0,0.0,-1.875,-1.9237,-1.9145,-1.9497,-1.966,0.0,0.0,0.0,0.0,0.0,0.0,0.0,0.0,0.0,-2.0797,-2.133,-2.1666,-2.1695,-2.2367,-2.2731,-2.2776,-2.3358,-2.3632,-2.3708,-2.3891,-2.396,-2.396,-2.4036,-2.3749,-2.3184,-2.1896,-2.1175,-2.0887,0.0,0.0,0.0,0.0,-2.0465,-2.0465,-2.0441,-2.0401,-2.0401,-2.0494,0.0,0.0,0.0,0.0,0.0,0.0,0.0,-2.0294,-2.1108,-2.1486,-2.1914,-2.2715,-2.2888,-2.2888,-2.2888,-2.2888,-2.2888,-2.2888,-2.2888,-2.3004,-2.3412,-2.3134,0.0,0.0,0.0,-2.3577,-2.3668,-2.4036,-2.4381,-2.4458,-2.4504,-2.4504,-2.4504,-2.4193,-2.3985,-2.394,-2.3541,-2.3275,-2.3201,-2.3127,-2.3037,0.0,0.0,0.0,0.0,0.0,0.0,0.0,0.0,0.0,0.0,0.0,0.0,0.0,0.0,0.0,0.0,0.0,0.0,0.0,0.0,0.0,0.0,0.0,0.0,0.0,0.0,0.0,0.0,-1.9174,-1.9667,-1.9281,-1.9821,-2.0045,0.0,0.0,0.0,0.0,0.0,0.0,-2.0622,-2.1108,-2.1532,-2.1762,-2.2293,-2.2615,-2.2775,-2.3705,-2.4138,-2.4138,-2.4568,-2.4849,-2.4878,-2.4863,-2.48,-2.4785,-2.4863,-2.4863,-2.4718,-2.3198,-2.2337,-2.1982,-2.1863,-2.1789,-2.1789,-2.1762,-2.1762,-2.1762,-2.1651,-2.1624,-2.1595,-2.1462,-2.1342,-2.1281,-2.1469,0.0,0.0,0.0,0.0,-2.1311,-2.1836,-2.2307,-2.2746,-2.3281,-2.338,-2.338,-2.338,-2.338,-2.3279,-2.296,-2.2888,-2.3091,-2.3775,-2.3499,0.0,-2.4083,-2.4232,-2.4341,-2.442,-2.4941,-2.5331,-2.5458,-2.5458,-2.5458,-2.5458,-2.5027,-2.4728,-2.4621,-2.3999,-2.354,-2.3466,-2.3229,-2.3037,-2.2947,0.0,0.0,0.0,0.0,0.0,0.0,0.0,0.0,0.0,0.0,0.0,0.0,0.0,0.0,0.0,0.0,0.0,0.0,0.0,0.0,0.0,0.0,0.0,0.0,0.0,0.0,0.0,0.0,0.0,-1.9197,-1.9852,0.0,0.0,0.0,0.0,-2.1079,-2.1111,-2.1167,-2.1259,-2.171,-2.2265,-2.2965,-2.3501,-2.408,-2.4689,-2.4791,-2.482,-2.4742,-2.4771,-2.4785,-2.4785,-2.4878,-2.4863,-2.4785,-2.4785,-2.4863,-2.482,-2.4159,-2.3871,-2.3829,-2.3319,-2.3113,-2.3084,-2.3024,-2.3024,-2.298,-2.2846,-2.2801,-2.2744,-2.2192,-2.172,-2.1421,-2.2069,-2.2245,0.0,0.0,-2.3054,-2.3187,-2.3727,-2.3871,-2.4075,-2.4679,-2.4762,-2.4684,-2.4684,-2.4684,-2.4336,-2.312,-2.2888,-2.3091,-2.3775,0.0,-2.4112,-2.4897,-2.4932,-2.4966,-2.5319,-2.5287,-2.5301,-2.5553,-2.5615,-2.5615,-2.5615,-2.5585,-2.5555,-2.5523,-2.4834,-2.4431,-2.4431,-2.3554,-2.3082,-2.3082,-2.2947,0.0,0.0,0.0,0.0,0.0,0.0,0.0,0.0,0.0,0.0,0.0,0.0,0.0,0.0,0.0,0.0,0.0,0.0,0.0,0.0,0.0,0.0,0.0,0.0,0.0,0.0,0.0,0.0,-1.9448,-2.0367,0.0,-2.0341,-2.0695,-2.1068,-2.1263,-2.1971,-2.2439,-2.2439,-2.3298,-2.392,-2.4214,-2.4399,-2.4631,-2.4785,-2.5255,-2.5458,-2.5458,-2.5879,-2.6083,-2.6083,-2.6097,-2.6097,-2.6083,-2.6083,-2.6097,-2.6097,-2.5887,-2.5305,-2.4549,-2.4363,-2.4261,-2.4247,-2.4214,-2.4229,-2.4243,-2.4167,-2.4105,-2.4076,-2.3967,-2.3781,-2.3608,-2.3434,-2.3376,-2.3377,-2.3231,-2.3466,-2.3756,-2.3929,-2.4261,-2.4592,-2.4791,-2.48,-2.4785,-2.4863,-2.4849,-2.4655,-2.4192,-2.4105,-2.4355,-2.4994,-2.4762,-2.4767,-2.557,-2.5623,-2.5707,-2.6035,-2.6372,-2.6688,-2.6871,-2.6871,-2.6871,-2.6871,-2.6482,-2.6243,-2.6243,-2.5583,-2.5178,-2.507,-2.4323,-2.3847,-2.3756,-2.3196,-2.2888,0.0,0.0,0.0,0.0,0.0,0.0,0.0,0.0,0.0,0.0,0.0,0.0,0.0,0.0,0.0,0.0,0.0,0.0,0.0,0.0,0.0,0.0,0.0,0.0,0.0,-1.9043,-1.9455,-1.9557,-2.0509,-2.1055,-2.0906,-2.1499,-2.1958,-2.2149,-2.3152,-2.3693,-2.3679,-2.4384,-2.4887,-2.5139,-2.5183,-2.5284,-2.5487,-2.5923,-2.6126,-2.6126,-2.6576,-2.6779,-2.6779,-2.6779,-2.6779,-2.6779,-2.6779,-2.6779,-2.6779,-2.6779,-2.6286,-2.5531,-2.5531,-2.5517,-2.5487,-2.5487,-2.5502,-2.5517,-2.5502,-2.5342,-2.5154,-2.5183,-2.5052,-2.4834,-2.4669,-2.4597,-2.4601,-2.4458,-2.4659,-2.4932,-2.4932,-2.5218,-2.5487,-2.5487,-2.5487,-2.5502,-2.5517,-2.5517,-2.5487,-2.5487,-2.509,-2.4988,-2.5676,-2.5494,-2.5485,-2.6279,-2.6417,-2.6518,-2.6768,-2.7155,-2.7437,-2.7575,-2.7625,-2.7625,-2.7625,-2.7171,-2.6916,-2.6916,-2.6303,-2.5896,-2.5786,-2.502,-2.454,-2.4493,-2.3679,-2.3105,-2.2888,0.0,0.0,0.0,0.0,0.0,0.0,0.0,0.0,0.0,0.0,0.0,0.0,0.0,0.0,0.0,0.0,0.0,0.0,0.0,0.0,0.0,0.0,0.0,-1.8232,-1.8789,-1.9304,-1.9525,-2.0216,-2.0912,-2.1704,-2.2598,-2.3346,-2.3884,-2.4504,-2.4892,-2.4814,-2.4829,-2.5183,-2.5792,-2.5821,-2.6126,-2.6779,-2.6779,-2.6779,-2.6779,-2.6779,-2.6779,-2.6779,-2.6779,-2.6779,-2.6779,-2.6779,-2.6779,-2.6779,-2.6779,-2.6779,-2.6779,-2.6779,-2.6779,-2.6779,-2.6779,-2.6779,-2.6779,-2.6779,-2.6358,-2.5821,-2.5821,-2.5429,-2.5052,-2.5633,-2.5821,-2.5952,-2.6605,-2.6779,-2.6779,-2.6779,-2.6779,-2.6779,-2.6779,-2.6779,-2.6779,-2.6779,-2.6779,-2.6779,-2.6779,-2.5763,-2.5096,-2.5705,-2.5923,-2.6293,-2.7093,-2.7181,0.0,-2.756,-2.7488,-2.7437,-2.7575,-2.7625,-2.7625,-2.7575,-2.7625,-2.7625,-2.7625,-2.6976,-2.6617,-2.6617,-2.5734,-2.5221,-2.5206,-2.4352,-2.3586,-2.2917,0.0,0.0,0.0,0.0,0.0,0.0,0.0,0.0,0.0,0.0,0.0,0.0,0.0,0.0,0.0,0.0,0.0,0.0,0.0,0.0,0.0,-1.878,-1.9033,-1.9021,-1.9159,-1.9693,-2.0864,-2.1112,-2.177,-2.3286,-2.3178,-2.3468,-2.4482,-2.479,-2.5061,-2.5517,-2.5981,-2.6329,-2.6504,-2.6518,-2.6591,-2.6779,-2.6779,-2.6779,-2.6779,-2.6779,-2.6779,-2.6779,-2.6779,-2.6779,-2.6779,-2.6779,-2.6779,-2.6779,-2.6779,-2.6779,-2.6779,-2.6779,-2.6779,-2.6779,-2.6779,-2.6779,-2.6779,-2.6779,-2.6663,-2.6518,-2.6518,-2.6402,-2.63,-2.646,-2.6518,-2.6547,-2.6736,-2.6779,-2.6779,-2.6779,-2.6779,-2.6779,-2.6779,-2.6779,-2.6779,-2.6779,-2.6779,-2.6779,-2.6779,-2.6489,-2.6352,-2.6645,-2.6622,-2.6718,-2.7269,-2.7196,-2.7196,-2.7575,-2.7488,-2.7401,-2.7437,-2.7524,-2.7575,-2.7437,-2.7524,-2.7625,-2.7625,-2.7445,-2.7355,-2.7355,-2.6416,-2.5609,-2.4932,-2.4258,-2.3804,0.0,0.0,0.0,0.0,0.0,0.0,0.0,0.0,0.0,0.0,0.0,0.0,0.0,0.0,0.0,0.0,0.0,0.0,0.0,0.0,0.0,0.0,-1.9206,-1.9736,-1.9877,-1.9902,-2.0386,-2.1707,-2.1798,-2.2273,-2.3552,-2.354,-2.3741,-2.444,-2.5015,-2.5491,-2.5821,-2.6457,-2.6779,-2.6779,-2.6779,-2.6779,-2.6779,-2.6779,-2.6779,-2.6779,-2.6779,-2.6779,-2.6779,-2.6779,-2.6779,-2.6779,-2.6846,-2.6899,-2.6899,-2.6937,-2.6989,-2.6989,0.0,0.0,0.0,0.0,-2.6779,-2.6779,-2.65,-2.6394,-2.6394,-2.615,-2.6042,-2.6042,-2.6096,-2.6312,-2.6486,-2.65,-2.6674,-2.6899,-2.6779,-2.6779,-2.6779,-2.6779,-2.6779,-2.6779,-2.6779,-2.6779,-2.6779,-2.6779,-2.6779,0.0,-2.7041,-2.7041,-2.7093,-2.735,-2.7299,-2.7335,-2.7575,-2.7524,-2.7488,-2.7488,-2.7524,-2.7575,-2.7488,-2.7575,0.0,0.0,0.0,-2.7575,-2.7423,-2.6914,0.0,0.0,0.0,-2.4559,-2.4312,-2.3659,0.0,0.0,-2.3018,-2.2888,0.0,0.0,0.0,0.0,0.0,0.0,0.0,0.0,0.0,0.0,0.0,0.0,0.0,0.0,0.0,0.0,-1.9703,-2.0398,-2.0819,-2.0907,-2.1301,-2.2291,-2.2356,-2.2577,-2.3263,-2.3681,-2.395,-2.4195,-2.5203,-2.5839,-2.5893,-2.6394,0.0,0.0,0.0,-2.6727,-2.6779,-2.6779,-2.6779,-2.6779,-2.6832,-2.6875,-2.6934,-2.6861,-2.6875,-2.6934,-2.7033,-2.7003,-2.7055,-2.713,-2.7233,-2.7233,-2.7093,-2.6951,-2.6832,-2.6832,-2.6779,-2.6727,-2.6179,0.0,0.0,-2.5356,-2.5189,-2.5245,-2.5356,-2.5797,-2.619,-2.6218,-2.6621,-2.6951,-2.6846,-2.6779,-2.6779,-2.6779,-2.6779,-2.6779,-2.6779,-2.6779,-2.6779,-2.6779,-2.6779,-2.6884,-2.713,-2.7181,-2.7233,-2.7401,-2.7539,-2.7575,-2.7625,-2.7625,-2.7575,-2.7575,-2.7575,0.0,-2.7575,-2.7575,-2.7625,-2.7625,-2.7625,-2.7473,-2.7233,-2.7233,-2.6799,-2.5959,-2.5821,-2.5531,-2.4994,-2.4326,-2.3992,-2.3978,-2.3221,-2.2888,0.0,0.0,0.0,0.0,0.0,0.0,0.0,0.0,0.0,0.0,0.0,0.0,0.0,0.0,0.0,-1.9456,-2.0144,-2.0907,-2.1857,-2.2122,-2.2501,-2.3194,-2.2716,-2.2979,-2.4622,-2.3877,-2.3696,-2.4724,-2.5021,-2.537,-2.5893,-2.6002,-2.6286,-2.6779,-2.634,-2.6286,-2.6779,-2.6779,-2.6779,-2.6779,-2.6899,0.0,-2.7749,-2.7328,-2.7409,-2.788,-2.735,-2.7181,-2.7181,-2.7181,-2.7284,-2.735,-2.7233,-2.7093,-2.6951,-2.6951,-2.6899,-2.6779,-2.6674,-2.6621,-2.6621,-2.65,-2.6447,-2.65,-2.6606,-2.6712,0.0,-2.6974,-2.6974,-2.7003,-2.6951,-2.6899,-2.6779,-2.6779,-2.6779,-2.6779,-2.6779,-2.6779,-2.6779,-2.6779,-2.6779,-2.6846,-2.7003,-2.7055,-2.7144,-2.7539,-2.7488,-2.7488,-2.7575,-2.7625,-2.7575,-2.7437,-2.7539,-2.7575,-2.7437,-2.7524,-2.7625,-2.7625,-2.7625,-2.7524,-2.735,-2.7284,-2.7071,-2.6761,-2.6119,-2.572,-2.5604,-2.4965,-2.4612,-2.4583,-2.3424,-2.2888,0.0,0.0,0.0,0.0,0.0,0.0,0.0,0.0,0.0,0.0,0.0,-1.8786,-1.8786,0.0,-2.0025,-2.0308,-2.098,-2.1681,-2.2234,-2.2677,-2.3089,-2.3425,-2.3134,-2.3354,-2.4323,-2.378,-2.3603,-2.4234,-2.4509,-2.4794,-2.509,-2.5646,-2.6096,-2.634,-2.6394,-2.6551,-2.6743,-2.7083,-2.7295,-2.7365,-2.7763,-2.8169,-2.8517,-2.8287,-2.8316,-2.8665,-2.8394,-2.8314,-2.8284,-2.8025,-2.7943,-2.7965,-2.7556,-2.7335,-2.7196,-2.7055,-2.7003,-2.6937,-2.65,-2.6379,-2.6365,-2.6028,-2.592,-2.592,-2.615,-2.6418,-2.6698,-2.6788,-2.7026,-2.7159,-2.7055,-2.6951,-2.6899,-2.6832,-2.6779,-2.6779,-2.6779,-2.6779,-2.6779,-2.6779,-2.6779,-2.6846,-2.7003,-2.7003,-2.7093,-2.7437,-2.7437,-2.7437,-2.7575,-2.7625,-2.7575,-2.7488,-2.7575,-2.7575,-2.7488,-2.7575,-2.7625,-2.7625,-2.7625,-2.7524,-2.7401,-2.7284,-2.713,-2.7003,-2.6512,-2.6286,-2.6286,-2.5633,-2.5313,-2.5284,-2.4355,-2.392,0.0,0.0,0.0,0.0,0.0,0.0,0.0,-1.8601,-1.8768,-1.9028,-1.953,-1.9921,-1.9921,-2.054,-2.1104,-2.1219,-2.1881,-2.2405,-2.2518,-2.3111,-2.3522,-2.3522,-2.3569,-2.3628,-2.3628,-2.3628,-2.3628,-2.3628,-2.4073,-2.435,-2.435,-2.5231,-2.5797,-2.577,-2.64,-2.6645,-2.6637,-2.7383,-2.7851,-2.7968,-2.8679,-2.9116,-2.9345,-2.9226,-2.9282,-2.9385,-2.9391,-2.9456,-2.9426,-2.8958,-2.8786,-2.8742,-2.8173,-2.7912,-2.7758,-2.7247,-2.7144,-2.713,-2.6379,-2.6204,-2.6229,-2.5618,-2.5453,-2.5453,-2.5728,-2.6122,-2.6563,-2.6669,-2.7063,-2.735,-2.7144,-2.7055,-2.6951,-2.6846,-2.6832,-2.6779,-2.6779,-2.6779,-2.6779,-2.6779,-2.6779,-2.6832,-2.6951,-2.6951,-2.7055,-2.7299,-2.735,-2.7386,-2.7524,-2.7524,-2.7524,-2.7575,-2.7575,-2.7575,-2.7625,-2.7625,-2.7575,-2.7575,-2.7575,-2.7473,-2.735,-2.7233,-2.7093,-2.7003,-2.6899,-2.6779,-2.6779,-2.6242,-2.5981,-2.5966,-2.5487,-2.5125,-1.7841,-1.8275,-1.8518,-1.8435,-1.86,-1.8858,0.0,-1.9284,-1.9724,-1.9647,-2.025,-2.0792,-2.0617,-2.1054,-2.1629,-2.2083,-2.2485,-2.2904,-2.3403,-2.3662,-2.3832,-2.3832,-2.37,-2.3688,-2.3832,-2.3688,-2.3628,-2.3628,-2.4118,-2.4452,-2.4452,-2.4624,-2.4908,-2.5467,-2.5564,-2.5833,-2.6351,-2.7499,-2.8083,-2.8097,-2.8931,-2.9644,-3.0122,-2.9724,-2.9824,-3.0302,-2.9819,-2.9579,-2.9579,-2.9505,-2.9475,-2.946,-2.9385,-2.9355,-2.9167,-2.7832,-2.7299,-2.7181,-2.7078,-2.7063,-2.7063,-2.6959,-2.6959,-2.6959,-2.7115,-2.7233,-2.7284,-2.7423,-2.7423,-2.7401,-2.735,-2.7159,-2.7003,-2.7003,-2.6899,-2.6779,-2.6779,-2.6779,-2.6779,-2.6779,-2.6779,-2.6779,-2.6832,-2.6832,-2.6937,-2.7181,-2.7233,-2.7233,-2.7233,-2.7218,-2.7284,-2.7401,-2.7401,-2.7488,-2.7575,-2.7625,-2.7524,-2.7452,-2.7401,-2.7335,-2.7233,-2.7093,-2.7003,-2.7003,-2.6899,-2.6779,-2.6779,-2.6707,-2.6678,-2.6678,-2.6605,-2.5952,-1.8636,-1.8879,-1.8937,-1.9094,-1.9478,-1.9895,-1.9895,-2.0388,-2.0884,-2.103,-2.1601,-2.2044,-2.1923,-2.2347,-2.2812,-2.3044,-2.3174,-2.3359,-2.359,-2.376,-2.3891,-2.3891,-2.3878,-2.3936,-2.4008,-2.3936,-2.3878,-2.3878,-2.4041,-2.4157,-2.4157,-2.4465,-2.4842,-2.5378,-2.5796,-2.6258,-2.6735,-2.7635,-2.8107,-2.8222,-2.8955,-2.9516,-2.9865,-3.0032,-3.048,-3.1091,-3.0836,-3.0717,-3.0687,-3.0186,-3.0078,-3.0088,-2.9605,-2.9401,-2.9342,-2.8791,-2.8583,-2.853,-2.8287,-2.8302,-2.8477,-2.8233,-2.8233,-2.8281,-2.8017,-2.7966,-2.7928,-2.7679,-2.7575,-2.7423,-2.6997,-2.7026,-2.7041,-2.6553,-2.6621,-2.6779,-2.6779,-2.6779,-2.6779,-2.6779,-2.6779,-2.6779,-2.6779,-2.6779,-2.6832,-2.6937,-2.7041,-2.7093,-2.7181,-2.7181,-2.7233,-2.7284,-2.7284,-2.7284,-2.7372,-2.7372,-2.7335,-2.7284,-2.7284,-2.7284,-2.7181,-2.7093,-2.7003,-2.7003,-2.6899,-2.6779,-2.6779,-2.6779,-2.6779,-2.6779,-2.6779,-2.6489,-1.9073,-1.9397,-1.9555,-1.9794,-2.0446,-2.0978,-2.0978,-2.1472,-2.1938,-2.2201,-2.2742,-2.3141,-2.3084,-2.3476,-2.3747,-2.3747,-2.3747,-2.3747,-2.3747,-2.3878,-2.3949,-2.3949,-2.4067,-2.4112,-2.4112,-2.4112,-2.4112,-2.4112,-2.4008,-2.3949,-2.3949,-2.4319,-2.4744,-2.5296,-2.5964,-2.6546,-2.6969,-2.7827,-2.8239,-2.8352,-2.9044,-2.9407,-2.9504,-3.0208,-3.0777,-3.1219,-3.1409,-3.1482,-3.1437,-3.0902,-3.0693,-3.069,-3.0101,-2.9867,-2.9882,-2.9882,-2.9714,-2.9401,-2.9098,-2.9042,-2.8987,-2.8749,-2.8623,-2.8536,-2.8196,-2.8119,-2.8042,-2.7542,-2.735,-2.7202,-2.65,-2.651,-2.6683,-2.6258,-2.6394,-2.6621,-2.6779,-2.6779,-2.6779,-2.6779,-2.6779,-2.6779,-2.6779,-2.6779,-2.6779,-2.6779,-2.6899,-2.6989,-2.7093,-2.713,-2.713,-2.713,-2.7181,-2.7181,-2.7181,-2.7181,-2.7181,-2.7144,-2.713,-2.713,-2.7078,-2.7003,-2.6951,-2.6951,-2.6846,-2.6779,-2.6779,-2.6779,-2.6779,-2.6779,-2.6779,-2.6779,-1.8655,-1.9454,-2.0247,-2.0479,-2.1276,-2.1953,-2.1953,-2.2489,-2.2902,-2.2814,-2.345,-2.4028,-2.3865,-2.3995,-2.4054,-2.4054,-2.4054,-2.4054,-2.4054,-2.4112,-2.4112,-2.4112,-2.4112,-2.4112,-2.4112,-2.4112,-2.4112,-2.4112,-2.4112,-2.4112,-2.4112,-2.4112,-2.4374,-2.5009,-2.5559,-2.6136,-2.6738,-2.7913,-2.8454,-2.8481,-2.9142,-2.9504,-2.9504,-3.0208,-3.0524,-3.0584,-3.1219,-3.1482,-3.1482,-3.1452,-3.1452,-3.1437,-3.1291,-3.1218,-3.1218,-3.1218,-3.0359,-2.9098,-2.9222,-2.8805,-2.8154,-2.8154,-2.7794,-2.7371,-2.7357,-2.7488,-2.7507,-2.6905,-2.6736,-2.6596,-2.5992,-2.5728,-2.5728,-2.6176,-2.6204,-2.6233,-2.6674,-2.6779,-2.6779,-2.6779,-2.6779,-2.6779,-2.6779,-2.6779,-2.6779,-2.6779,-2.6779,-2.6779,-2.6779,-2.6951,-2.7003,-2.7003,-2.7144,-2.7181,-2.7181,-2.7181,-2.713,-2.7003,-2.7003,-2.6951,-2.6832,-2.6779,-2.6779,-2.6779,-2.6779,-2.6779,-2.6779,-2.6779,-2.6779,-2.6779,-2.6779,-2.6779,-1.8976,-1.9864,-2.0756,-2.0945,-2.1924,-2.2825,-2.2825,-2.328,-2.3696,-2.3651,-2.3712,-2.3725,-2.3738,-2.3738,-2.3794,-2.3794,-2.3966,-2.4112,-2.4112,-2.4112,-2.4112,-2.4112,-2.4112,-2.4112,-2.4112,-2.4112,-2.4112,-2.4112,-2.4112,-2.4112,-2.4112,-2.4112,-2.4557,-2.5511,-2.572,-2.6282,-2.7236,-2.7617,-2.7842,-2.7842,-2.8091,-2.8403,-2.8839,-2.9093,-2.9407,-2.9889,-3.0524,-3.0584,-3.0208,-3.0389,-3.0389,-3.0147,-2.978,-2.9718,-2.9766,-2.9766,-2.9313,-2.8825,-2.9516,-2.9323,-2.8703,-2.8608,-2.847,-2.8312,-2.7925,-2.7922,-2.7931,-2.7304,-2.6902,-2.6539,-2.5933,-2.5702,-2.5508,-2.5175,-2.5591,-2.6111,-2.6179,-2.65,-2.6779,-2.6779,-2.6779,-2.6779,-2.6779,-2.6447,-2.6233,-2.6233,-2.6553,-2.6779,-2.6779,-2.6846,-2.6899,-2.6899,-2.6884,-2.6937,-2.6937,-2.6937,-2.6937,-2.6899,-2.6899,-2.6846,-2.6779,-2.6779,-2.6779,-2.6779,-2.6779,-2.6779,-2.6779,-2.6779,-2.6779,-2.6779,-2.6779,-2.6779,-1.9371,-2.0144,-2.0974,-2.1193,-2.2229,-2.3154,-2.3154,-2.3651,-2.4112,-2.4112,-2.3629,-2.3282,-2.3282,-2.3164,-2.3071,-2.3071,-2.3482,-2.3778,-2.3874,-2.39,-2.3979,-2.4099,-2.4112,-2.4112,-2.4112,-2.4112,-2.4112,-2.4112,-2.4112,-2.4112,-2.4112,-2.4308,-2.4857,-2.5798,-2.602,-2.6582,-2.7523,-2.7523,-2.7523,-2.7523,-2.7523,-2.7723,-2.8157,-2.8417,-2.8725,-2.9205,-2.9827,-2.9889,-2.9504,-2.9704,-2.9642,-2.9393,-2.898,-2.8839,-2.8953,-2.8953,-2.857,-2.8298,-2.9268,-2.9079,-2.8441,-2.8325,-2.826,-2.8115,-2.7662,-2.7682,-2.7701,-2.7168,-2.6633,-2.6104,-2.5547,-2.5181,-2.4921,-2.4523,-2.4978,-2.5495,-2.5536,-2.5879,-2.6218,-2.6447,-2.65,-2.6553,-2.6779,-2.6286,-2.5839,-2.5605,-2.5934,-2.6326,-2.6727,-2.6779,-2.6779,-2.6779,-2.6779,-2.6779,-2.6779,-2.6779,-2.6779,-2.6779,-2.6779,-2.6779,-2.6779,-2.6779,-2.6779,-2.6779,-2.6779,-2.6779,-2.6779,-2.6779,-2.6779,-2.6779,-2.6779,-2.6779,-1.9813,-2.037,-2.081,-2.1212,-2.2175,-2.3088,-2.3088,-2.3577,-2.406,-2.4034,-2.3303,-2.2631,-2.2605,-2.2374,-2.2163,-2.2163,-2.2704,-2.3232,-2.3508,-2.3615,-2.3742,-2.4047,-2.4112,-2.4112,-2.4112,-2.4112,-2.4112,-2.4112,-2.4112,-2.4112,-2.4112,-2.4661,-2.5236,-2.5798,-2.6386,-2.6948,-2.7523,-2.7523,-2.7523,-2.7523,-2.7523,-2.7523,-2.7523,-2.8157,-2.8481,-2.8481,-2.9142,-2.9442,-2.938,-2.9282,-2.9233,-2.917,-2.8789,-2.8661,-2.8661,-2.8661,-2.8143,-2.755,-2.8403,-2.8143,-2.7484,-2.7484,-2.7095,-2.6714,-2.6714,-2.6807,-2.6909,-2.649,-2.5975,-2.5394,-2.4887,-2.4331,-2.3975,-2.4189,-2.4292,-2.4408,-2.4851,-2.4951,-2.5189,-2.5715,-2.5839,-2.6002,-2.6568,-2.6218,-2.566,-2.5063,-2.4951,-2.5412,-2.6553,-2.6727,-2.6727,-2.6727,-2.6727,-2.6727,-2.6727,-2.6779,-2.6779,-2.6779,-2.6779,-2.6779,-2.6779,-2.6779,-2.6727,-2.6727,-2.6727,-2.6727,-2.6727,-2.6727,-2.6727,-2.6727,-2.6727,-2.6727,-2.0378,-2.0852,-2.1153,-2.1125,-2.214,-2.3088,-2.3088,-2.3257,-2.3385,-2.3105,-2.2364,-2.1614,-2.1349,-2.1464,-2.1583,-2.1583,-2.2498,-2.3208,-2.331,-2.3717,-2.4,-2.4099,-2.4112,-2.4112,-2.4112,-2.4112,-2.4112,-2.4112,-2.4112,-2.4112,-2.4112,-2.4661,-2.5236,-2.5798,-2.6386,-2.6948,-2.7523,-2.7523,-2.7523,-2.7523,-2.7523,-2.7523,-2.7523,-2.7656,-2.7789,-2.7776,-2.8468,-2.8468,-2.8026,-2.8417,-2.8287,-2.7776,-2.7377,-2.7242,-2.7242,-2.7108,-2.6985,-2.6782,-2.6985,-2.6918,-2.6782,-2.6782,-2.6658,-2.6521,-2.6521,-2.6658,-2.6769,-2.6616,-2.6304,-2.5794,-2.5293,-2.4728,-2.4154,-2.3731,-2.3956,-2.4292,-2.435,-2.4681,-2.5077,-2.5189,-2.5245,-2.5133,-2.4865,-2.5021,-2.5021,-2.4408,-2.4738,-2.5133,-2.5412,-2.5467,-2.5646,-2.6056,-2.6111,-2.6111,-2.6111,-2.6553,-2.6621,-2.6165,-2.6553,-2.6779,-2.6779,-2.6394,-2.6111,-2.6111,-2.5701,-2.5467,-2.5467,-2.5879,-2.5879,-2.5467,-2.5934,-2.6111,-2.077,-2.0865,-2.0728,-2.0696,-2.1428,-2.2165,-2.2048,-2.2293,-2.2473,-2.2192,-2.1442,-2.0753,-2.0564,-2.0708,-2.0817,-2.0817,-2.1955,-2.287,-2.2984,-2.3523,-2.3927,-2.4086,-2.4112,-2.4112,-2.4112,-2.4112,-2.4112,-2.4112,-2.4112,-2.4112,-2.4112,-2.4896,-2.5484,-2.5811,-2.6621,-2.721,-2.7523,-2.7523,-2.7523,-2.7523,-2.7523,-2.7523,-2.7523,-2.7523,-2.7523,-2.7523,-2.7908,-2.7776,-2.7403,-2.7656,-2.7456,-2.6998,-2.6726,-2.6589,-2.6589,-2.6521,-2.6533,-2.6533,-2.6533,-2.6533,-2.6533,-2.6533,-2.6533,-2.6533,-2.6533,-2.6521,-2.6589,-2.6658,-2.6375,-2.5932,-2.5626,-2.495,-2.4213,-2.3786,-2.3735,-2.3767,-2.3662,-2.3943,-2.4279,-2.4567,-2.4851,-2.4794,-2.4176,-2.4408,-2.4394,-2.3767,-2.3943,-2.4163,-2.4163,-2.4667,-2.5133,-2.5481,-2.5481,-2.5481,-2.5481,-2.5825,-2.5879,-2.5536,-2.5811,-2.5988,-2.5988,-2.5701,-2.5481,-2.5481,-2.5189,-2.5007,-2.5007,-2.537,-2.5314,-2.5007,-2.537,-2.5481,-2.1163,-2.0814,-2.0205,-2.014,-2.059,-2.0954,-2.0742,-2.1138,-2.1442,-2.1304,-2.0598,-1.9989,-1.9991,-2.0004,-2.0002,-2.0028,-2.1213,-2.2288,-2.2671,-2.3188,-2.3659,-2.4047,-2.4112,-2.4112,-2.4112,-2.4112,-2.4112,-2.4112,-2.4178,-2.423,-2.423,-2.5236,-2.589,-2.6046,-2.7013,-2.7523,-2.7523,-2.7469,-2.7469,-2.7469,-2.7469,-2.7469,-2.7469,-2.7456,-2.7523,-2.7523,-2.7523,-2.7403,-2.7268,-2.7079,-2.6943,-2.6714,-2.6589,-2.6521,-2.6533,-2.6533,-2.6533,-2.6533,-2.6533,-2.6533,-2.6533,-2.6533,-2.6533,-2.6533,-2.6533,-2.6533,-2.6521,-2.6658,-2.6304,-2.5978,-2.5902,-2.5114,-2.4293,-2.4092,-2.3615,-2.3165,-2.309,-2.3078,-2.3245,-2.3826,-2.4394,-2.4567,-2.406,-2.406,-2.3884,-2.3198,-2.3198,-2.3198,-2.3138,-2.4047,-2.4781,-2.4851,-2.4908,-2.4908,-2.4908,-2.4951,-2.4951,-2.4908,-2.4951,-2.5007,-2.5007,-2.4894,-2.4908,-2.4908,-2.4781,-2.4724,-2.4724,-2.4851,-2.4838,-2.4724,-2.4851,-2.4908,-2.1801,-2.1432,-2.0764,-2.027,-2.0322,-2.0575,-2.0658,-2.0553,-2.037,-2.0202,-1.9749,-1.9266,-1.9004,-1.9167,-1.9446,-1.9713,-2.0577,-2.1515,-2.2378,-2.2913,-2.3502,-2.4047,-2.4112,-2.4112,-2.4112,-2.4112,-2.4112,-2.4112,-2.4557,-2.4818,-2.4818,-2.5458,-2.6255,-2.721,-2.7419,-2.7523,-2.7523,-2.7403,-2.7335,-2.7335,-2.7335,-2.7335,-2.7335,-2.7469,-2.7523,-2.7523,-2.7523,-2.7403,-2.7268,-2.7268,-2.6998,-2.6714,-2.6658,-2.6589,-2.6533,-2.6533,-2.6533,-2.6533,-2.6533,-2.6533,-2.6533,-2.6533,-2.6533,-2.6533,-2.6533,-2.6533,-2.6533,-2.6521,-2.6458,-2.6269,-2.5791,-2.5526,-2.5161,-2.4205,-2.3916,-2.3715,-2.3238,-2.3078,-2.3138,-2.3245,-2.3365,-2.3424,-2.3305,-2.3721,-2.3884,-2.3198,-2.3543,-2.3721,-2.3198,-2.3305,-2.3649,-2.4176,-2.4234,-2.4234,-2.4234,-2.4738,-2.4794,-2.4292,-2.4738,-2.5007,-2.5007,-2.4509,-2.4234,-2.4234,-2.3708,-2.3424,-2.3424,-2.4002,-2.3943,-2.3424,-2.4002,-2.4234,-2.1396,-2.106,-2.0451,-1.9887,-1.9835,-1.9791,-1.9436,-1.9218,-1.9043,-1.9022,-1.8838,-1.8695,-1.8754,-1.9009,-1.9225,-1.9318,-2.028,-2.1133,-2.1497,-2.2533,-2.3328,-2.3616,-2.3929,-2.4112,-2.4112,-2.4112,-2.4112,-2.4112,-2.4648,-2.5022,-2.5022,-2.5798,-2.6661,-2.7497,-2.7403,-2.7403,-2.7403,-2.7214,-2.7146,-2.7146,-2.7146,-2.7146,-2.7146,-2.7214,-2.7214,-2.7214,-2.7214,-2.7134,-2.6998,-2.6998,-2.6863,-2.6589,-2.6589,-2.6589,-2.6533,-2.6533,-2.6533,-2.6533,-2.6533,-2.6533,-2.6533,-2.6533,-2.6533,-2.6533,-2.6533,-2.6533,-2.6533,-2.6533,-2.6533,-2.6402,-2.6113,-2.5824,-2.5473,-2.4946,-2.4406,-2.3841,-2.3263,-2.3078,-2.3078,-2.3078,-2.3078,-2.3078,-2.3078,-2.3365,-2.3484,-2.3138,-2.3365,-2.3484,-2.3125,-2.3078,-2.3185,-2.3543,-2.3603,-2.3603,-2.3603,-2.3813,-2.3872,-2.3603,-2.3826,-2.3989,-2.3989,-2.3708,-2.3603,-2.3603,-2.3245,-2.3078,-2.3078,-2.3424,-2.3424,-2.3138,-2.3424,-2.3603,-2.0588,-2.0437,-1.9863,-1.9353,-1.9189,-1.8944,-1.8236,-1.8022,-1.7945,-1.7974,-1.8016,-1.8135,-1.85,-1.8763,-1.8893,-1.8864,-1.9782,-2.0558,-2.0696,-2.197,-2.2936,-2.3184,-2.3746,-2.4112,-2.4112,-2.4112,-2.4112,-2.4112,-2.4766,-2.521,-2.5389,-2.6295,-2.7066,-2.7456,-2.7335,-2.7268,-2.7214,-2.7011,-2.6943,-2.6943,-2.6943,-2.6943,-2.6943,-2.6943,-2.7024,-2.7024,-2.7024,-2.6875,-2.6714,-2.6714,-2.6589,-2.6533,-2.6533,-2.6533,-2.6533,-2.6533,-2.6533,-2.6533,-2.6533,-2.6533,-2.6533,-2.6533,-2.6533,-2.6533,-2.6533,-2.6533,-2.6533,-2.6533,-2.6533,-2.6533,-2.6533,-2.6126,-2.5749,-2.5624,-2.487,-2.4017,-2.3439,-2.3314,-2.3215,-2.3103,-2.3078,-2.3078,-2.3078,-2.3078,-2.3078,-2.3078,-2.3078,-2.3078,-2.3078,-2.3078,-2.3078,-2.3078,-2.3078,-2.3078,-2.3078,-2.3078,-2.3078,-2.3078,-2.3078,-2.3078,-2.3078,-2.3017,-2.3017,-2.3017,-2.3017,-2.3017,-2.3017,-2.3017,-2.3017,-2.3078,-2.3078,-2.3078,-1.9762,-1.9794,-1.9556,-1.8945,-1.8436,-1.8134,-1.8123,-1.7673,-1.7289,-1.7395,-1.7394,-1.7489,-1.7828,-1.7922,-1.8058,-1.8387,-1.8715,-1.9266,-2.0202,-2.1224,-2.2154,-2.3093,-2.3746,-2.4112,-2.4112,-2.4112,-2.4112,-2.4112,-2.5132,-2.5968,-2.6491,-2.7105,-2.7404,-2.7335,-2.7335,-2.7214,-2.7024,-2.6794,-2.6726,-2.6726,-2.6726,-2.6726,-2.6726,-2.6943,-2.7024,-2.7024,-2.7024,-2.6875,-2.6714,-2.6714,-2.6589,-2.6533,-2.6533,-2.6533,-2.6533,-2.6533,-2.6533,-2.6533,-2.6533,-2.6533,-2.6533,-2.6533,-2.6533,-2.6533,-2.6533,-2.6533,-2.6533,-2.6533,-2.6533,-2.6533,-2.6533,-2.6483,-2.6251,-2.5724,-2.5159,-2.4594,-2.4042,-2.3916,-2.3766,-2.3238,-2.3078,-2.3078,-2.3078,-2.3078,-2.3078,-2.3078,-2.3078,-2.3078,-2.3078,-2.3078,-2.3078,-2.3078,-2.3078,-2.3078,-2.3078,-2.3078,-2.3078,-2.3078,-2.2957,-2.2909,-2.2909,-2.28,-2.2739,-2.2739,-2.2739,-2.2739,-2.2739,-2.2739,-2.28,-2.2909,-2.2909,-2.2969,-1.8994,-1.9086,-1.897,-1.8408,-1.8027,-1.7678,-1.7345,-1.6963,-1.6749,-1.6905,-1.6951,-1.7047,-1.7393,-1.7598,-1.7706,-1.76,-1.8028,-1.8473,-1.8593,-1.9784,-2.0978,-2.1885,-2.2803,-2.3489,-2.4028,-2.4112,-2.4256,-2.4596,-2.5367,-2.6073,-2.6648,-2.7223,-2.7469,-2.7268,-2.7214,-2.7011,-2.6794,-2.6658,-2.6589,-2.6589,-2.6589,-2.6589,-2.6589,-2.6671,-2.6671,-2.6671,-2.6671,-2.6658,-2.6589,-2.6589,-2.6521,-2.6533,-2.6533,-2.6533,-2.6533,-2.6533,-2.6533,-2.6533,-2.6533,-2.6533,-2.6533,-2.6533,-2.6533,-2.6533,-2.6533,-2.6533,-2.6533,-2.6533,-2.6533,-2.6533,-2.6533,-2.6533,-2.6382,-2.5737,-2.5435,-2.5069,-2.4466,-2.4028,-2.3729,-2.3381,-2.3083,-2.2848,-2.2848,-2.2848,-2.2848,-2.2848,-2.2848,-2.2848,-2.2848,-2.2848,-2.2848,-2.2848,-2.2909,-2.3017,-2.3078,-2.2969,-2.2909,-2.2969,-2.2848,-2.28,-2.28,-2.2739,-2.269,-2.269,-2.269,-2.269,-2.269,-2.269,-2.2739,-2.28,-2.28,-2.28,-1.8054,-1.8222,-1.8196,-1.7868,-1.7578,-1.7252,-1.6807,-1.6524,-1.6394,-1.6492,-1.6466,-1.6552,-1.6892,-1.7131,-1.716,-1.6866,-1.7398,-1.7722,-1.739,-1.8589,-1.9775,-2.0654,-2.1639,-2.2578,-2.3541,-2.3761,-2.4038,-2.4667,-2.4882,-2.5294,-2.5957,-2.6365,-2.6806,-2.7268,-2.7079,-2.6875,-2.6714,-2.6589,-2.6533,-2.6533,-2.6533,-2.6533,-2.6533,-2.6533,-2.6533,-2.6533,-2.6533,-2.6533,-2.6533,-2.6533,-2.6533,-2.6533,-2.6533,-2.6533,-2.6533,-2.6533,-2.6533,-2.6533,-2.6533,-2.6533,-2.6533,-2.6533,-2.6533,-2.6533,-2.6533,-2.6533,-2.6533,-2.6533,-2.6533,-2.6533,-2.6533,-2.6533,-2.642,-2.595,-2.5782,-2.5578,-2.4896,-2.4422,-2.3986,-2.355,-2.3182,-2.2874,-2.2714,-2.269,-2.269,-2.269,-2.269,-2.269,-2.269,-2.269,-2.269,-2.269,-2.2739,-2.2787,-2.2969,-2.28,-2.2739,-2.286,-2.2678,-2.2616,-2.2616,-2.2555,-2.2567,-2.2567,-2.2567,-2.2567,-2.2567,-2.2567,-2.2555,-2.2616,-2.2616,-2.2616,-1.686,-1.7082,-1.7289,-1.7289,-1.7082,-1.6849,-1.6727,-1.6427,-1.6196,-1.6009,-1.5913,-1.5913,-1.6225,-1.6312,-1.6312,-1.6312,-1.665,-1.6939,-1.7024,-1.7827,-1.875,-1.9583,-2.0378,-2.1268,-2.2483,-2.2892,-2.3387,-2.3966,-2.3376,-2.3388,-2.4297,-2.4357,-2.5227,-2.7255,-2.7079,-2.6875,-2.6714,-2.6589,-2.6533,-2.6533,-2.6533,-2.6533,-2.6533,-2.6533,-2.6533,-2.6533,-2.6533,-2.6533,-2.6533,-2.6533,-2.6533,-2.6533,-2.6533,-2.6533,-2.6533,-2.6533,-2.6533,-2.6533,-2.6533,-2.6533,-2.6533,-2.6533,-2.6533,-2.6533,-2.6533,-2.6533,-2.6533,-2.6533,-2.6533,-2.6533,-2.6533,-2.6533,-2.6533,-2.6521,-2.6327,-2.6039,-2.54,-2.5142,-2.4767,-2.3698,-2.3489,-2.3317,-2.2776,-2.269,-2.269,-2.269,-2.269,-2.269,-2.269,-2.269,-2.269,-2.269,-2.2555,-2.2482,-2.269,-2.269,-2.269,-2.269,-2.2482,-2.242,-2.242,-2.2247,-2.2197,-2.2197,-2.2197,-2.2197,-2.2197,-2.2197,-2.2247,-2.242,-2.242,-2.2494,-1.6615,-1.6701,-1.6773,-1.6773,-1.6564,-1.64,-1.6382,-1.6138,-1.5894,-1.586,-1.5836,-1.5836,-1.5957,-1.6151,-1.6238,-1.5988,-1.625,-1.6511,-1.6568,-1.7015,-1.7891,-1.9426,-2.0737,-2.1632,-2.1886,-2.2005,-2.2173,-2.2354,-2.2575,-2.2793,-2.306,-2.3416,-2.4145,-2.531,-2.5276,-2.5134,-2.4909,-2.5441,-2.5676,-2.5664,-2.6245,-2.6245,-2.5676,-2.5676,-2.5676,-2.5676,-2.5676,-2.5898,-2.627,-2.627,-2.627,-2.627,-2.627,-2.6037,-2.5746,-2.6314,-2.6164,-2.5746,-2.6314,-2.6533,-2.6465,-2.6339,-2.627,-2.627,-2.6119,-2.6245,-2.6533,-2.6533,-2.6533,-2.6533,-2.6533,-2.6533,-2.6465,-2.6339,-2.627,-2.6082,-2.5607,-2.5208,-2.4786,-2.4299,-2.3656,-2.3123,-2.2941,-2.2625,-2.2371,-2.2371,-2.2371,-2.2371,-2.2371,-2.2371,-2.2371,-2.2371,-2.2309,-2.2371,-2.269,-2.2506,-2.2371,-2.2482,-2.2371,-2.2247,-2.2247,-2.2185,-2.2197,-2.2197,-2.2197,-2.2197,-2.2197,-2.2197,-2.2185,-2.2247,-2.2247,-2.2503,-1.6332,-1.6451,-1.6489,-1.6462,-1.6282,-1.6103,-1.6056,-1.5845,-1.5703,-1.5703,-1.5703,-1.5703,-1.5703,-1.5856,-1.5932,-1.5736,-1.5856,-1.607,-1.6244,-1.6334,-1.7023,-1.8646,-2.0216,-2.1198,-2.1125,-2.1186,-2.1227,-2.1227,-2.1335,-2.1467,-2.1529,-2.189,-2.2297,-2.2883,-2.3546,-2.3921,-2.3976,-2.4425,-2.4673,-2.4862,-2.5358,-2.5358,-2.4862,-2.4862,-2.4862,-2.4862,-2.4791,-2.5016,0.0,-2.5229,-2.5241,-2.5312,-2.5229,-2.4933,-2.4707,-2.5205,-2.5063,-2.4707,-2.5205,-2.5346,-2.5358,-2.5229,-2.5158,-2.5158,-2.5016,-2.5594,-2.6258,-2.6258,-2.6258,-2.6258,-2.6258,-2.6258,-2.6258,-2.6131,-2.605,-2.591,-2.5676,-2.5269,-2.4909,-2.4554,-2.4001,-2.3436,-2.3051,-2.2702,-2.2426,-2.2221,-2.2197,-2.2197,-2.2197,-2.2197,-2.2197,-2.2197,-2.2197,-2.2247,-2.2506,-2.2309,-2.2247,-2.2309,-2.2247,-2.2197,-2.2197,-2.2197,-2.2197,-2.2197,-2.2197,-2.2197,-2.2197,-2.239,-2.2486,-2.2498,-2.2702,-2.2967,0.0,-1.6286,-1.6398,-1.6332,-1.6164,-1.5939,-1.582,-1.5637,0.0,-1.5513,-1.5513,-1.5513,-1.5513,-1.5513,-1.5513,-1.5513,-1.5513,-1.5611,-1.5973,-1.599,-1.6407,-1.7457,-1.9044,-2.0093,-2.0205,-2.0385,-2.0462,-2.0462,-1.9911,-1.9663,-1.9902,-1.9933,-2.0042,-2.0317,-2.1878,-2.2958,-2.3433,-2.3386,-2.3557,-2.3933,-2.4005,-2.4005,-2.3933,-2.3933,-2.3933,-2.3861,-2.375,-2.3761,-2.399,-2.3649,-2.3588,-2.3745,-2.3526,-2.3441,-2.3441,-2.3514,-2.3441,-2.3441,-2.3514,-2.3514,-2.3514,-2.3514,-2.3441,-2.3441,-2.3441,-2.4492,-2.5758,-2.5828,-2.5758,-2.5758,-2.5828,-2.5828,-2.5828,-2.5828,-2.5688,-2.5535,-2.5535,-2.5312,-2.5015,-2.4455,-2.4336,-2.4002,-2.3114,-2.2922,-2.2719,-2.2193,-2.2121,-2.2171,-2.2135,-2.2123,-2.2123,-2.2185,-2.2123,-2.2123,-2.2197,-2.2197,-2.2197,-2.2197,-2.2197,-2.2197,-2.2197,-2.2197,-2.2197,-2.2197,-2.2197,-2.2209,-2.2246,-2.2751,-2.3003,-2.3051,-2.3544,-2.3797,-1.561,0.0,-1.5729,-1.5695,-1.5648,-1.5599,0.0,-1.5506,-1.5513,-1.5513,-1.5513,-1.5513,-1.5513,-1.5513,-1.5513,-1.5513,-1.5513,-1.5694,-1.6238,-1.7136,-1.7733,-1.7669,-1.8733,-1.9489,-1.9413,-1.9444,-1.9452,-1.9452,-1.933,-1.925,-1.9297,-1.9308,-1.9349,-1.9385,-1.9779,-2.0364,-2.1197,-2.1772,-2.2107,-2.2218,-2.2834,-2.2764,-2.2229,-2.2229,-2.2136,-2.1996,-2.2258,-2.2628,-2.2999,-2.3212,-2.3294,-2.3368,-2.3294,-2.301,-2.2723,-2.3305,-2.3158,-2.2723,-2.3294,-2.3514,-2.3441,-2.3294,-2.3231,-2.3095,-2.3095,-2.3537,-2.4192,-2.4791,-2.4564,-2.4192,-2.4791,-2.5004,-2.4933,-2.4791,-2.4707,-2.4636,-2.4492,-2.3975,-2.3503,-2.3391,-2.2994,-2.267,-2.2447,-2.2021,-2.1609,-2.1108,-2.1513,-2.1777,-2.1383,-2.1336,-2.1588,-2.2123,-2.1726,-2.1588,-2.2123,-2.2197,-2.2197,-2.2197,-2.2197,-2.2197,-2.2197,-2.2197,-2.2197,-2.2197,-2.2197,-2.239,-2.2799,-2.2919,-2.3183,-2.3592,-2.3713,-2.3977,-1.5334,-1.5424,-1.5468,-1.5435,-1.539,-1.539,-1.5334,0.0,-1.5334,-1.5334,0.0,-1.5334,-1.5334,-1.5334,-1.5334,-1.5334,-1.5395,-1.5677,-1.6372,-1.729,-1.797,-1.7934,-1.8585,-1.9099,-1.911,-1.9075,-1.9075,-1.9075,-1.9075,-1.9075,-1.9075,-1.9008,-1.8942,-1.8942,-1.8875,-1.9203,-2.012,-2.054,-2.0845,-2.1047,-2.1457,-2.1457,-2.1058,-2.0998,-2.0917,-2.0776,-2.0895,-2.1062,-2.1349,-2.1386,-2.1534,-2.1797,-2.1723,-2.1634,-2.1614,-2.2048,-2.1897,-2.1614,-2.2048,-2.2199,-2.2113,-2.2038,-2.1973,-2.1907,-2.1907,-2.2048,-2.2414,-2.361,-2.361,-2.339,-2.3829,-2.3902,-2.3902,-2.3756,-2.3756,-2.3756,-2.361,-2.3243,-2.3032,-2.3032,-2.275,-2.2499,-2.2208,-2.1958,-2.155,-2.0993,-2.1083,-2.1041,-2.0698,-2.0466,-2.0526,-2.0933,-2.059,-2.0526,-2.0921,-2.0985,-2.1325,-2.2123,-2.2197,-2.2197,-2.2197,-2.2197,-2.2197,-2.2197,-2.2426,-2.2702,-2.2979,-2.346,-2.3833,-2.4121,-2.4362,-2.4614,-1.5062,-1.5211,-1.5336,-1.5278,-1.5267,-1.5255,-1.5108,0.0,0.0,0.0,0.0,0.0,-1.5108,-1.5062,-1.5062,-1.5062,-1.5224,-1.5653,-1.6385,-1.7003,-1.7582,-1.811,-1.8596,-1.8889,-1.91,-1.9075,-1.9075,-1.9075,-1.9075,-1.9065,-1.9065,-1.8875,-1.8741,-1.8741,-1.8617,-1.8866,-1.9586,-1.9586,-1.9782,-2.0082,-2.0082,-2.0082,-2.0082,-2.0022,-1.9961,-1.99,-1.9583,-1.9531,-1.9685,-1.9403,-1.9566,-2.0029,-1.9889,-2.0078,-2.0469,-2.0469,-2.0508,-2.0566,-2.0566,-2.0566,-2.0566,-2.0566,-2.0566,-2.0566,-2.0566,-2.0566,-2.0867,-2.2209,-2.2585,-2.266,-2.2734,-2.2809,-2.2734,-2.2723,-2.2723,-2.2723,-2.2723,-2.2574,-2.251,-2.251,-2.251,-2.2371,-2.1912,-2.1837,-2.1605,-2.0934,-2.0652,-2.0323,-1.996,-1.9681,-1.9473,-1.9475,-1.9399,-1.941,-1.9465,-1.9465,-2.0128,-2.1663,-2.1788,-2.1788,-2.1788,-2.1788,-2.1862,-2.1987,-2.25,-2.2874,-2.3099,-2.4061,-2.4554,-2.465,-2.5107,-2.5312,-1.4926,-1.4788,-1.4709,-1.5074,-1.5108,-1.5108,-1.5108,-1.5108,0.0,0.0,0.0,-1.5108,-1.5108,-1.5006,-1.4949,-1.4949,-1.5165,-1.5574,-1.6406,-1.7044,-1.7637,-1.8099,-1.8682,-1.9058,-1.9131,-1.9075,-1.9075,-1.9075,-1.8942,-1.8875,-1.8875,-1.8684,-1.8549,-1.8549,-1.8549,-1.858,-1.8718,-1.8718,-1.8748,-1.8819,-1.8819,-1.8819,-1.8819,-1.8751,-1.8682,-1.8634,-1.8924,-1.8942,-1.8831,-1.9131,-1.9326,-1.9458,-1.9385,-1.9639,-2.0019,-2.0019,-2.0244,-2.0566,-2.0566,-2.0566,-2.0566,-2.0566,-2.0566,-2.0566,-2.0566,-2.0566,-2.0644,-2.0722,-2.0867,-2.1088,-2.1614,-2.1766,-2.168,-2.1441,-2.1364,-2.1364,-2.1364,-2.0837,-2.0391,-2.0391,-2.0391,-2.0372,-2.0236,-2.0217,-2.0082,-1.9667,-2.0044,-2.007,-1.9383,-1.9221,-1.9233,-1.9507,-1.9023,-1.889,-1.9465,-1.9465,-1.9607,-1.9933,-1.9933,-1.9933,-1.9933,-1.9933,-2.0257,-2.1049,-2.1594,-2.2406,-2.3652,-2.423,-2.4747,-2.5192,-2.5264,-2.5312,-1.4846,-1.462,-1.4355,-1.4462,-1.4461,-1.4333,-1.4163,-1.4113,-1.4151,0.0,-1.427,-1.4398,-1.4592,-1.4664,-1.4871,-1.5232,-1.5275,-1.5669,-1.6628,-1.6929,-1.7315,-1.815,-1.8513,-1.8674,-1.8787,-1.8808,-1.8808,-1.8808,-1.8674,-1.8617,-1.8617,-1.8472,-1.8405,-1.8405,-1.8279,-1.8212,-1.8212,-1.8212,-1.8347,-1.8482,-1.8482,-1.8482,-1.8482,-1.8414,-1.8337,-1.8279,-1.835,-1.836,-1.8311,-1.8516,-1.873,-1.8936,-1.8936,-1.9127,-1.9461,-1.9543,-1.9669,-1.9957,-2.0178,-2.0255,-2.0255,-2.0255,-2.0255,-2.0255,-2.0255,-2.0255,-2.0177,-2.0098,-2.0255,-2.0489,-2.0634,-2.0624,-2.0624,-2.0469,-2.0459,-2.0459,-2.0459,-2.0167,-1.9863,-1.9863,-1.9863,-1.9863,-1.9863,-1.9863,-1.9806,-1.954,-1.9345,-1.912,-1.859,-1.8203,-1.7977,-1.8114,-1.7833,-1.7765,-1.8094,-1.8094,-1.8489,-1.9465,-1.9465,-1.9465,-1.9465,-1.9465,-1.9727,-2.0128,-2.0654,-2.1341,-2.2264,-2.275,-2.3247,-2.3672,-2.4047,-2.4204,-1.4488,-1.4168,-1.3779,-1.3641,-1.3696,-1.3661,-1.3346,-1.3318,-1.3355,-1.3449,-1.3513,-1.3691,-1.3924,-1.4241,-1.4644,-1.5233,-1.5144,-1.5464,-1.6577,-1.6634,-1.6958,-1.8002,-1.8199,-1.8226,-1.8217,-1.8238,-1.8278,-1.8378,-1.8322,-1.8372,-1.8472,-1.8337,-1.8212,-1.8212,-1.8076,-1.8008,-1.8008,-1.8008,-1.8144,-1.8414,-1.8414,-1.8414,-1.8414,-1.8269,-1.8202,-1.8134,-1.7998,-1.794,-1.7872,-1.7872,-1.8065,-1.8346,-1.8346,-1.8547,-1.8835,-1.9107,-1.9184,-1.9222,-1.9544,-1.9714,-1.9722,-1.9722,-1.9788,-1.9863,-1.9863,-1.9863,-1.9863,-1.9863,-1.9951,-2.0108,-1.9863,-1.9872,-1.9784,-1.9784,-1.9784,-1.9784,-1.9784,-1.9784,-1.9784,-1.9784,-1.9784,-1.9784,-1.9784,-1.9784,-1.9678,-1.9437,-1.888,-1.8332,-1.7999,-1.7431,-1.7009,-1.6917,-1.6908,-1.6908,-1.6908,-1.6908,-1.7501,-1.8813,-1.888,-1.888,-1.888,-1.888,-1.9013,-1.9201,-1.9718,-2.0265,-2.0743,-2.1389,-2.1869,-2.2158,-2.2807,-2.3095,-1.3563,-1.3214,-1.265,-1.2452,-1.3024,-1.3569,-1.333,-1.3418,-1.3462,-1.3324,-1.3346,-1.333,-1.3345,-1.3791,-1.4225,-1.4424,-1.4391,-1.4715,-1.5902,-1.6053,-1.6469,-1.7546,-1.78,-1.7779,-1.7415,-1.7375,-1.7536,-1.794,-1.7785,-1.7833,-1.8317,-1.8144,-1.8008,-1.8008,-1.8008,-1.8008,-1.8008,-1.8008,-1.8008,-1.8008,-1.8008,-1.8008,-1.8008,-1.8008,-1.793,-1.7706,-1.7706,-1.7647,-1.7539,-1.7539,-1.7558,-1.7586,-1.7586,-1.7834,-1.8242,-1.8578,-1.873,-1.8739,-1.8767,-1.9042,-1.9373,-1.9373,-1.9639,-1.9863,-1.9863,-1.9863,-1.9863,-1.9636,-1.9645,-1.9645,-1.9645,-1.9645,-1.9557,-1.9381,-1.9301,-1.9301,-1.9301,-1.9301,-1.9301,-1.9301,-1.9301,-1.9301,-1.9301,-1.9301,-1.9173,-1.8806,-1.8705,-1.8394,-1.7642,-1.7486,-1.7312,-1.6945,-1.6908,-1.6908,-1.6908,-1.6908,-1.6978,-1.7107,-1.7107,-1.7107,-1.7107,-1.7107,-1.7491,-1.8267,-1.8784,-1.951,-2.0343,-2.124,-2.1688,-2.1731,-2.219,-2.2403,-1.2967,-1.2626,-1.2262,-1.2096,-1.2155,0.0,0.0,-1.2061,-1.2059,-1.202,-1.2045,-1.2222,-1.2635,-1.3086,-1.3414,-1.3507,-1.3738,-1.4109,-1.4716,-1.4876,-1.5301,-1.621,-1.6278,-1.6303,-1.6327,-1.6337,-1.6401,-1.6547,-1.6193,-1.6373,-1.7207,-1.6419,-1.6255,-1.6932,-1.6515,-1.6228,-1.6228,-1.6228,-1.6228,-1.6298,-1.7442,-1.8008,-1.8008,-1.7862,-1.7784,-1.7706,-1.7588,-1.7529,-1.747,-1.747,-1.747,-1.747,-1.7392,-1.7408,-1.7596,-1.7856,-1.7788,-1.7606,-1.7852,-1.7893,-1.7877,-1.7877,-1.7975,-1.8136,-1.8309,-1.8389,-1.8433,-1.8612,-1.8603,-1.8754,-1.9231,-1.924,-1.9011,-1.8922,-1.8674,-1.8514,-1.8514,-1.8514,-1.8514,-1.8514,-1.8514,-1.8514,-1.8514,-1.8514,-1.8382,-1.7995,-1.7731,-1.7389,-1.6852,-1.6634,-1.6351,-1.6202,-1.6193,-1.6193,-1.6193,-1.6193,-1.6193,-1.6193,-1.6621,-1.6908,-1.6908,-1.6908,-1.7038,-1.7354,-1.7593,-1.8002,-1.8594,-1.8916,-1.9209,-1.9482,-2.0018,-2.0236,-1.2236,-1.198,-1.1705,-1.1553,0.0,0.0,-1.0902,-1.1093,-1.1263,-1.1172,-1.1248,-1.1485,-1.211,-1.248,-1.2664,-1.2671,-1.3026,-1.3421,-1.3711,-1.3923,-1.4377,-1.508,-1.5128,-1.5104,-1.5101,-1.511,-1.516,-1.5339,-1.5043,-1.5197,-1.6079,-1.535,-1.5186,-1.5939,-1.5376,-1.5084,-1.5084,-1.5084,-1.5084,-1.5084,-1.6446,-1.7157,-1.7079,-1.7001,-1.6862,-1.6793,-1.6742,-1.6603,-1.6455,-1.6533,-1.6603,-1.6533,-1.6376,-1.6306,-1.6412,-1.6394,-1.6275,-1.6093,-1.6348,-1.6295,-1.6255,-1.6255,-1.633,-1.6471,-1.6729,-1.6804,-1.6854,-1.7033,-1.71,-1.7259,-1.7883,-1.8241,-1.8451,-1.8451,-1.8201,-1.804,-1.804,-1.804,-1.804,-1.804,-1.7937,-1.786,-1.786,-1.7757,-1.7552,-1.7175,-1.6901,-1.6602,-1.6289,-1.5996,-1.5833,-1.5833,-1.5833,-1.5833,-1.5833,-1.5833,-1.5833,-1.5833,-1.6263,-1.6621,-1.67,-1.6621,-1.6621,-1.67,-1.6621,-1.6677,-1.6938,-1.7072,-1.7279,-1.7566,-1.811,-1.8378,-1.1377,-1.1175,-1.0859,-1.067,-1.0593,-1.0549,-1.0258,-1.0821,-1.1307,-1.1119,-1.1052,-1.1218,-1.1889,-1.2001,-1.2012,-1.1958,-1.2231,-1.2638,-1.2996,-1.3401,-1.3816,-1.4413,-1.4481,-1.4342,-1.3933,-1.39,-1.4047,-1.4457,-1.4481,-1.4706,-1.5147,-1.5155,-1.5155,-1.5163,-1.5013,-1.4863,-1.4863,-1.4863,-1.4863,-1.4863,-1.5092,-1.5163,-1.5234,-1.5234,-1.51,-1.4903,-1.4903,-1.4681,-1.4307,-1.453,-1.4601,-1.4601,-1.4378,-1.445,-1.453,-1.4155,-1.4155,-1.4227,-1.4083,-1.4233,-1.4597,-1.4597,-1.482,-1.5165,-1.5165,-1.5165,-1.5165,-1.5173,-1.5173,-1.5173,-1.5173,-1.6569,-1.7942,-1.7951,-1.7942,-1.7942,-1.7942,-1.7942,-1.7942,-1.7942,-1.7723,-1.7466,-1.7466,-1.7226,-1.6848,-1.6405,-1.6353,-1.6208,-1.5814,-1.5762,-1.5762,-1.5762,-1.5762,-1.5762,-1.5762,-1.5762,-1.5762,-1.5762,-1.5762,-1.5903,-1.6272,-1.5982,-1.5982,-1.6272,-1.5982,-1.5833,-1.5833,-1.6229,-1.6418,-1.6426,-1.6796,-1.6968,-1.0922,-1.0759,-1.0589,-1.0468,-1.0384,-1.0293,-1.0234,-1.0387,-1.0562,-1.0537,-1.0544,-1.0567,-1.0744,-1.1005,-1.1055,-1.0669,-1.1094,-1.148,-1.1519,-1.1703,-1.2047,-1.2683,-1.2685,-1.2671,-1.2735,-1.2742,-1.2856,-1.3165,-1.2891,-1.3119,-1.4163,-1.3236,-1.2999,-1.3795,-1.3077,-1.2638,-1.2638,-1.2638,-1.2638,-1.2638,-1.2712,-1.3578,-1.5234,-1.5029,-1.4895,-1.4673,-1.453,-1.4307,-1.4083,-1.4155,-1.4155,-1.4155,-1.4083,-1.4155,-1.4155,-1.4011,-1.3875,-1.3745,-1.3665,-1.3521,-1.3395,-1.3395,-1.3453,-1.3643,-1.3852,-1.3918,-1.3968,-1.4193,-1.4258,-1.4258,-1.4258,-1.4717,-1.5181,-1.5497,-1.5339,-1.5102,-1.5102,-1.5102,-1.5102,-1.5102,-1.5349,-1.5599,-1.5599,-1.5513,-1.5325,-1.4981,-1.4926,-1.4949,-1.496,-1.4991,-1.4991,-1.4991,-1.4991,-1.4991,-1.4991,-1.4991,-1.4991,-1.4991,-1.4991,-1.5275,-1.5903,-1.5833,-1.5833,-1.5982,-1.5833,-1.5833,-1.5833,-1.5953,-1.6014,-1.6014,-1.6117,-1.6168,-1.0525,-1.0431,-1.0348,-1.0187,-1.0075,-1.0012,-0.9946,-1.0034,-1.0148,-1.0199,-1.0174,-1.0186,-1.0197,-1.0372,-1.0368,-1.0066,-1.0425,-1.0829,-1.091,-1.1045,-1.1346,-1.1803,-1.178,-1.1814,-1.2063,-1.2077,-1.2077,-1.2224,-1.1992,-1.2184,-1.2938,-1.2131,-1.1972,-1.2572,-1.1922,-1.1558,-1.1558,-1.1558,-1.1558,-1.1558,-1.1632,-1.2425,-1.3795,-1.3665,-1.3593,-1.3448,-1.3222,-1.3142,-1.3077,-1.2997,-1.2997,-1.3077,-1.2997,-1.2997,-1.307,-1.2924,-1.2792,-1.2652,-1.2579,-1.2365,-1.215,-1.215,-1.215,-1.2183,-1.2423,-1.2401,-1.2434,-1.2612,-1.2582,-1.2582,-1.2582,-1.2582,-1.2872,-1.4044,-1.4109,-1.3874,-1.3874,-1.3874,-1.3874,-1.3874,-1.4086,-1.4238,-1.4238,-1.4143,-1.3996,-1.3799,-1.3688,-1.3615,-1.3717,-1.3695,-1.3695,-1.3695,-1.3695,-1.3695,-1.3695,-1.3695,-1.3695,-1.3768,-1.384,-1.4194,-1.4974,-1.5196,-1.5409,-1.5551,-1.5409,-1.5338,-1.5338,-1.5338,-1.5338,-1.5338,-1.5338,-1.5338,-1.0147,-1.0155,-1.0122,-0.986,-0.9768,-0.9612,-0.9424,-0.96,-0.9856,-0.9983,-0.9983,-0.9983,-0.9983,-0.9983,-0.9983,-0.9989,-1.0204,-1.053,-1.0735,-1.1013,-1.1291,-1.1563,-1.1613,-1.1632,-1.1632,-1.1632,-1.1632,-1.1706,-1.1706,-1.1706,-1.1706,-1.1706,-1.1632,-1.1632,-1.1484,-1.1335,-1.1335,-1.1335,-1.1335,-1.1335,-1.1484,-1.1632,-1.1632,-1.1706,-1.1706,-1.1632,-1.1409,-1.1409,-1.1558,-1.1409,-1.1409,-1.1558,-1.1409,-1.1409,-1.1558,-1.1186,-1.1186,-1.126,-1.1111,-1.1037,-1.1037,-1.1037,-1.1037,-1.1037,-1.1037,-1.0887,-1.0738,-1.0738,-1.0663,-1.0513,-1.0513,-1.0513,-1.1006,-1.3115,-1.3556,-1.3556,-1.3556,-1.3556,-1.3556,-1.3556,-1.3404,-1.3216,-1.3216,-1.2993,-1.2753,-1.2753,-1.2599,-1.2452,-1.2298,-1.2305,-1.2305,-1.2305,-1.2305,-1.2305,-1.2305,-1.2305,-1.2378,-1.2526,-1.2599,-1.2886,-1.3615,-1.4201,-1.4705,-1.5133,-1.4784,-1.4569,-1.4569,-1.4569,-1.4569,-1.4569,-1.4569,-1.4569,-0.9474,-0.9674,-0.9894,-0.9838,-0.9283,-0.8745,-0.8549,-0.856,-0.8818,-0.967,-0.9868,-0.9868,-0.9868,-0.9926,-0.9919,-0.967,-0.979,-0.9984,-1.0117,-1.0317,-1.0578,-1.0846,-1.1132,-1.126,-1.126,-1.126,-1.126,-1.1484,-1.1484,-1.1558,-1.1706,-1.1558,-1.1409,-1.126,-1.1037,-1.0962,-1.0962,-1.0738,-1.0887,-1.1186,-1.0887,-1.0812,-1.1037,-1.1484,-1.1558,-1.1186,-1.1037,-1.0887,-1.0738,-1.0738,-1.0738,-1.0738,-1.0738,-1.0738,-1.0738,-1.0663,-1.0663,-1.0663,-1.0663,-1.0663,-1.0663,-1.0663,-1.0663,-1.0663,-1.0663,-1.0594,-1.0588,-1.0588,-1.0513,-1.0513,-1.0513,-1.0513,-1.0617,-1.1099,-1.1199,-1.1199,-1.1199,-1.1199,-1.1199,-1.1199,-1.1533,-1.1864,-1.1864,-1.1745,-1.1706,-1.1706,-1.1706,-1.1781,-1.2224,-1.2305,-1.2305,-1.2305,-1.2305,-1.2305,-1.2305,-1.2305,-1.2298,-1.2378,-1.2378,-1.2452,-1.2592,-1.347,-1.4194,-1.4713,-1.4641,-1.4569,-1.4569,-1.4569,-1.4569,-1.4569,-1.4569,-1.4569,-0.8488,-0.8586,-0.8679,-0.8493,-0.8068,-0.7707,-0.7582,-0.7577,-0.7707,-0.8296,-0.8952,-0.921,-0.856,-0.8748,-0.8877,-0.8361,-0.8366,-0.8445,-0.8606,-0.8743,-0.9152,-0.9868,-1.0025,-1.0296,-1.0801,-1.0812,-1.0887,-1.0962,-1.0962,-1.1037,-1.1111,-1.1037,-1.0887,-1.0812,-1.0738,-1.0663,-1.0663,-1.0513,-1.0588,-1.0812,-1.0594,-1.0363,-1.0132,-1.0807,-1.1037,-1.0812,-1.0663,-1.0594,-1.0513,-1.0513,-1.0513,-1.0513,-1.0513,-1.0513,-1.0513,-1.0513,-1.0513,-1.0513,-1.0513,-1.0513,-1.0513,-1.0513,-1.0513,-1.0438,-1.0293,-1.0143,-1.0067,-0.9836,-0.9679,-0.9609,-0.9609,-0.9609,-0.9609,-0.9609,-1.0062,-1.0513,-1.0513,-1.0513,-1.0513,-1.0513,-1.0738,-1.0962,-1.0962,-1.0962,-1.0962,-1.0812,-1.0812,-1.0887,-1.1111,-1.1186,-1.1186,-1.1186,-1.1186,-1.1186,-1.1186,-1.1186,-1.1186,-1.126,-1.126,-1.1484,-1.1855,-1.2365,-1.2952,-1.347,-1.347,-1.347,-1.347,-1.3622,-1.3615,-1.3615,-1.3768,-1.3775,-0.7596,-0.7527,-0.738,-0.6828,-0.6588,-0.6527,-0.6593,-0.6597,-0.6531,-0.6465,-0.7642,-0.8296,-0.712,-0.7377,-0.7637,-0.699,-0.6924,-0.6977,-0.7203,-0.7256,-0.767,-0.8657,-0.8804,-0.9134,-0.9889,-0.9991,-1.0013,-0.9895,-0.99,-0.9976,-0.9976,-0.9976,-0.9976,-1.0056,-1.0056,-1.0056,-1.0056,-0.9981,-0.9981,-1.0056,-1.0056,-0.9674,-0.8993,-0.9679,-0.9981,-1.0056,-1.0056,-0.9981,-0.9981,-0.9981,-0.9981,-0.9981,-0.99,-0.9825,-0.9825,-0.975,-0.975,-0.975,-0.975,-0.975,-0.975,-0.975,-0.975,-0.975,-0.9533,-0.9387,-0.916,-0.8846,-0.8618,-0.847,-0.847,-0.847,-0.8546,-0.8703,-0.9458,-1.0212,-1.0293,-1.0293,-1.0293,-1.0368,-1.0363,-1.0368,-1.0293,-1.0368,-1.0368,-1.0143,-1.0143,-1.0067,-0.9916,-0.9922,-0.9922,-0.9922,-0.9922,-0.9922,-0.9922,-0.9922,-0.9997,-1.0143,-1.0143,-1.0443,-1.1111,-1.1111,-1.1409,-1.1855,-1.2157,-1.2305,-1.2305,-1.2452,-1.2526,-1.2526,-1.2746,-1.282,-0.7193,-0.7061,-0.6818,-0.6132,-0.5522,-0.513,-0.5269,-0.5342,-0.5219,-0.4761,-0.6009,-0.712,-0.6924,-0.699,-0.699,-0.6924,-0.6924,-0.6933,-0.6959,-0.7172,-0.7364,-0.7555,-0.771,-0.7816,-0.7707,-0.8033,-0.7961,-0.7347,-0.7588,-0.7821,-0.7821,-0.7821,-0.7901,-0.8143,-0.8143,-0.8143,-0.8143,-0.7995,-0.8075,-0.8385,-0.8223,-0.799,-0.777,-0.7846,-0.7995,-0.8143,-0.8143,-0.8067,-0.7923,-0.7923,-0.7923,-0.7842,-0.7456,-0.7298,-0.7222,-0.6915,-0.6758,-0.6758,-0.6758,-0.6758,-0.6758,-0.6758,-0.6758,-0.6915,-0.7613,-0.777,-0.777,-0.7693,-0.7693,-0.7693,-0.7693,-0.7693,-0.7846,-0.8546,-0.8856,-0.9008,-0.9392,-0.9473,-0.9544,-0.9922,-0.9992,-0.9846,-0.9549,-0.9771,-0.9997,-0.9922,-0.9922,-0.9922,-0.9922,-0.9922,-0.9922,-0.9922,-0.9922,-0.9922,-0.9922,-0.9922,-0.9922,-0.9922,-0.9922,-0.9992,-1.0067,-1.0067,-1.0143,-1.0218,-1.1558,-1.2305,-1.2305,-1.2305,-1.2305,-1.2305,-1.2378,-1.2378,-0.5639,-0.5322,-0.5021,-0.4378,-0.4013,-0.3816,-0.4018,-0.4023,-0.3959,-0.3761,-0.4289,-0.4948,-0.5352,-0.5741,-0.587,-0.5484,-0.5418,-0.5352,-0.5213,-0.5266,-0.5471,-0.5754,-0.5891,-0.6135,-0.6505,-0.674,-0.6741,-0.6457,-0.6543,-0.6659,-0.6751,-0.6754,-0.6758,-0.6915,-0.6915,-0.6915,-0.6915,-0.6842,-0.6842,-0.6996,-0.6915,-0.6608,-0.6069,-0.6069,-0.6689,-0.7613,-0.7613,-0.7613,-0.746,-0.723,-0.7076,-0.7073,-0.6608,-0.6454,-0.6454,-0.63,-0.6224,-0.6224,-0.6224,-0.6224,-0.6224,-0.6224,-0.6224,-0.6224,-0.6377,-0.6458,-0.6381,-0.6157,-0.6079,-0.6079,-0.6079,-0.6079,-0.6157,-0.6546,-0.6619,-0.6773,-0.7153,-0.8156,-0.9013,-0.916,-0.9236,-0.916,-0.9013,-0.9084,-0.9236,-0.9236,-0.9236,-0.9236,-0.9236,-0.9236,-0.9236,-0.9236,-0.9236,-0.9236,-0.9236,-0.9236,-0.9236,-0.9236,-0.9236,-0.9236,-0.9236,-0.9236,-0.9236,-0.9236,-1.0363,-1.0962,-1.0962,-1.1037,-1.1111,-1.1111,-1.126,-1.126,-0.4476,-0.4133,-0.3804,-0.3029,-0.2858,-0.2863,-0.2952,-0.296,-0.2958,-0.3025,-0.3092,-0.3226,-0.3761,-0.4356,-0.4619,-0.4097,-0.4033,-0.3964,-0.3694,-0.3625,-0.3785,-0.4201,-0.4211,-0.4461,-0.5139,-0.5296,-0.5284,-0.5123,-0.5282,-0.5327,-0.5351,-0.5354,-0.543,-0.5509,-0.5509,-0.5524,-0.5558,-0.5594,-0.561,-0.561,-0.561,-0.5303,-0.4683,-0.4683,-0.5381,-0.6538,-0.6538,-0.6538,-0.6538,-0.615,-0.6073,-0.5996,-0.561,-0.5378,-0.5378,-0.5297,-0.5297,-0.5297,-0.5297,-0.5297,-0.522,-0.5217,-0.5217,-0.5143,-0.4988,-0.4988,-0.4913,-0.4611,-0.4535,-0.4535,-0.4535,-0.4535,-0.4535,-0.4768,-0.4846,-0.4996,-0.5455,-0.6919,-0.8003,-0.7923,-0.8003,-0.8003,-0.7923,-0.8003,-0.808,-0.808,-0.8237,-0.8389,-0.8389,-0.8546,-0.8703,-0.8703,-0.8703,-0.8703,-0.8703,-0.8703,-0.8703,-0.8703,-0.8703,-0.8703,-0.8703,-0.8703,-0.8703,-0.8703,-0.9311,-0.962,-0.9771,-0.9922,-0.9992,-1.0143,-1.0293,-1.0293,-0.4474,-0.4348,-0.4124,-0.2856,-0.2513,-0.2468,-0.2274,-0.2221,-0.2354,-0.2686,-0.2753,-0.2753,-0.2753,-0.309,-0.3293,-0.3293,-0.3226,-0.3226,-0.3226,-0.3226,-0.3228,-0.3299,-0.3299,-0.3199,-0.3006,-0.3297,-0.3264,-0.2552,-0.2919,-0.314,-0.3143,-0.3143,-0.336,-0.3721,-0.3721,-0.3767,-0.3858,-0.3872,-0.3917,-0.3917,-0.3917,-0.3919,-0.3841,-0.3841,-0.3919,-0.3995,-0.3995,-0.3995,-0.3995,-0.3997,-0.3919,-0.3919,-0.345,-0.3295,-0.3217,-0.2823,-0.2666,-0.2666,-0.2666,-0.2666,-0.2666,-0.2508,-0.243,-0.2508,-0.3054,-0.3209,-0.3209,-0.321,-0.321,-0.321,-0.321,-0.321,-0.3443,-0.4217,-0.445,-0.4681,-0.5452,-0.5992,-0.6224,-0.5838,-0.6069,-0.6224,-0.5838,-0.6069,-0.63,-0.63,-0.6996,-0.754,-0.754,-0.8237,-0.8703,-0.8703,-0.8703,-0.8703,-0.8703,-0.8703,-0.8703,-0.8703,-0.8703,-0.8703,-0.8703,-0.8703,-0.8703,-0.8703,-0.878,-0.8932,-0.9322,-0.9322,-0.9549,-0.9916,-0.9916,-0.9695,-0.3837,-0.3693,-0.361,-0.2782,-0.2348,-0.2196,-0.222,-0.1993,-0.1816,-0.195,-0.2016,-0.2016,-0.2016,-0.2485,-0.2889,-0.2889,-0.2889,-0.2822,-0.2555,-0.2555,-0.2488,-0.2218,-0.2151,-0.2159,-0.2045,-0.2184,-0.2141,-0.1917,-0.2061,-0.222,-0.2257,-0.2332,-0.2478,-0.2623,-0.2696,-0.2782,-0.2808,-0.2834,-0.2772,-0.2697,-0.2741,-0.2608,-0.2532,-0.2572,-0.2591,-0.2591,-0.2591,-0.3061,-0.3763,-0.3452,-0.3374,-0.3295,-0.2902,-0.2746,-0.2668,-0.2589,-0.2431,-0.2275,-0.2275,-0.2198,-0.212,-0.2042,-0.2042,-0.2042,-0.2277,-0.2354,-0.2354,-0.2354,-0.2354,-0.2354,-0.2354,-0.2354,-0.2433,-0.2744,-0.2823,-0.2899,-0.3132,-0.4217,-0.4991,-0.4836,-0.4913,-0.4991,-0.4836,-0.4913,-0.5065,-0.5065,-0.5297,-0.5529,-0.5529,-0.5761,-0.5915,-0.5915,-0.5915,-0.5996,-0.6153,-0.5996,-0.6073,-0.6314,-0.6234,-0.6153,-0.6314,-0.6314,-0.6314,-0.6314,-0.6314,-0.7161,-0.8932,-0.8932,-0.9008,-0.916,-0.916,-0.9084,-0.3564,-0.3522,-0.3487,-0.3129,-0.2651,-0.2139,-0.1862,-0.1636,-0.1464,-0.1411,-0.1413,-0.1412,-0.1412,-0.1814,-0.2216,-0.2284,-0.2351,-0.2285,-0.2018,-0.2018,-0.1884,-0.1614,-0.1614,-0.1614,-0.1614,-0.1614,-0.1626,-0.1657,-0.1659,-0.1673,-0.1703,-0.1847,-0.1918,-0.1918,-0.2007,-0.2088,-0.2088,-0.2107,-0.2115,-0.1971,-0.2004,-0.1945,-0.1797,-0.192,-0.1941,-0.1864,-0.188,-0.2357,-0.3139,-0.2827,-0.2671,-0.2671,-0.2434,-0.2276,-0.2276,-0.2276,-0.2198,-0.2119,-0.2119,-0.2042,-0.1887,-0.1808,-0.1808,-0.1808,-0.1729,-0.1729,-0.1729,-0.1729,-0.1729,-0.1729,-0.1729,-0.1729,-0.1729,-0.1729,-0.1729,-0.1729,-0.1729,-0.2665,-0.3597,-0.3597,-0.3597,-0.3597,-0.3597,-0.3597,-0.3597,-0.3597,-0.3752,-0.3986,-0.3986,-0.4217,-0.4373,-0.4373,-0.4373,-0.445,-0.4608,-0.445,-0.4528,-0.4766,-0.4686,-0.4686,-0.4766,-0.4766,-0.4766,-0.4766,-0.4766,-0.5616,-0.723,-0.7846,-0.8161,-0.8313,-0.8546,-0.8703,0.0,0.0,0.0,-0.3978,-0.3301,-0.2393,-0.1335,-0.1096,-0.1106,-0.1072,-0.1076,-0.1074,-0.1008,-0.1008,-0.1143,-0.148,-0.1547,-0.1614,-0.1614,-0.1614,-0.1614,-0.1614,-0.1614,-0.1547,-0.1547,-0.1547,-0.1547,-0.1547,-0.1547,-0.1547,-0.1547,-0.1547,-0.1547,-0.1547,-0.1588,-0.1611,-0.1611,-0.1724,-0.1746,-0.1746,-0.1675,-0.1675,-0.1677,-0.1871,-0.1817,-0.1669,-0.1632,-0.1649,-0.1807,-0.1887,-0.1887,-0.1887,-0.1887,-0.1887,-0.1887,-0.1887,-0.1887,-0.1887,-0.1887,-0.1887,-0.1887,-0.1729,-0.165,-0.165,-0.1336,-0.1257,-0.1257,-0.1257,-0.1257,-0.1335,-0.1335,-0.1257,-0.1257,-0.1257,-0.1257,-0.1257,-0.1335,-0.1572,-0.1887,-0.1887,-0.1887,-0.1887,-0.1887,-0.1887,-0.1887,-0.1887,-0.251,-0.3054,-0.3054,-0.3752,-0.4295,-0.4295,-0.4295,-0.4295,-0.4295,-0.4295,-0.4295,-0.4295,-0.4295,-0.4295,-0.4295,-0.4295,-0.4295,-0.4295,-0.4295,-0.4295,-0.4295,-0.5992,-0.7,-0.746,-0.8237,-0.8546,-0.2237,0.0,0.0,0.0,0.0,0.0,-0.1684,-0.1106,-0.0504,0.0065,0.0195,0.0328,0.0802,0.0872,0.0805,0.0738,-0.0403,-0.121,-0.121,-0.121,-0.121,-0.121,-0.121,-0.0941,-0.0269,-0.0202,-0.0,0.0469,0.0469,0.047,0.0336,0.0202,0.0067,-0.0067,-0.0068,-0.0136,-0.0136,0.0,0.0137,0.0274,0.042,0.0495,0.0637,0.0436,0.052,0.0756,0.0609,0.0694,0.0704,-0.1177,-0.1965,-0.2044,-0.1965,-0.1887,-0.1887,-0.2044,-0.1965,-0.1887,-0.1887,-0.1729,-0.1493,-0.1415,-0.1178,-0.0864,-0.0786,-0.0786,-0.0786,-0.0786,-0.1021,-0.1335,-0.1335,-0.1021,-0.0786,-0.0786,-0.0786,-0.0864,-0.1257,-0.11,-0.1021,-0.1415,-0.1493,-0.1493,-0.1493,-0.1493,-0.1493,-0.1493,-0.1649,-0.1804,-0.1804,-0.2038,-0.2195,-0.2195,-0.2195,-0.2195,-0.2353,-0.2273,-0.2273,-0.2588,-0.2431,-0.2431,-0.2588,-0.2588,-0.2588,-0.2588,-0.2588,-0.2588,-0.2588,-0.4295,-0.5146,-0.5297,-0.5452,-0.5607,-0.1287,-0.1287,-0.1512,-0.1737,0.0,0.0,0.0714,0.1034,0.0998,0.1623,0.1505,0.138,0.1736,0.1809,0.1809,0.1809,0.0938,0.0201,0.0067,0.0,0.0,0.0,0.0,0.0268,0.0805,0.0873,0.1006,0.1407,0.1408,0.1408,0.1343,0.1208,0.1074,0.0938,0.0938,0.0938,0.0938,0.1072,0.1206,0.1341,0.1363,0.1511,0.1581,0.1766,0.1732,0.1685,0.1872,0.1904,0.1697,0.0312,-0.0392,-0.0392,-0.0313,-0.0313,-0.0313,-0.0392,-0.0392,-0.0313,-0.0313,-0.0157,0.0,-0.0157,-0.0,0.0235,0.0627,0.0705,0.0705,0.0862,0.047,-0.0,-0.0157,-0.0,0.0313,0.0627,0.0784,0.0784,0.0392,0.0235,-0.0078,-0.0864,-0.1178,-0.1257,-0.1021,-0.1021,-0.11,-0.1257,-0.1335,-0.1335,-0.1335,-0.1335,-0.1335,-0.1335,-0.1335,-0.1335,-0.1493,-0.1336,-0.1415,-0.165,-0.1572,-0.1493,-0.165,-0.165,-0.165,-0.165,-0.165,-0.165,-0.165,-0.313,-0.4062,-0.4373,-0.4373,-0.4373,-0.0673,-0.0673,-0.0561,-0.0,-0.1122,0.0,0.3753,0.3737,0.2793,0.301,0.2574,0.2113,0.212,0.2186,0.2186,0.2186,0.2193,0.2134,0.1742,0.1676,0.1676,0.1676,0.1676,0.1676,0.181,0.181,0.1877,0.1944,0.1944,0.1877,0.1877,0.1877,0.1877,0.1877,0.1877,0.1877,0.1877,0.1877,0.1877,0.1877,0.1877,0.1877,0.1946,0.2409,0.2369,0.1961,0.2654,0.2637,0.2118,0.2245,0.2189,0.2033,0.1955,0.2033,0.2189,0.2033,0.2111,0.2268,0.2268,0.2268,0.2189,0.1798,0.172,0.1876,0.2582,0.2738,0.2818,0.3054,0.2738,0.2189,0.1798,0.172,0.1877,0.2582,0.2974,0.3054,0.2818,0.2189,0.1408,0.0235,-0.0471,-0.0785,-0.0471,-0.0314,-0.0471,-0.0864,-0.11,-0.1257,-0.1257,-0.1257,-0.1257,-0.1257,-0.1257,-0.1257,-0.1257,-0.1257,-0.1257,-0.1257,-0.1257,-0.1257,-0.1257,-0.1257,-0.1257,-0.1257,-0.1257,-0.1257,-0.1257,-0.2352,-0.3287,-0.4062,-0.4062,-0.4062,0.0564,0.0729,0.0842,0.0729,0.028,0.0,0.114,0.2234,0.2898,0.2339,0.2113,0.2129,0.2428,0.2501,0.2501,0.2501,0.2997,0.3067,0.2134,0.2007,0.2007,0.2007,0.2007,0.2275,0.3084,0.3151,0.3351,0.3954,0.3885,0.3751,0.3751,0.3751,0.3685,0.3556,0.3556,0.3489,0.3353,0.3489,0.3556,0.3556,0.3692,0.3761,0.3761,0.3713,0.3766,0.3918,0.419,0.437,0.4458,0.4724,0.3988,0.266,0.2111,0.2896,0.4238,0.3132,0.3446,0.4396,0.4396,0.4396,0.4396,0.4316,0.4316,0.4316,0.4474,0.4474,0.4555,0.4555,0.4474,0.4396,0.4316,0.4316,0.4316,0.4474,0.4555,0.4555,0.4555,0.4396,0.4238,0.3925,0.2741,0.1565,0.1017,0.1175,0.1411,0.1254,0.0157,-0.0707,-0.0707,-0.0707,-0.0707,-0.0707,-0.0707,-0.0707,-0.0707,-0.0707,-0.0707,-0.0707,-0.0707,-0.0707,-0.0707,-0.0707,-0.0707,-0.0707,-0.0707,-0.0707,-0.0707,-0.1335,-0.1727,-0.1883,-0.1883,-0.1883,0.1356,0.1234,0.1234,0.1234,0.1122,0.0,0.0,0.2242,0.2847,0.2747,0.2703,0.2777,0.2942,0.3073,0.3073,0.2891,0.3595,0.3916,0.3079,0.3222,0.348,0.348,0.348,0.3616,0.409,0.4159,0.4292,0.4694,0.4625,0.4558,0.4558,0.4558,0.4492,0.4295,0.4295,0.4292,0.4225,0.4292,0.4361,0.4428,0.4498,0.4564,0.4564,0.4431,0.4462,0.4662,0.4792,0.4991,0.5191,0.54,0.5032,0.4226,0.391,0.4384,0.5176,0.454,0.4701,0.5335,0.5335,0.5335,0.5335,0.5335,0.5335,0.5335,0.5335,0.5335,0.5335,0.5335,0.5335,0.5335,0.5335,0.5335,0.5335,0.5335,0.5335,0.5335,0.5335,0.5335,0.5335,0.5335,0.4621,0.3832,0.321,0.3292,0.3137,0.2349,0.1488,0.094,0.094,0.094,0.094,0.094,0.094,0.0627,-0.0235,-0.0314,-0.0314,-0.0314,-0.0314,-0.0314,-0.0314,-0.0314,-0.0314,-0.0314,-0.0471,-0.0628,-0.0628,-0.0864,-0.0943,-0.0943,-0.0943,-0.0943,0.2093,0.1626,0.1625,0.1738,0.1906,0.2146,0.0,0.0,0.0,0.3182,0.3258,0.3258,0.3258,0.332,0.3322,0.3082,0.3843,0.432,0.3851,0.4405,0.482,0.4751,0.4929,0.4951,0.486,0.4857,0.4866,0.4894,0.4872,0.4869,0.4894,0.4897,0.4827,0.4691,0.4715,0.473,0.473,0.4754,0.4836,0.5106,0.4971,0.5039,0.5373,0.5174,0.5238,0.5379,0.553,0.5661,0.5775,0.5929,0.6063,0.6173,0.5789,0.5637,0.5637,0.5637,0.5637,0.5637,0.5637,0.5637,0.5637,0.5637,0.5637,0.5637,0.5637,0.5637,0.5637,0.5637,0.5637,0.5637,0.5637,0.5637,0.5637,0.5637,0.5637,0.5637,0.5637,0.5637,0.5637,0.5637,0.5637,0.5485,0.5182,0.5104,0.4628,0.3287,0.3051,0.313,0.313,0.313,0.313,0.313,0.313,0.2582,0.1174,0.0782,0.0626,0.0627,0.0627,0.0627,0.0627,0.0627,0.0471,0.0157,-0.0235,-0.0393,-0.0393,-0.0393,-0.0393,-0.0471,-0.0471,-0.0471,0.3119,0.2738,0.2852,0.2738,0.2738,0.2798,0.2865,0.0,0.2699,0.2765,0.0,0.2767,0.2767,0.0,0.0,0.2711,0.3307,0.3728,0.3776,0.4439,0.4784,0.4593,0.526,0.5636,0.5172,0.5159,0.5216,0.5352,0.5045,0.5029,0.5289,0.5362,0.5226,0.502,0.5145,0.5139,0.5067,0.5191,0.5606,0.6306,0.5606,0.5958,0.7355,0.6659,0.6726,0.7368,0.7704,0.7874,0.791,0.8196,0.83,0.8165,0.6328,0.5637,0.5637,0.5637,0.5637,0.5637,0.5637,0.5637,0.5637,0.5637,0.5637,0.5637,0.5637,0.5637,0.5637,0.5637,0.5637,0.5637,0.5637,0.5637,0.5637,0.5637,0.5637,0.5637,0.5637,0.5637,0.5637,0.5637,0.5637,0.5559,0.5562,0.5404,0.5323,0.5085,0.5171,0.5257,0.5257,0.5257,0.5257,0.5257,0.5257,0.5176,0.4943,0.3597,0.2734,0.2734,0.2734,0.2734,0.2734,0.2734,0.2032,0.0549,0.047,0.047,0.0471,0.0471,0.0314,-0.0079,-0.0079,-0.0079,0.3727,0.3784,0.41,0.3588,0.384,0.4088,0.3302,0.3181,0.3181,0.3067,0.0,0.0,0.0,0.0,0.0,0.0,0.3613,0.4016,0.3713,0.4526,0.51,0.4793,0.5088,0.5304,0.5325,0.5262,0.5513,0.6195,0.6074,0.6298,0.7078,0.726,0.7048,0.6299,0.6301,0.6268,0.6057,0.6122,0.6583,0.7495,0.7283,0.7491,0.8127,0.791,0.8051,0.8338,0.8502,0.8615,0.8743,0.8842,0.896,0.8998,0.808,0.7625,0.7399,0.7399,0.7399,0.7399,0.7399,0.7399,0.7399,0.7399,0.7399,0.7399,0.7399,0.7399,0.7326,0.6868,0.6714,0.6714,0.6714,0.6331,0.6103,0.6563,0.6331,0.6025,0.6025,0.6025,0.6025,0.6025,0.6103,0.6177,0.6177,0.5789,0.5479,0.5479,0.5562,0.5565,0.5565,0.5565,0.5643,0.5796,0.5643,0.5643,0.5724,0.5087,0.4774,0.4937,0.5176,0.5332,0.5326,0.5326,0.4857,0.3919,0.2973,0.2582,0.282,0.2584,0.2349,0.2192,0.0941,0.0314,0.5113,0.5197,0.5417,0.4432,0.4748,0.5072,0.4082,0.3953,0.4012,0.3898,0.384,0.0,0.0,0.0,0.3956,0.3727,0.0,0.4529,0.4135,0.4819,0.5207,0.4733,0.477,0.4975,0.5248,0.5099,0.5542,0.6767,0.6677,0.7161,0.8424,0.8667,0.8408,0.7571,0.7624,0.7583,0.744,0.7496,0.7947,0.8806,0.8734,0.8949,0.9373,0.9301,0.9367,0.9586,0.9586,0.9691,0.9783,0.9783,0.9892,0.9976,0.9976,0.975,0.9453,0.9003,0.8851,0.8851,0.8851,0.8851,0.8851,0.8851,0.8851,0.8851,0.8851,0.8851,0.8775,0.8165,0.8012,0.8012,0.8012,0.7557,0.7249,0.7863,0.7557,0.7099,0.7099,0.7099,0.7099,0.7099,0.7249,0.7326,0.7326,0.6556,0.5944,0.5944,0.5944,0.587,0.587,0.5792,0.587,0.6096,0.5944,0.5948,0.6103,0.6103,0.6187,0.6359,0.668,0.6835,0.6828,0.6906,0.6592,0.6045,0.4851,0.43,0.4304,0.4066,0.3986,0.3908,0.1802,0.0785,0.7727,0.7094,0.6829,0.5593,0.5281,0.5285,0.5222,0.5222,0.5222,0.5222,0.5222,0.5222,0.5222,0.512,0.5069,0.5226,0.5124,0.0,0.0,0.5289,0.4967,0.4147,0.4438,0.4814,0.5019,0.4723,0.5115,0.6612,0.6425,0.6945,0.8708,0.8824,0.8754,0.8754,0.8903,0.9025,0.902,0.9165,0.9648,1.0387,0.9648,1.0099,1.1601,1.0765,1.084,1.1607,1.1607,1.1607,1.162,1.162,1.1626,1.1632,1.1632,1.1632,1.1403,0.9825,0.9301,0.9301,0.9301,0.9301,0.9301,0.9301,0.9301,0.9301,0.9301,0.9301,0.9301,0.9221,0.9226,0.9226,0.9226,0.9221,0.9221,0.9221,0.9221,0.9226,0.9226,0.9226,0.9226,0.9226,0.9221,0.9221,0.9221,0.7931,0.6865,0.6865,0.6714,0.6563,0.6563,0.6412,0.6335,0.6563,0.6563,0.6637,0.6865,0.6865,0.6788,0.6563,0.6791,0.6791,0.6641,0.6791,0.6395,0.5384,0.5467,0.5079,0.4146,0.4295,0.437,0.4295,0.2268,0.1254,0.9055,0.9454,0.9583,0.7475,0.763,0.7855,0.6032,0.5827,0.5884,0.5703,0.5716,0.5763,0.5644,0.5572,0.5572,0.5622,0.5513,0.5458,0.0,0.5508,0.534,0.4897,0.522,0.5405,0.5401,0.6027,0.6936,0.8115,0.8805,0.9734,1.0968,1.1234,1.0967,1.0154,1.0171,1.0137,0.9994,1.0077,1.0496,1.1323,1.1174,1.1403,1.1855,1.1774,1.1848,1.2077,1.2077,1.2077,1.2077,1.2077,1.2077,1.2077,1.2077,1.2077,1.2003,1.118,1.0881,1.0881,1.0881,1.0881,1.0881,1.0881,1.0881,1.0881,1.0881,1.0881,1.0801,1.0271,1.0115,1.0115,1.0115,0.9669,0.9448,0.997,0.9669,0.9296,0.9296,0.9296,0.9296,0.9296,0.9372,0.9523,0.9523,0.914,0.8761,0.8537,0.8008,0.7629,0.7629,0.7096,0.6791,0.6949,0.6868,0.6865,0.7099,0.6942,0.6942,0.7026,0.7026,0.7099,0.7176,0.7253,0.7096,0.6556,0.6633,0.6479,0.617,0.6086,0.616,0.6244,0.4838,0.3826,1.0905,1.137,1.1516,0.9466,0.9641,0.9652,0.7348,0.6939,0.6979,0.6546,0.6328,0.6286,0.6668,0.638,0.6168,0.6332,0.6164,0.6,0.0,0.6,0.5941,0.5828,0.5776,0.5853,0.6035,0.6497,0.7405,0.8884,0.9682,1.0653,1.176,1.2308,1.2224,1.1465,1.1391,1.1242,1.1168,1.1242,1.1471,1.1929,1.215,1.215,1.2077,1.2224,1.2305,1.2305,1.2305,1.2305,1.2305,1.2305,1.2305,1.2305,1.2305,1.2305,1.2378,1.2003,1.1929,1.1929,1.1929,1.1929,1.1929,1.1929,1.1929,1.1929,1.1929,1.1929,1.18,1.1433,1.1241,1.1192,1.1283,1.0865,1.0501,1.1019,1.0795,1.0496,1.0496,1.0501,1.0571,1.0571,1.0645,1.0795,1.0795,1.087,1.0645,0.9669,0.8993,0.8613,0.8613,0.808,0.7855,0.8012,0.7931,0.7855,0.7714,0.7633,0.748,0.718,0.7257,0.7334,0.7411,0.7484,0.7435,0.7266,0.7289,0.7289,0.727,0.7126,0.7173,0.7257,0.663,0.6005]}]]